GFSGL_500_spd_000.txt.gz
Wind_Speed
76 80 81 83 83 83 83 82 80 80 81 83 85 87 87 83 76 67 60 53 48 46 48 51 50 50 49 49 48 45 41 44 46 44 42 43 44 48 65 68 72 68 67
80 83 83 83 82 81 81 80 80 80 81 82 83 80 74 66 59 54 49 49 49 49 49 49 49 48 48 48 49 49 47 44 43 42 48 49 45 49 56 54 55 65 75
82 81 79 81 80 79 80 80 79 80 81 82 77 69 60 55 50 50 50 53 53 53 54 54 53 53 52 53 52 50 48 45 42 40 39 43 47 46 50 50 51 53 59
82 84 78 81 80 80 78 80 80 80 78 73 65 58 51 48 50 51 53 56 57 56 55 54 54 55 55 56 55 54 51 46 42 40 38 40 42 45 49 49 49 48 48
82 84 84 86 85 81 80 81 80 76 70 62 56 49 49 51 52 55 57 57 55 52 50 50 50 50 51 53 55 54 52 49 44 39 36 37 39 41 45 48 49 50 50
85 86 86 89 92 90 87 81 75 71 61 51 45 46 49 52 55 57 55 52 50 49 47 44 44 44 45 48 50 50 50 49 45 40 37 35 35 37 39 42 44 47 48
86 88 88 81 74 72 72 74 72 59 46 42 44 47 49 54 57 56 51 51 49 48 46 44 41 40 39 41 43 42 43 45 45 41 38 35 34 34 36 38 39 41 45
87 85 82 77 72 67 69 68 55 43 41 42 46 48 50 54 56 55 52 51 48 44 42 40 39 38 38 37 35 34 36 39 40 40 36 36 35 36 36 37 39 42 44
88 81 77 69 59 61 69 50 39 41 41 43 45 48 52 53 52 51 49 46 41 38 38 39 39 37 34 31 29 27 29 33 34 35 35 34 34 33 33 33 34 37 38
82 75 69 64 50 56 56 37 39 37 41 42 43 47 50 51 50 47 43 40 38 36 35 33 31 27 23 24 23 22 23 27 28 30 30 29 28 26 26 24 26 27 29
74 69 61 45 44 46 35 33 32 37 40 40 42 45 47 47 45 40 37 32 30 30 27 22 19 17 16 16 15 15 17 21 22 22 21 20 20 19 20 20 22 25 25
68 61 50 38 35 30 27 27 32 38 39 40 43 45 45 44 38 35 31 29 28 28 26 22 18 12 8 4 4 9 14 16 16 15 14 14 14 16 19 23 25 25 27
58 46 36 28 23 26 26 27 34 38 40 41 46 43 41 39 34 30 28 28 28 26 24 22 18 15 9 4 6 9 11 12 10 10 9 10 11 11 10 10 12 15 19
45 34 27 26 29 28 26 29 35 40 40 42 46 41 38 34 30 27 25 27 26 25 23 20 15 12 10 8 7 9 10 10 9 7 8 9 7 5 3 3 5 8 11
35 29 27 30 33 29 28 30 35 40 40 42 45 40 36 32 27 22 22 24 20 20 19 17 17 16 15 11 8 9 10 12 15 15 14 12 11 9 9 9 9 11 14
31 27 29 32 32 29 28 32 36 39 39 42 42 37 35 30 26 20 19 21 17 16 15 14 14 13 13 12 11 13 16 16 16 15 14 11 9 7 7 7 8 10 13
29 28 30 32 30 28 29 32 34 38 37 41 38 33 32 29 25 18 15 17 15 12 11 10 10 10 10 10 10 9 9 9 9 9 8 7 6 5 6 7 8 9 11
28 29 29 31 30 29 30 32 35 35 36 42 36 30 29 27 22 18 13 13 14 11 9 7 7 8 9 7 6 2 2 3 4 5 3 2 2 2 4 5 6 8 10
28 31 30 30 31 30 30 31 34 32 36 41 36 28 29 27 22 19 16 13 12 11 9 8 9 8 8 7 6 5 4 5 5 5 4 3 2 1 2 4 4 6 8
29 28 29 28 29 29 29 31 31 31 36 39 34 28 27 27 24 19 16 15 15 13 11 10 9 8 8 8 6 5 5 6 7 8 7 7 6 5 5 5 5 5 6
28 28 27 27 28 28 28 30 28 32 35 37 36 29 27 26 24 22 18 16 17 20 18 16 13 11 9 7 7 7 7 7 8 9 10 10 9 10 10 9 8 7 8
27 28 27 27 26 27 28 28 28 33 36 38 38 32 26 24 23 22 21 19 17 17 22 24 22 19 17 15 13 12 12 12 11 11 11 12 13 13 13 13 12 12 12
28 28 27 25 25 26 28 27 30 33 36 38 38 35 28 23 22 22 22 22 20 18 18 21 27 28 26 24 22 20 19 18 17 17 15 15 14 15 15 15 15 15 15
26 24 22 23 25 27 27 28 30 34 36 37 37 35 30 24 22 23 24 24 24 22 20 19 21 24 29 30 29 28 26 24 23 21 20 20 19 18 17 17 16 16 16
23 21 22 25 28 28 28 28 31 33 35 37 36 35 29 23 21 23 26 26 26 24 23 21 20 20 22 26 29 30 29 28 28 27 26 24 23 22 22 21 21 21 20
21 22 26 28 30 29 28 29 31 32 34 36 35 35 28 24 23 24 27 28 27 26 24 22 21 21 21 21 24 27 30 30 29 29 29 29 28 28 27 26 26 26 26

GFSGL_500_spd_003.txt.gz
Wind_Speed
73 77 80 82 84 84 80 81 82 82 81 81 78 78 78 75 71 67 62 55 49 47 48 49 47 48 46 46 47 47 48 47 47 41 40 40 42 39 42 44 45 68 86
75 78 80 82 81 82 81 81 82 81 77 73 74 70 68 65 61 56 48 44 46 49 51 52 53 54 53 52 51 51 52 51 47 41 39 40 39 43 43 44 43 44 59
80 83 85 84 83 86 87 91 90 84 77 77 73 72 65 57 49 41 41 45 49 52 55 55 53 50 49 50 53 54 55 55 53 48 41 38 41 41 43 47 46 49 49
85 87 85 85 86 90 90 89 81 62 70 69 70 62 50 41 38 41 45 48 52 55 53 50 47 45 45 45 47 51 53 55 55 53 48 44 39 41 41 45 52 49 54
85 87 86 87 89 87 84 79 55 63 67 70 71 48 40 38 42 44 47 51 53 51 47 46 45 44 44 45 45 43 45 49 50 52 51 45 42 41 40 41 46 48 49
87 87 88 89 86 79 73 50 57 71 61 58 62 48 42 42 44 47 51 52 49 47 46 45 46 45 45 44 43 42 40 38 43 46 49 46 41 41 40 39 42 45 48
87 87 89 89 83 72 67 51 59 66 54 60 48 46 45 43 47 51 51 47 46 44 45 44 42 41 41 40 38 38 36 34 35 40 45 42 40 39 38 36 36 39 41
87 89 89 85 73 67 59 48 51 50 51 43 42 44 43 46 50 51 47 43 42 41 41 40 38 37 38 37 34 33 32 31 30 34 38 38 39 38 37 34 34 35 37
89 89 81 72 66 59 50 39 41 42 32 34 40 40 42 48 48 44 40 38 35 37 35 34 33 30 26 27 27 25 24 26 27 28 32 33 36 36 35 33 31 32 34
89 83 72 66 57 47 36 34 32 26 28 35 37 38 43 45 44 38 35 32 31 34 34 34 31 27 22 19 17 16 18 22 23 25 28 29 31 32 32 31 31 30 30
84 72 66 55 45 34 26 23 25 23 30 35 38 39 46 44 42 35 30 29 31 32 32 31 29 24 19 16 12 11 13 17 20 21 23 24 26 27 27 25 24 23 22
74 65 54 45 34 27 28 29 23 26 31 37 40 41 47 43 40 34 28 28 31 30 31 30 25 20 15 11 8 3 5 9 12 15 16 18 19 19 19 19 18 19 22
66 57 46 38 30 27 29 29 25 28 32 37 39 41 45 40 38 33 27 26 28 28 29 26 21 18 16 13 8 4 6 10 13 14 14 14 14 14 14 14 13 12 13
57 48 40 32 27 30 31 28 26 28 33 38 38 41 43 38 36 30 25 22 24 23 23 21 21 22 21 15 10 7 9 12 14 13 12 11 11 10 9 8 6 3 1
50 40 33 28 27 30 30 27 26 28 33 37 36 41 43 36 34 28 20 18 19 17 17 18 20 22 20 17 11 8 8 9 12 14 15 15 14 14 12 10 7 4 2
40 33 29 26 27 28 28 27 28 30 33 35 35 41 42 34 33 28 23 16 16 13 13 14 16 18 17 14 12 13 14 14 14 15 15 14 13 11 8 7 5 3 1
31 30 28 27 28 29 28 27 27 30 32 31 34 38 39 31 31 27 21 15 14 13 11 11 12 13 14 12 10 7 8 8 10 11 11 10 8 7 6 5 4 2 1
27 27 29 27 27 28 27 27 27 28 30 28 32 35 37 30 28 25 22 17 13 12 11 11 11 10 11 10 7 4 1 3 6 8 7 7 6 5 4 3 2 1 1
27 27 29 27 26 28 26 25 26 28 27 29 33 35 36 31 26 24 21 18 15 14 12 12 12 12 11 9 7 4 3 4 7 9 8 7 7 7 5 4 4 4 4
26 26 24 25 26 27 25 23 25 26 27 30 34 36 37 34 25 23 21 18 16 15 17 16 14 13 11 10 9 8 7 6 7 9 10 11 11 10 10 8 8 7 7
25 24 25 26 26 25 22 22 25 26 28 31 34 35 36 34 28 21 21 20 18 16 16 19 20 18 16 13 11 9 8 8 8 9 11 12 14 14 14 12 12 12 11
27 28 27 25 23 21 21 24 26 27 29 32 34 35 35 33 28 22 20 21 20 19 17 18 20 23 24 22 19 16 14 13 12 11 11 12 13 15 16 16 16 17 17
29 27 25 21 19 21 24 25 26 27 29 32 34 35 33 31 26 21 19 20 22 23 21 19 19 22 24 27 28 27 24 21 19 18 17 16 16 16 15 16 17 18 19
25 23 20 20 21 24 26 26 25 27 29 31 32 33 32 29 25 21 20 21 23 25 25 24 22 21 24 25 27 30 31 30 27 25 24 23 21 20 20 19 19 19 19
22 22 23 24 26 27 26 26 25 26 29 29 30 31 30 28 25 22 21 21 23 26 27 26 24 23 23 23 25 26 29 31 31 29 28 28 27 26 25 23 23 22 22
24 26 27 28 28 27 27 26 25 27 28 27 27 28 30 30 27 23 23 25 26 28 28 27 25 23 23 23 23 24 25 26 29 30 30 30 29 29 29 28 28 27 27

GFSGL_500_spd_006.txt.gz
Wind_Speed
68 71 75 80 83 85 86 85 84 86 86 88 85 80 76 61 68 72 72 59 50 47 46 46 47 49 51 52 53 53 53 53 55 48 45 43 46 46 47 45 40 42 49
70 74 79 84 87 88 89 87 88 89 87 81 73 73 62 62 67 61 63 49 46 45 46 48 50 52 55 56 57 56 56 56 58 55 53 49 46 49 51 47 45 42 39
74 79 84 87 90 90 89 89 89 88 82 66 69 63 64 68 63 63 56 51 51 51 52 54 57 57 54 52 50 51 51 53 55 58 58 57 52 48 49 49 46 48 40
80 84 86 88 88 89 90 91 89 78 72 68 57 54 65 62 60 54 51 51 52 55 58 58 54 51 50 50 48 46 46 47 48 49 52 58 58 55 50 49 50 47 52
83 85 88 89 89 91 93 91 80 72 66 55 49 58 57 52 47 47 48 50 55 56 53 49 48 47 47 48 48 47 46 44 44 45 44 51 56 57 55 51 49 50 50
85 87 90 90 91 94 92 84 73 65 58 46 51 51 42 42 45 46 48 54 53 49 44 43 41 40 41 42 42 42 40 40 43 45 42 43 50 54 55 51 48 48 50
86 87 89 89 93 93 83 71 60 54 41 35 35 33 35 41 43 44 51 50 48 43 41 41 41 42 42 39 40 37 36 36 36 38 39 38 42 49 51 47 46 47 46
84 87 89 93 92 83 69 58 50 41 32 28 27 31 37 40 42 48 50 48 42 39 41 42 43 42 40 38 36 30 31 33 33 33 33 34 37 41 43 43 44 41 40
86 89 91 90 83 69 57 46 36 27 27 29 28 32 38 41 43 50 46 42 37 38 40 42 42 39 35 33 31 23 21 26 30 31 30 29 31 36 38 39 39 37 35
87 89 89 81 71 58 47 37 29 30 31 31 32 35 40 42 45 48 44 38 33 34 37 39 39 36 30 25 25 20 16 18 19 21 23 23 26 30 33 35 34 34 32
87 89 83 73 59 49 39 32 30 32 34 32 33 37 41 42 46 47 44 36 29 30 32 33 33 31 27 24 21 19 12 12 14 14 13 18 22 26 28 30 30 30 29
86 84 74 61 51 42 33 28 30 34 33 32 33 37 41 41 46 45 41 33 27 26 28 29 29 30 29 24 21 18 10 4 3 7 12 16 18 21 23 25 26 27 26
81 76 66 53 44 35 29 29 32 34 31 31 33 37 40 39 45 42 40 32 25 23 24 25 27 29 29 26 21 17 12 7 6 9 12 14 15 16 18 20 21 22 22
74 69 58 46 37 31 28 28 31 31 30 32 33 36 36 37 43 39 37 31 23 21 20 21 24 26 25 22 18 14 11 9 10 12 13 14 15 16 17 17 18 20 20
68 61 51 38 32 29 29 29 31 32 31 31 32 35 33 37 40 38 34 30 22 19 17 16 18 22 23 19 17 14 10 7 7 9 10 11 12 12 13 14 14 12 10
60 52 43 32 29 29 29 30 31 33 31 30 31 32 33 37 39 38 32 30 24 19 16 13 14 16 19 16 14 13 12 11 10 11 11 12 12 11 11 12 11 10 7
52 43 35 30 27 29 28 28 30 32 29 29 31 30 33 37 38 37 31 28 23 19 16 14 12 13 13 14 11 9 7 7 7 8 9 9 9 8 8 7 6 6 6
42 35 30 27 27 26 26 27 28 27 27 29 30 31 34 36 36 35 30 26 24 19 16 16 14 12 12 11 9 6 4 3 2 1 2 4 5 5 6 6 7 7 6
35 29 26 25 25 27 27 27 28 26 27 28 30 32 34 35 35 33 28 23 22 20 18 17 17 15 14 13 11 8 5 5 6 7 7 6 6 6 6 7 8 8 8
31 26 25 27 28 28 26 25 24 25 28 29 31 33 34 34 33 32 29 22 20 19 18 18 18 20 18 15 14 12 10 8 8 9 11 12 13 13 12 11 11 10 10
31 28 28 29 27 25 21 22 24 26 28 28 29 31 33 32 31 30 28 23 20 20 20 19 19 20 22 22 19 16 14 12 11 11 12 13 15 15 16 16 16 15 14
30 28 28 27 24 19 20 23 26 27 26 26 28 30 31 31 31 29 28 24 21 21 22 23 20 19 21 23 25 25 22 20 17 15 14 13 13 14 16 19 20 20 19
29 27 25 23 21 21 23 26 27 28 27 26 27 28 28 30 30 29 28 25 23 23 23 24 24 24 22 22 25 27 29 29 27 24 21 20 18 17 18 18 19 20 20
27 24 22 22 23 23 26 28 28 27 26 25 26 26 26 27 29 28 28 26 25 25 26 26 27 27 27 24 24 26 28 30 33 32 30 28 26 24 23 23 22 22 22
27 26 25 26 27 28 29 30 29 28 26 24 25 24 23 24 27 28 28 27 27 28 29 29 27 27 26 25 24 24 25 26 28 32 35 34 33 32 30 29 28 27 26
26 26 28 29 30 31 31 30 29 28 26 24 23 23 22 22 23 25 28 30 30 30 30 29 28 26 25 24 24 23 24 25 25 27 30 33 34 34 34 33 33 32 31

GFSGL_500_spd_009.txt.gz
Wind_Speed
62 66 68 72 77 81 85 88 91 93 94 94 95 96 91 83 76 72 74 71 62 68 74 59 50 53 54 54 55 56 56 57 56 54 53 51 50 50 48 48 47 44 42
66 68 71 76 80 84 87 90 91 93 94 96 98 88 77 73 67 63 58 55 60 71 51 51 52 54 56 58 57 56 56 56 59 57 55 53 55 54 53 51 50 47 42
67 70 75 79 81 85 89 91 93 95 96 98 90 77 67 61 57 55 61 64 54 50 51 52 55 57 54 50 49 49 50 51 52 54 52 50 53 55 57 56 54 50 48
70 74 77 81 84 89 91 92 96 98 101 94 75 61 56 51 46 49 42 42 48 49 53 54 53 49 45 41 43 44 44 44 48 51 52 50 50 50 57 60 59 54 50
74 77 81 85 88 89 91 94 96 98 91 73 56 50 45 38 36 37 43 46 47 53 51 52 47 43 45 46 46 47 47 47 45 48 50 50 50 48 50 56 60 57 51
75 80 85 87 88 90 94 95 97 89 72 54 44 39 31 28 33 40 44 46 50 52 50 48 43 44 46 48 49 48 47 45 44 45 44 43 48 46 47 49 54 58 51
79 84 85 85 89 94 94 94 86 70 53 42 36 32 33 33 36 42 47 46 52 50 48 44 41 44 46 47 46 43 42 40 41 35 35 36 39 43 45 43 46 53 51
82 83 83 88 92 92 92 86 72 56 44 37 35 35 35 36 39 43 47 47 53 47 44 39 40 41 43 44 42 39 36 36 34 28 29 30 32 37 41 41 41 45 45
81 81 87 92 92 90 85 75 59 48 38 34 35 37 36 37 40 44 46 46 48 42 39 37 38 38 41 43 38 35 32 30 26 22 24 29 29 31 34 35 36 39 38
80 86 89 92 89 86 76 62 50 42 34 33 36 37 36 37 40 44 44 47 42 39 34 34 34 36 39 40 37 32 28 23 18 15 15 21 25 27 29 29 30 31 35
84 88 91 89 85 76 66 54 43 35 32 34 36 36 35 36 40 43 42 47 39 35 29 30 30 34 37 37 36 32 27 20 12 9 7 10 15 20 22 23 26 29 29
86 89 87 83 76 68 58 45 37 32 31 32 35 35 36 37 40 39 42 45 37 33 27 26 26 30 34 34 33 31 26 19 13 6 0 6 10 13 16 19 21 24 27
89 86 82 77 67 60 50 38 34 31 31 33 35 37 36 37 40 38 42 43 38 33 25 24 23 26 30 29 28 27 24 18 13 9 6 6 8 11 14 17 20 23 23
85 79 75 67 60 52 41 34 32 32 32 33 35 36 35 37 37 38 40 41 39 31 26 22 22 22 26 26 23 23 21 17 13 9 8 8 9 11 14 16 18 20 20
78 74 66 60 52 43 35 32 31 31 31 31 33 33 34 35 35 37 39 40 38 29 26 21 21 19 21 23 20 18 18 17 13 9 7 7 8 10 11 13 14 15 15
74 66 58 52 43 36 31 30 29 28 29 30 31 31 33 34 36 38 39 38 36 28 25 21 19 18 17 18 19 14 13 13 12 10 9 8 7 8 8 9 10 11 13
65 58 50 43 37 32 27 26 27 31 30 29 30 31 33 34 36 37 37 36 33 27 23 21 18 17 15 14 14 15 10 9 9 8 8 8 9 8 9 10 12 12 12
57 50 43 37 33 29 29 29 29 28 28 29 30 31 33 34 35 35 34 34 32 26 21 20 19 17 17 14 12 11 11 7 5 4 3 4 4 4 4 5 7 8 7
51 44 39 34 32 31 31 31 28 25 25 27 31 32 31 32 33 33 32 32 30 25 21 19 19 18 18 18 15 13 11 10 8 6 6 4 2 2 1 2 3 4 5
46 39 36 32 31 31 30 29 24 23 26 29 31 29 30 31 32 32 31 30 28 25 21 20 19 20 19 18 20 18 15 13 12 11 10 10 10 10 9 9 8 7 8
40 37 33 30 29 28 26 24 23 25 29 29 30 29 29 30 30 30 30 30 28 25 23 22 22 22 20 19 19 22 22 19 16 15 15 14 14 14 15 15 15 14 13
38 34 30 27 26 25 24 23 25 28 30 31 29 29 28 28 28 29 30 29 29 28 26 25 25 25 23 22 21 20 23 26 25 22 20 18 17 17 17 17 18 19 19
35 30 28 26 26 26 26 27 28 29 30 30 31 29 27 26 26 27 29 29 29 29 29 28 28 29 28 27 26 25 23 23 27 30 28 26 23 21 20 19 19 19 20
31 28 27 26 27 28 29 30 30 30 30 31 31 29 27 25 24 24 25 26 28 30 31 30 29 28 28 26 25 25 24 24 25 27 32 34 32 30 28 26 25 24 23
29 27 24 24 24 26 28 29 30 30 30 30 30 30 29 25 25 24 24 24 26 28 31 33 32 30 28 26 25 24 23 23 24 25 27 31 35 36 35 34 32 31 29
28 26 26 27 27 29 30 32 33 33 33 32 30 31 30 28 25 25 25 24 24 26 28 31 36 35 31 29 27 25 23 22 22 24 24 25 29 32 36 38 38 37 36

GFSGL_500_spd_012.txt.gz
Wind_Speed
57 60 62 64 66 69 74 77 82 88 91 93 95 97 99 100 95 82 68 60 57 52 47 50 48 48 51 51 55 55 54 54 55 50 48 44 46 49 48 47 47 45 41
61 63 65 67 69 73 76 81 86 88 91 95 97 98 98 92 77 62 54 45 35 36 40 46 47 48 53 51 52 51 47 47 49 47 44 43 45 46 50 51 50 49 46
63 64 65 68 72 75 79 84 86 90 93 98 100 97 89 74 56 47 36 30 34 40 44 46 47 52 48 48 44 42 43 46 49 50 44 43 40 43 46 48 50 52 51
62 64 67 72 75 78 83 85 88 91 97 99 94 86 71 54 41 33 34 35 38 44 49 49 53 50 49 43 41 44 47 49 51 51 49 47 45 42 42 46 48 50 53
62 66 71 74 79 81 83 87 90 95 96 92 85 70 55 43 36 35 37 39 41 46 52 51 53 50 46 41 43 45 45 47 46 45 44 44 43 43 42 44 47 47 52
64 69 74 78 80 82 86 88 95 97 92 85 71 56 44 37 34 36 39 40 44 48 49 53 49 46 40 41 42 46 48 48 44 39 36 38 39 43 44 43 45 46 46
69 73 76 79 81 85 89 95 97 90 83 72 58 46 38 34 37 38 39 41 44 49 47 52 46 40 37 38 42 46 47 45 40 34 30 34 36 36 36 37 40 43 43
73 75 79 81 84 87 93 94 90 83 72 61 47 38 34 34 38 37 38 40 45 47 48 48 44 35 35 37 43 45 45 41 37 30 29 26 26 24 24 28 33 35 36
75 80 82 83 85 92 92 88 83 72 62 50 39 34 34 35 36 35 37 40 44 44 47 43 40 33 34 37 43 42 41 37 33 26 22 19 18 20 21 22 25 30 30
79 80 81 84 91 92 87 83 72 63 53 41 35 33 33 33 34 36 38 40 39 42 45 39 36 31 31 35 41 40 39 34 29 22 16 13 11 19 21 19 21 25 29
79 80 83 91 93 87 81 72 63 54 44 36 34 34 34 35 35 36 37 39 38 42 42 34 32 28 28 34 38 37 37 32 29 20 12 8 5 9 15 16 17 21 26
78 81 90 92 88 80 71 62 53 46 37 34 34 34 33 33 33 35 36 37 39 41 39 32 29 25 25 29 34 33 34 31 27 21 14 9 5 3 6 10 14 18 24
80 89 90 88 80 70 62 53 46 39 34 33 33 32 30 31 33 34 35 38 40 40 38 31 27 22 23 26 30 29 29 27 24 21 15 11 9 7 7 10 14 18 21
87 89 88 81 69 62 54 46 40 36 33 32 30 29 30 31 32 33 36 37 39 38 37 30 26 21 20 22 25 25 25 24 22 18 15 11 8 7 8 10 13 16 19
86 85 79 68 62 56 46 39 36 32 29 29 30 30 30 30 31 34 36 36 36 36 35 29 24 23 19 19 19 21 20 20 19 17 14 11 9 7 8 9 11 14 16
82 76 67 62 59 50 40 35 32 32 32 30 30 28 28 30 33 34 34 35 35 34 33 27 22 23 19 17 16 18 17 16 14 14 14 11 8 5 4 6 8 10 11
74 67 62 60 54 44 37 33 31 32 32 29 27 26 28 31 32 32 34 34 33 32 30 25 21 21 20 17 16 14 15 14 11 10 9 10 10 9 7 5 7 9 9
67 63 59 57 48 40 35 32 31 30 29 26 25 27 29 30 31 32 32 32 32 31 28 24 20 20 20 18 16 15 12 12 11 8 7 5 6 7 8 9 9 9 10
65 59 56 51 42 37 33 30 29 27 24 22 25 28 29 30 30 32 30 31 30 29 27 23 20 19 19 19 17 16 16 14 11 10 9 7 3 0 2 5 6 6 6
60 55 52 45 38 34 30 26 25 24 23 24 28 30 29 29 30 30 29 29 29 28 27 25 22 20 20 20 19 17 16 18 16 13 12 11 10 9 6 6 6 7 7
55 51 47 40 34 31 28 25 24 25 26 27 28 29 29 29 29 29 27 27 28 28 27 28 26 25 23 22 20 20 18 17 20 20 18 15 15 14 13 13 12 12 12
50 46 41 35 31 29 28 25 25 26 28 29 30 29 29 28 28 28 27 24 25 27 28 28 29 29 27 25 23 22 21 21 20 21 25 23 20 18 18 18 19 19 18
44 41 37 33 30 28 27 25 27 28 29 29 28 28 28 28 28 28 27 24 24 24 25 27 29 31 30 28 26 24 22 21 21 22 23 27 29 27 23 21 22 22 23
41 37 34 31 29 28 26 26 26 27 28 29 31 31 30 30 29 29 28 26 24 24 23 24 27 29 32 33 29 27 24 22 21 21 23 25 27 33 33 30 27 25 25
39 35 33 31 31 31 32 32 33 33 33 32 33 34 33 32 31 30 29 28 26 25 24 24 25 28 30 34 35 31 27 24 21 21 22 23 25 27 31 37 37 34 32
39 36 34 33 33 34 35 36 37 37 37 37 36 35 35 33 31 30 30 29 28 26 25 25 25 26 30 31 35 35 30 25 20 19 19 20 21 23 26 29 33 37 38

GFSGL_500_spd_015.txt.gz
Wind_Speed
53 55 58 61 61 61 61 66 70 75 80 83 86 89 94 97 101 97 86 72 56 44 35 35 37 41 43 46 48 54 50 52 54 40 44 40 39 41 42 44 48 48 45
53 58 63 62 60 61 65 70 75 79 83 86 89 92 98 100 93 82 67 51 40 35 36 37 40 44 47 47 52 48 48 46 46 42 42 42 43 42 41 39 43 47 50
57 60 61 60 61 64 70 74 78 82 85 87 90 96 98 92 79 66 50 39 36 37 38 39 43 47 48 51 48 47 41 43 46 46 43 44 44 45 45 43 40 41 46
59 61 60 61 64 69 73 76 81 84 85 89 96 99 91 77 65 51 40 35 36 38 39 42 45 50 48 51 47 41 40 43 45 49 48 48 44 42 42 43 44 42 41
60 60 60 63 67 71 75 78 80 84 90 96 98 90 76 65 52 42 34 34 37 37 39 42 47 48 49 48 45 38 40 44 48 49 48 45 40 37 37 39 41 42 39
60 60 63 66 70 74 76 79 83 89 94 95 89 75 65 54 42 36 33 36 37 36 38 41 44 46 49 45 39 38 40 46 47 47 44 40 37 32 31 34 37 40 41
60 63 66 69 73 76 79 81 88 92 94 87 74 65 55 43 36 34 34 35 34 36 39 42 42 45 46 41 34 36 42 45 47 46 40 36 31 30 31 33 36 38 39
62 65 69 72 75 77 80 87 91 91 84 73 65 56 45 36 33 32 33 33 35 37 40 40 43 44 43 35 32 35 41 42 44 42 36 31 26 24 25 26 27 30 35
64 69 72 76 76 79 84 89 90 84 73 66 57 47 38 34 33 32 33 34 34 36 38 40 41 42 39 31 29 33 38 39 42 38 31 25 21 18 17 13 14 17 24
68 73 75 78 78 83 89 89 84 74 67 59 49 40 35 33 32 31 31 32 34 35 38 39 40 40 34 28 27 31 35 36 38 35 28 22 18 13 9 10 10 12 18
73 74 78 77 82 87 89 85 75 68 62 50 42 36 32 31 28 28 30 31 33 35 36 37 37 35 30 25 25 29 33 34 35 31 26 20 14 10 4 10 11 13 17
74 77 76 81 86 89 84 76 68 63 53 42 37 33 29 27 27 28 29 31 34 34 36 34 35 31 27 22 22 26 30 31 32 28 24 19 14 7 2 3 9 11 17
77 76 81 85 88 86 75 70 63 55 43 36 33 30 28 28 27 26 28 32 34 34 34 33 33 27 25 21 20 23 26 27 28 26 22 18 14 10 6 3 6 10 14
77 82 86 86 86 76 70 64 57 46 38 33 32 31 29 27 24 26 29 31 32 33 33 32 31 25 21 18 18 19 22 23 24 23 21 17 13 9 7 5 5 7 10
81 85 86 85 78 68 65 58 49 39 35 32 32 30 26 23 24 26 27 29 31 31 32 30 28 24 21 21 16 17 18 19 19 19 19 16 12 9 6 5 6 8 11
81 84 84 79 69 64 59 52 42 36 33 31 29 26 21 22 24 25 26 28 30 30 30 28 25 22 20 21 20 16 15 16 15 16 16 15 12 7 5 4 6 9 11
85 83 78 70 63 60 53 45 37 33 30 29 25 20 20 21 24 25 25 27 29 30 29 27 23 21 20 19 19 17 15 15 15 12 12 12 11 10 4 3 5 7 9
81 75 69 62 59 55 48 41 34 30 27 25 22 20 22 24 25 24 25 26 27 28 29 27 24 21 20 20 19 17 15 14 14 13 10 9 8 6 6 5 6 8 9
71 66 62 58 55 50 44 38 32 28 25 22 22 22 23 24 24 25 24 25 25 26 27 27 26 24 22 20 19 18 16 16 15 14 12 10 8 5 2 2 5 7 9
65 61 57 55 51 45 40 35 30 26 25 23 24 25 26 27 25 24 23 23 23 24 25 27 27 27 26 23 20 19 18 17 15 16 17 14 12 10 9 7 7 8 9
61 58 54 52 47 41 37 32 28 26 25 25 26 27 26 26 25 24 22 22 23 22 21 23 25 27 28 27 25 22 20 19 19 19 17 20 19 15 14 15 14 13 12
58 55 51 48 43 38 33 30 26 25 24 23 25 25 26 27 26 25 24 22 22 23 22 21 22 24 26 28 29 27 24 21 19 20 21 20 22 23 20 19 19 19 19
58 54 50 46 39 36 32 30 27 26 27 27 28 29 29 28 28 27 26 25 23 23 23 23 22 23 23 26 28 30 30 25 21 19 18 21 23 24 28 26 23 23 24
55 51 48 45 38 35 33 31 31 31 31 31 32 33 33 33 31 30 29 29 26 24 23 24 23 23 22 22 25 27 31 31 25 20 18 18 20 24 25 30 31 29 27
51 49 47 44 38 36 34 33 32 32 32 31 32 33 34 33 32 32 31 31 29 26 25 23 23 23 24 22 23 26 28 31 30 24 19 17 17 19 22 26 29 34 35
49 47 46 43 38 36 35 34 33 32 31 32 33 34 33 33 33 33 33 32 30 27 26 23 23 23 23 22 23 24 27 28 30 29 23 19 17 16 17 20 24 27 32

GFSGL_500_spd_018.txt.gz
Wind_Speed
49 51 55 58 58 59 62 63 62 64 68 72 76 80 82 85 91 97 99 92 77 67 58 48 42 40 40 42 44 47 46 49 51 38 43 40 40 41 42 43 43 43 45
53 55 58 59 59 61 63 62 65 69 73 76 79 81 84 92 96 96 85 72 64 54 46 42 40 41 41 44 46 48 47 51 49 40 37 39 40 42 45 45 43 43 44
55 59 61 60 60 63 63 65 69 73 76 78 81 83 91 96 90 81 70 62 52 44 40 38 40 40 40 43 47 47 49 47 44 39 38 43 46 48 47 47 45 44 46
58 61 62 61 62 63 64 68 72 75 78 81 84 90 97 88 77 69 62 52 43 39 36 38 39 38 41 44 45 46 47 44 39 40 42 47 48 48 48 45 42 41 44
59 61 62 62 62 64 67 71 75 78 82 84 88 97 89 78 69 63 54 44 38 36 36 38 38 39 42 44 46 46 44 39 38 41 45 46 47 46 45 41 38 37 42
62 62 62 62 62 67 69 75 78 81 87 87 94 90 80 71 63 54 44 39 36 35 36 37 38 40 41 42 43 44 40 35 37 43 44 46 45 43 41 36 33 33 36
62 62 60 61 65 68 72 77 80 85 89 91 91 83 73 65 56 45 39 36 35 36 37 36 38 39 41 42 41 40 35 34 38 43 44 44 41 38 34 29 29 30 32
61 60 61 65 67 68 73 76 82 88 90 95 88 76 68 57 48 40 36 35 33 33 34 36 37 39 39 40 41 34 31 33 38 41 43 40 37 31 27 25 24 26 31
61 62 64 68 70 71 77 81 86 90 94 92 80 70 59 49 41 37 35 32 31 32 33 34 37 38 38 38 35 30 28 31 35 38 39 36 31 26 22 18 16 16 21
63 64 68 72 74 75 76 83 87 93 92 80 72 63 50 42 37 34 31 30 30 30 33 35 34 37 36 36 30 26 25 28 33 35 36 33 28 21 17 10 6 7 11
64 66 70 73 73 73 82 85 94 95 85 73 65 53 43 37 33 32 31 30 29 29 31 32 35 35 34 33 28 25 23 26 30 31 33 30 26 20 13 6 7 7 8
68 71 71 71 72 79 85 89 95 88 75 66 57 45 37 34 34 32 31 28 28 29 29 31 33 31 30 28 26 22 21 24 28 28 30 26 24 18 12 6 3 6 7
73 74 67 70 76 82 85 86 83 75 66 59 48 39 35 34 32 29 27 27 28 28 29 30 30 28 27 25 23 22 20 21 24 25 27 25 22 18 13 7 3 4 5
79 72 69 75 79 83 86 81 73 66 59 51 42 36 34 32 28 25 25 26 26 27 28 29 27 26 24 21 20 20 18 19 21 22 23 24 20 17 13 9 5 1 7
74 73 73 76 79 81 82 74 65 59 52 44 37 33 32 29 23 23 24 26 26 26 27 28 26 24 23 21 20 20 19 17 17 19 19 21 20 16 12 9 6 4 3
71 73 75 77 79 77 71 64 58 53 45 38 33 30 29 24 22 23 26 25 25 25 25 26 25 24 22 22 21 20 20 17 16 16 17 16 18 17 11 7 4 3 3
73 72 73 74 70 65 62 58 52 46 40 35 30 27 24 23 23 25 24 24 25 24 24 24 25 24 23 21 20 20 19 19 17 16 15 14 14 14 13 8 3 1 4
77 75 71 66 61 59 56 51 48 41 37 33 29 26 24 22 24 25 26 26 25 24 24 24 24 24 24 23 21 21 19 18 17 15 15 13 12 11 11 9 4 3 6
73 68 63 57 57 54 51 48 45 38 34 31 28 26 26 25 25 26 26 25 24 23 23 23 23 24 25 25 24 23 21 19 18 16 15 15 12 11 10 7 4 1 3
66 60 58 56 54 52 49 46 42 35 32 29 26 25 25 25 24 24 25 25 24 23 23 23 23 22 23 24 26 26 25 22 20 18 18 16 16 14 12 11 9 6 5
63 58 56 52 53 50 47 44 39 34 32 28 25 24 23 24 24 24 24 24 24 23 23 23 23 23 22 23 24 25 26 26 23 20 18 19 18 18 18 15 14 13 11
58 56 54 52 52 49 46 43 38 34 31 30 29 28 28 28 28 28 27 28 26 24 24 24 23 24 24 22 22 23 24 25 27 23 19 17 19 21 21 22 19 17 18
59 57 55 53 52 48 45 43 38 34 33 32 31 31 32 31 31 30 31 30 28 27 26 24 24 23 24 24 23 22 23 25 26 27 22 17 17 18 23 24 26 24 22
58 55 53 51 49 46 44 42 37 34 33 33 32 31 30 30 30 31 31 31 31 30 29 27 26 25 24 24 24 22 21 22 24 24 27 20 16 16 18 23 25 29 29
56 53 51 48 46 44 42 40 37 34 33 34 34 32 31 30 29 29 29 30 30 29 30 30 28 26 24 23 23 22 21 21 22 23 23 26 20 16 14 17 21 26 29
55 52 49 46 44 42 41 39 36 34 33 33 33 33 32 30 29 27 27 27 27 28 29 29 28 27 25 23 23 22 22 22 22 22 22 22 24 20 17 15 15 18 23

GFSGL_500_spd_021.txt.gz
Wind_Speed
53 57 58 58 58 59 60 63 64 63 64 65 67 70 74 78 82 84 90 92 103 90 77 71 62 53 47 44 44 45 45 47 50 45 45 47 47 45 42 42 41 41 42
56 58 58 59 59 60 63 63 64 64 64 66 68 72 76 80 87 89 95 99 93 76 69 60 51 45 42 42 44 43 44 47 51 47 43 45 42 41 41 43 45 46 45
58 59 59 58 58 61 64 64 64 64 66 68 70 74 78 82 89 95 102 95 77 68 59 49 43 40 40 42 42 44 46 48 46 46 44 41 37 39 43 46 48 47 45
59 59 58 58 60 62 64 64 65 66 70 72 74 75 78 86 93 98 102 83 69 60 49 43 40 39 39 40 43 45 46 45 45 46 41 36 37 42 46 48 47 45 43
58 57 57 58 59 62 64 64 66 69 73 75 78 76 84 91 93 98 89 75 63 51 44 41 40 39 39 41 44 44 46 45 44 43 37 35 41 45 47 48 46 43 38
56 56 58 58 60 64 65 66 68 72 75 79 78 82 89 96 93 87 79 66 53 45 41 39 39 39 39 40 40 42 43 43 42 38 35 37 43 45 46 44 42 38 32
56 58 59 61 62 66 68 69 71 75 76 78 79 84 92 96 84 80 69 57 47 42 40 37 36 38 39 41 41 42 41 41 37 33 34 40 42 42 41 38 37 34 29
58 59 57 57 64 70 74 75 76 78 76 77 82 87 91 92 79 68 59 48 43 39 36 35 36 38 39 40 39 40 39 36 33 31 35 39 41 40 36 35 33 30 25
56 59 60 63 70 75 76 78 80 75 74 79 86 87 86 84 68 59 49 42 39 37 36 36 35 39 39 39 39 36 35 32 29 29 34 36 38 35 31 30 28 20 16
59 65 69 70 74 83 80 79 78 80 78 82 78 82 75 70 60 51 44 41 39 36 36 35 34 35 37 38 36 33 30 29 26 28 32 34 35 32 28 26 22 12 11
68 72 76 81 83 85 81 81 77 79 80 81 78 68 64 60 55 44 41 39 37 34 33 34 34 34 35 36 33 30 27 26 24 25 30 31 33 30 25 22 17 12 12
63 78 82 87 80 80 78 75 79 80 83 77 69 64 60 52 47 41 39 37 34 31 32 32 32 33 33 32 30 27 26 25 22 23 27 29 31 28 23 19 14 10 10
72 77 82 81 78 67 71 72 75 73 71 70 65 59 50 46 41 37 36 33 30 30 30 30 30 31 30 28 26 26 25 24 22 22 24 26 27 27 23 17 13 9 8
80 79 82 72 64 72 72 74 73 68 67 62 57 51 46 41 37 35 32 29 28 29 29 29 29 29 28 26 25 24 24 22 21 20 21 23 24 26 21 18 11 8 5
79 81 78 81 74 75 74 68 69 61 57 55 51 46 41 36 33 33 30 28 29 29 28 28 28 28 28 26 24 23 22 22 21 19 19 20 21 22 22 17 13 8 4
80 82 79 79 78 71 69 62 61 53 52 50 49 43 37 34 31 29 29 29 30 29 29 28 27 26 27 26 25 23 23 21 20 19 18 17 19 19 19 18 12 9 5
79 84 79 73 68 66 61 55 51 50 49 47 45 38 33 31 29 28 29 29 30 29 28 27 26 25 25 26 25 24 23 22 21 19 18 17 16 17 16 16 13 8 5
78 70 66 65 64 60 56 53 51 49 49 45 42 35 32 30 29 28 29 30 29 27 26 26 25 25 24 25 25 26 26 25 22 21 18 17 16 15 14 13 13 10 6
61 60 66 69 67 61 55 51 50 50 48 44 40 34 30 28 27 27 27 26 26 26 26 26 25 25 24 24 24 25 26 28 28 24 20 18 17 16 14 12 11 9 6
62 62 68 70 63 58 55 52 49 49 46 43 38 33 30 26 26 25 25 26 26 27 26 26 26 25 24 23 23 23 23 26 28 29 25 20 18 17 16 14 11 9 8
63 68 72 69 61 57 52 50 48 46 43 41 38 33 31 30 29 29 29 29 29 29 29 29 27 26 26 25 23 22 22 24 26 28 29 25 18 17 18 17 16 12 11
69 73 73 66 60 57 54 50 47 45 42 40 37 34 32 32 32 32 32 31 30 30 30 30 29 27 25 25 24 22 22 22 23 25 26 27 23 18 16 19 19 18 16
75 74 68 62 59 56 53 50 46 43 40 38 36 33 33 33 32 32 32 31 31 32 31 30 30 30 28 25 25 24 22 21 20 21 24 24 26 21 17 17 20 21 21
77 70 63 57 52 49 47 45 43 41 39 37 36 33 31 32 33 32 32 31 30 30 29 29 28 29 29 27 25 24 23 21 20 20 21 22 23 24 20 16 17 19 22
73 65 62 58 55 51 48 44 42 40 38 37 35 33 32 31 33 33 32 31 29 27 26 26 26 26 28 28 26 25 23 23 21 20 20 20 20 21 22 18 16 15 18
67 65 61 58 55 52 49 46 42 40 38 37 35 33 32 31 32 34 33 32 31 29 27 27 27 27 27 28 28 26 24 23 22 21 21 20 21 20 20 20 18 15 15

GFSGL_500_spd_024.txt.gz
Wind_Speed
51 54 56 58 59 60 60 59 57 58 61 63 64 64 66 67 70 72 76 80 85 87 94 95 88 73 63 56 50 45 44 44 43 41 41 44 48 48 48 47 45 42 39
54 56 57 59 60 60 59 57 57 60 62 62 65 67 69 71 74 78 81 82 85 90 92 90 77 64 55 49 45 43 42 43 46 46 44 44 45 45 46 45 41 38 40
55 56 58 59 58 59 59 58 61 61 60 65 69 71 73 74 80 84 87 84 89 91 89 79 65 57 48 44 43 43 42 44 45 47 44 42 44 45 42 39 39 40 42
55 56 57 56 56 58 60 61 62 62 65 69 74 76 77 78 81 83 86 84 91 88 80 67 57 50 44 41 41 40 42 44 45 45 43 42 43 40 36 37 40 43 44
54 54 53 56 58 59 60 60 61 64 68 74 81 85 89 87 82 85 86 84 82 73 70 57 49 46 41 38 39 40 43 45 45 45 42 42 38 33 34 40 43 44 42
51 52 57 58 61 59 59 64 67 72 73 77 80 86 92 87 81 83 81 77 69 63 57 48 43 42 38 37 38 38 40 42 43 42 40 37 32 32 38 42 44 41 36
52 56 58 57 59 61 67 71 77 77 75 80 86 84 82 75 77 77 77 73 59 56 49 44 40 40 38 38 39 41 41 43 42 39 34 32 29 33 37 40 40 37 34
56 57 56 57 61 64 69 77 82 85 85 83 77 74 72 77 76 73 68 61 53 49 45 41 39 39 37 37 38 39 40 40 38 35 33 29 31 36 38 38 35 32 32
56 56 61 61 65 71 79 82 92 92 84 75 71 72 78 79 64 60 58 54 49 44 41 39 36 36 37 37 38 38 38 37 35 33 30 28 30 34 37 34 31 28 26
57 61 62 65 77 80 84 86 91 81 68 70 71 74 75 73 60 56 55 50 46 41 39 36 33 34 36 36 37 37 34 32 30 31 28 27 29 32 35 32 28 25 21
58 63 66 68 71 78 87 79 76 75 71 75 81 68 59 57 53 52 50 48 40 37 35 32 32 34 34 34 35 35 32 29 28 28 26 25 27 30 33 30 25 21 18
64 66 65 73 76 84 85 81 76 73 75 79 69 57 53 53 51 48 47 42 36 34 30 30 32 34 33 33 34 34 32 29 28 26 26 24 25 27 30 28 24 20 15
68 70 76 78 81 83 85 85 80 80 72 61 61 54 51 51 48 43 41 37 33 30 27 30 33 32 32 32 32 31 30 29 28 27 25 23 22 24 26 26 22 18 14
65 60 72 71 72 78 82 81 71 65 64 60 55 51 49 48 47 42 38 32 29 27 28 30 31 31 30 29 30 30 28 27 26 26 23 22 20 21 22 24 20 17 13
63 66 68 70 74 78 76 63 60 62 61 55 50 48 47 47 45 42 37 32 26 25 27 28 30 30 28 28 27 28 27 27 25 24 23 21 19 18 19 21 20 15 12
63 66 69 72 74 67 60 57 61 63 59 54 51 48 46 44 41 38 35 32 28 27 27 28 28 27 26 26 26 26 27 27 25 24 22 20 19 17 16 17 18 15 12
64 68 70 64 60 60 60 63 65 66 60 53 49 47 45 42 39 35 33 30 28 27 28 26 26 27 26 26 25 25 26 27 27 27 25 21 18 17 14 14 14 15 11
66 64 59 59 61 62 64 65 68 69 60 51 48 44 43 41 37 33 30 28 27 26 25 25 25 25 25 25 25 25 25 26 26 28 29 26 20 17 15 12 12 11 11
59 59 60 61 66 66 66 68 68 64 58 52 47 43 41 39 36 32 29 26 26 25 26 27 27 26 26 26 26 25 24 24 25 26 29 29 25 18 15 12 11 10 8
62 62 64 68 65 66 69 69 66 59 54 49 45 42 41 38 35 30 30 28 28 29 30 29 29 28 26 26 26 25 24 23 23 23 25 28 28 23 16 13 11 10 8
65 67 66 66 70 72 72 68 62 56 49 45 42 40 39 38 36 31 29 30 30 30 30 29 28 28 28 26 26 25 24 23 22 21 22 24 26 26 20 15 12 11 11
66 68 71 74 77 75 70 64 59 54 49 45 41 38 38 36 34 31 30 30 29 30 30 30 30 29 28 27 26 25 24 23 21 20 19 20 22 24 25 19 14 12 12
69 73 78 80 77 72 66 62 59 55 50 46 42 38 36 35 33 31 29 29 31 31 31 31 29 27 27 26 26 26 23 21 20 19 19 19 19 20 23 24 19 13 12
76 80 79 74 70 68 66 57 54 52 49 45 42 39 36 35 33 31 30 29 31 32 33 31 28 26 25 25 24 26 24 21 20 19 18 17 17 17 19 21 23 18 14
81 77 71 65 61 58 58 56 52 48 45 43 40 38 37 35 34 31 30 31 31 33 32 31 28 26 25 24 24 24 25 24 22 20 19 18 16 16 17 18 19 20 18
72 65 59 55 53 52 51 50 47 44 42 40 40 39 37 36 35 33 31 31 32 32 31 31 29 29 28 28 27 25 24 24 25 22 19 19 19 18 17 18 17 17 17

GFSGL_500_spd_027.txt.gz
Wind_Speed
45 48 51 53 54 55 55 57 59 57 54 60 60 60 62 64 66 69 73 76 78 83 87 81 77 79 82 78 71 61 52 45 42 39 39 39 40 42 43 44 44 43 43
47 49 52 52 54 55 57 57 55 58 59 60 58 61 66 70 73 74 76 78 84 85 81 77 81 77 75 69 58 50 45 42 41 39 38 40 41 43 43 42 42 43 40
48 50 53 55 55 56 54 54 58 57 58 57 61 65 73 80 86 92 89 88 95 80 75 78 73 69 64 57 48 43 41 39 39 40 39 41 42 43 43 41 41 38 35
53 52 54 54 53 53 56 59 58 57 60 62 65 68 76 86 82 92 94 89 75 72 79 71 66 62 56 47 42 39 37 38 39 40 40 41 42 41 40 38 34 32 33
53 51 52 51 53 57 59 57 61 63 65 69 76 79 80 84 88 83 71 66 73 78 74 64 62 56 48 43 40 38 37 37 39 40 40 41 40 38 36 32 30 32 35
49 50 51 55 57 58 57 61 64 65 67 73 81 89 94 92 75 66 68 72 80 65 58 58 55 48 43 41 39 36 35 35 35 36 36 36 35 35 30 28 32 34 36
50 53 55 56 55 58 61 64 68 72 71 77 83 86 89 75 69 73 79 76 62 56 54 53 47 41 40 38 36 35 35 36 37 37 34 33 30 31 27 27 32 35 35
54 54 54 55 58 62 65 69 70 79 85 82 80 81 75 81 80 79 70 61 54 53 52 48 42 38 38 34 34 34 34 35 36 35 33 31 30 29 27 30 32 35 34
53 55 57 60 64 63 74 75 77 80 86 84 86 82 80 84 77 62 56 55 53 51 48 43 37 34 32 32 33 33 34 35 34 33 32 31 29 27 26 29 32 35 30
55 58 62 67 67 67 71 72 73 80 79 75 76 80 74 66 60 57 55 53 52 48 43 37 33 30 29 31 32 32 32 32 31 30 31 31 29 27 26 28 30 32 27
59 63 59 66 72 71 72 70 72 69 74 77 80 64 59 58 57 55 52 51 49 44 38 34 28 27 29 30 31 31 30 31 30 28 27 26 26 25 25 27 29 29 24
61 61 62 61 66 68 69 70 71 72 76 70 61 59 58 58 54 51 50 49 46 40 34 30 27 26 28 29 31 30 31 31 30 28 26 25 24 24 23 24 27 28 23
66 66 65 66 64 67 70 72 73 70 60 57 56 58 59 59 54 48 47 46 43 36 33 28 26 26 28 29 29 29 29 30 31 29 27 24 22 23 21 21 23 25 21
64 61 62 64 67 69 71 70 64 56 56 60 61 61 62 59 52 48 44 42 41 35 30 28 27 26 28 27 27 27 27 27 27 28 27 25 22 21 19 19 20 22 19
60 63 66 69 70 70 68 60 59 58 63 62 61 63 62 58 52 47 43 40 38 33 27 27 27 26 27 26 26 25 26 26 26 27 27 27 24 20 18 16 17 19 18
65 68 68 70 69 64 60 60 60 63 65 62 63 65 62 57 50 46 41 39 36 31 26 25 25 24 24 25 24 24 25 25 25 26 27 28 27 22 18 15 15 16 17
68 68 70 68 65 62 62 61 61 62 62 66 68 65 60 54 48 44 40 37 35 31 26 24 23 22 23 24 23 24 24 24 24 24 25 26 28 26 18 14 13 13 14
69 69 68 64 62 62 64 65 64 63 65 66 68 65 57 51 46 42 39 36 33 30 26 23 23 23 25 25 25 24 24 23 24 23 23 24 26 28 22 14 12 10 11
72 71 67 64 63 64 63 65 67 69 72 71 66 59 53 48 44 40 38 35 32 29 27 25 25 25 25 25 25 24 23 23 23 22 21 21 23 26 25 16 11 10 8
70 68 65 65 64 65 67 69 73 76 75 70 63 56 51 46 42 38 35 34 32 30 28 27 26 26 24 25 26 26 23 23 22 21 20 19 19 22 23 20 13 9 9
68 65 64 65 67 69 73 77 78 76 71 66 60 55 50 45 41 37 34 32 31 30 29 27 27 26 24 25 26 26 24 22 21 20 19 18 16 17 19 21 16 10 9
65 64 66 68 70 74 78 77 72 67 63 59 49 47 45 41 38 36 34 31 31 30 30 29 28 26 25 27 27 25 24 23 22 20 17 16 15 14 16 18 20 15 8
66 66 69 73 77 78 73 65 59 56 57 54 49 45 41 38 36 35 33 32 31 30 31 30 29 26 25 26 25 24 22 21 22 21 17 16 15 13 12 14 17 19 14
68 72 76 77 74 66 61 56 52 51 52 49 46 42 39 36 35 35 34 32 32 31 32 32 30 27 26 27 24 22 21 21 21 21 19 16 16 14 13 12 13 15 17
73 76 74 68 63 57 54 52 50 49 48 47 45 40 37 36 35 35 34 34 33 33 32 32 31 27 29 28 26 24 22 21 20 21 20 18 16 16 15 15 13 12 13
74 69 66 60 55 53 52 52 50 49 48 47 44 41 38 37 35 34 35 35 34 34 33 33 31 28 30 29 27 26 25 24 22 22 22 20 18 17 17 16 15 12 12

GFSGL_500_spd_030.txt.gz
Wind_Speed
42 42 45 48 49 52 55 56 55 55 55 55 59 61 60 63 66 67 71 75 80 82 84 88 88 75 67 72 79 73 70 69 70 62 54 45 40 39 39 40 40 42 43
41 42 45 49 51 54 57 53 52 51 55 59 60 60 62 65 69 73 74 77 80 87 87 85 71 68 77 79 71 69 69 69 64 54 46 40 39 39 40 39 41 43 44
45 46 46 52 54 56 52 50 52 56 58 59 60 63 66 72 74 79 83 81 80 86 82 76 73 80 82 68 64 66 66 59 54 49 42 40 39 40 39 39 40 40 40
41 46 51 54 54 51 52 54 56 58 59 63 67 69 73 77 82 85 89 93 84 70 71 76 80 73 64 64 64 62 55 51 48 44 41 40 39 39 39 37 36 38 36
44 51 52 53 51 52 54 55 57 60 64 67 71 76 80 80 81 86 85 76 73 75 79 75 68 62 63 62 58 53 49 46 41 39 39 38 38 39 38 34 35 32 30
49 51 50 51 53 53 54 59 60 64 69 71 74 77 80 80 85 81 77 73 79 73 66 62 60 60 59 56 51 46 44 39 37 36 35 36 35 35 33 32 32 28 28
49 49 50 52 52 55 58 62 67 69 67 70 74 75 77 80 80 76 76 73 69 64 58 58 58 56 54 49 43 40 37 36 35 34 34 34 30 30 29 28 29 27 30
47 49 51 53 57 59 62 66 66 65 74 73 79 85 80 75 78 75 67 62 56 56 56 55 54 53 49 42 38 34 35 35 35 35 35 33 29 28 27 27 26 26 29
49 50 51 56 63 67 68 71 70 71 77 80 83 84 77 78 70 60 57 56 58 58 56 52 51 49 43 37 32 32 33 34 34 34 34 32 29 27 26 25 25 24 27
47 52 54 52 64 60 70 71 70 70 75 76 79 79 73 59 58 59 58 59 61 58 53 50 48 43 37 32 30 31 31 32 33 33 33 32 29 27 26 24 23 23 26
54 56 59 63 65 65 60 67 66 70 72 73 74 66 60 57 61 59 59 61 60 55 51 48 45 39 34 31 30 30 30 31 31 31 30 29 27 26 25 25 22 22 25
55 60 62 64 63 59 60 63 67 70 73 73 68 62 60 60 61 58 60 61 59 52 48 46 42 36 31 30 29 30 30 29 30 30 29 29 28 26 24 23 22 22 23
61 63 64 61 59 61 65 69 72 73 73 69 63 61 61 63 59 59 62 63 59 49 46 43 39 36 30 29 29 29 28 28 29 29 28 28 29 27 23 22 20 21 22
65 64 60 60 63 68 72 74 73 73 69 65 63 63 64 61 61 64 65 63 56 46 43 41 37 35 30 29 28 27 27 27 28 28 27 27 27 29 25 20 20 19 20
65 63 62 65 68 72 74 74 74 72 68 66 65 65 63 61 64 67 68 61 52 44 39 38 36 32 29 28 26 24 25 26 26 27 27 27 26 27 27 21 18 18 18
64 64 66 70 73 75 75 74 72 69 67 66 67 65 63 65 68 69 65 56 47 42 37 37 34 30 28 26 24 23 25 26 26 25 26 25 25 26 28 25 18 17 16
64 67 70 74 76 77 76 73 69 65 65 65 67 69 72 73 73 69 60 51 43 40 35 35 32 28 26 24 24 24 25 26 26 24 24 24 24 24 25 26 20 16 14
67 71 73 76 77 77 75 72 68 65 62 62 65 71 75 76 71 62 53 46 40 37 34 33 31 28 26 26 26 25 25 25 24 23 23 22 21 21 23 26 22 16 14
73 76 78 80 80 79 74 69 66 65 66 70 72 73 73 68 60 52 47 42 38 35 34 33 32 29 28 26 25 25 23 24 24 24 22 21 19 19 19 22 24 17 13
77 79 80 79 76 70 66 66 67 71 74 75 73 67 62 58 48 45 44 40 37 34 33 32 31 30 29 26 25 24 23 25 25 24 23 21 19 17 16 18 22 19 13
81 81 79 75 69 67 69 71 73 75 74 68 62 57 55 51 39 39 40 37 36 33 32 31 30 29 28 29 25 23 23 25 25 24 22 20 18 16 14 15 16 20 15
79 76 72 70 69 69 72 75 73 67 62 58 53 52 51 48 44 40 37 35 34 32 31 31 30 31 31 29 27 24 23 25 24 23 21 19 18 15 14 12 12 15 17
70 68 67 68 72 75 73 69 64 59 53 51 51 49 48 47 45 40 37 33 32 30 30 32 31 32 32 30 29 26 23 24 22 20 19 18 18 16 14 13 11 11 14
67 70 71 74 75 71 66 63 58 53 49 49 48 48 49 48 46 41 37 34 31 31 31 33 34 34 32 31 29 27 25 24 22 19 19 18 16 17 16 14 13 11 11
73 75 77 74 68 66 63 59 55 51 51 50 49 49 49 48 47 43 38 34 33 32 33 34 35 36 33 33 30 28 27 25 24 22 20 19 18 17 17 17 15 13 12
77 77 71 68 68 65 60 56 54 54 53 53 53 53 52 49 47 46 41 36 34 33 34 36 36 37 35 32 32 31 27 27 25 23 21 21 19 18 19 18 18 16 14

GFSGL_500_spd_033.txt.gz
Wind_Speed
41 41 40 45 46 52 53 52 54 55 54 54 55 58 60 61 63 67 71 73 77 81 87 87 86 85 80 74 72 81 85 78 74 71 70 70 65 61 59 55 51 47 45
40 44 42 46 49 53 53 55 59 56 54 55 58 59 61 64 68 73 75 76 79 83 84 88 85 78 73 77 87 79 74 72 70 68 63 59 56 55 53 49 44 43 44
37 39 43 44 48 53 56 57 53 52 54 56 56 60 64 68 72 75 78 81 89 93 93 83 76 78 88 82 71 69 69 67 64 61 56 53 51 49 46 43 41 40 41
40 41 44 45 52 52 52 51 51 53 53 56 58 62 67 72 75 76 80 88 92 94 86 84 88 81 71 65 65 65 61 60 57 53 50 48 45 44 43 41 39 39 38
45 49 46 50 52 52 52 52 53 53 56 60 65 65 73 76 77 81 89 88 93 88 87 80 70 63 62 62 62 59 58 55 50 46 43 42 42 41 42 41 40 36 35
48 51 52 50 50 51 53 54 54 56 62 67 66 75 77 74 82 85 86 88 88 83 73 67 61 61 64 62 59 56 55 50 44 40 40 39 39 39 40 39 37 35 33
51 53 52 52 54 55 55 55 59 61 66 71 75 75 78 80 83 86 85 83 76 69 64 60 60 63 63 60 56 54 50 44 40 39 37 37 36 37 35 34 34 34 33
52 52 51 54 54 52 55 58 63 61 69 69 71 72 75 81 82 82 79 73 65 64 62 59 62 64 62 56 52 50 45 40 38 38 37 37 37 37 35 32 31 30 31
53 51 51 51 51 50 57 54 73 70 74 72 68 68 73 77 78 77 69 65 62 64 59 60 63 65 60 53 50 46 40 37 36 36 36 36 37 35 32 29 29 28 27
52 51 50 51 50 50 63 66 67 68 71 67 67 70 73 75 75 69 65 65 64 62 60 62 65 63 56 49 46 42 37 35 35 35 34 35 36 34 33 29 26 25 24
53 52 52 53 56 61 65 66 66 65 66 67 69 74 76 73 68 66 66 64 64 60 61 64 66 61 52 46 44 40 36 34 35 33 32 33 33 33 33 31 27 24 23
52 52 53 57 61 65 66 65 64 65 67 71 75 76 74 73 70 67 65 63 62 61 62 66 64 56 49 44 41 38 34 33 33 32 32 31 31 32 32 33 30 25 21
52 55 59 63 66 66 64 64 66 70 74 76 77 75 74 71 67 66 65 62 61 62 66 66 61 51 46 43 38 35 33 32 32 30 29 29 30 31 30 31 33 27 23
57 60 64 66 67 66 66 68 71 75 76 77 77 76 73 67 65 65 63 62 63 66 68 65 54 45 43 40 36 34 32 31 30 28 28 29 30 30 29 29 31 29 24
62 65 67 68 67 67 69 73 75 77 79 80 78 75 70 63 61 63 64 66 69 70 67 58 46 41 41 37 35 32 31 29 29 28 28 29 29 28 28 28 30 28 22
67 69 69 68 68 70 73 75 78 80 80 79 74 69 65 65 64 65 68 70 70 66 58 48 40 39 38 35 32 30 30 28 28 28 28 28 28 27 26 26 28 27 22
69 68 67 68 71 74 76 79 81 79 74 68 65 66 68 70 74 72 71 68 62 56 50 42 38 37 36 33 30 29 29 29 29 27 26 26 26 26 24 23 25 27 23
67 67 68 71 74 77 80 83 83 79 74 66 64 67 70 74 73 71 65 60 52 47 43 38 36 35 34 32 28 28 29 29 28 26 25 25 25 24 23 21 21 25 24
68 70 73 76 79 82 83 79 74 71 69 67 68 71 71 68 63 59 55 51 45 41 39 35 35 34 33 32 29 28 29 28 26 24 24 23 23 22 22 20 19 21 24
71 74 78 80 80 79 75 72 71 72 73 73 72 68 62 59 53 48 46 45 38 37 37 34 32 33 32 31 28 29 29 27 26 23 23 23 22 21 21 18 16 17 22
76 78 79 79 78 75 73 74 75 75 75 70 64 61 58 53 46 44 43 43 39 35 36 34 31 30 31 31 29 28 29 27 26 23 23 23 21 19 19 17 15 14 17
78 78 78 75 72 72 73 76 76 72 66 63 62 58 53 48 46 44 43 42 41 37 35 33 30 30 30 29 29 29 29 28 27 24 22 22 20 18 18 17 15 12 13
77 75 71 70 72 75 77 73 70 68 66 62 57 53 49 47 47 47 46 44 42 40 36 34 31 30 29 28 29 31 30 28 29 25 22 21 18 17 17 16 16 14 12
70 69 71 74 78 77 75 72 68 64 60 56 53 51 49 49 48 48 49 48 46 43 36 36 33 31 30 31 34 32 30 30 30 27 24 21 19 17 17 16 15 15 13
69 73 77 77 78 78 71 65 61 58 56 54 53 53 52 51 50 49 50 49 49 46 38 36 36 34 33 35 37 35 31 32 31 30 27 23 21 18 16 16 17 16 15
74 77 76 80 76 70 62 57 55 55 55 55 53 52 52 52 53 52 51 50 49 46 41 37 37 36 36 37 39 37 34 33 32 31 31 27 23 19 18 16 17 18 17

GFSGL_500_spd_036.txt.gz
Wind_Speed
32 35 37 40 40 37 38 40 52 56 57 61 62 58 55 54 56 60 65 70 73 76 79 83 83 87 87 88 88 85 83 74 68 66 69 66 62 61 59 56 54 53 52
37 39 41 41 36 39 49 53 57 57 60 60 59 56 55 56 58 64 70 74 77 80 78 82 86 86 87 87 84 80 69 66 67 66 63 59 58 56 53 51 49 48 46
39 40 38 39 46 52 52 56 58 57 59 57 56 58 57 60 64 72 75 77 80 77 86 84 87 87 84 83 79 67 63 65 68 65 58 56 52 49 47 46 46 45 44
39 38 43 46 48 51 54 57 58 57 57 60 59 57 59 60 68 74 80 78 81 82 82 84 85 84 82 76 68 62 63 68 66 59 55 52 47 45 45 45 43 44 42
38 41 42 45 49 53 56 57 55 56 58 58 57 61 61 62 70 78 80 81 76 77 82 83 83 78 73 71 63 63 65 68 61 54 52 47 42 42 44 44 42 40 40
43 43 45 49 52 54 56 53 58 59 58 58 56 60 67 76 79 80 82 79 76 79 81 82 77 71 69 66 62 63 66 65 56 50 48 43 40 41 41 40 39 39 37
47 47 49 51 53 54 54 55 59 57 56 59 65 66 74 78 77 78 80 77 78 79 80 75 70 69 67 63 62 63 65 60 51 47 43 40 39 40 39 38 39 38 37
48 49 50 52 55 56 57 57 56 56 53 56 71 73 75 75 75 75 77 78 78 80 76 71 68 66 65 61 61 63 62 55 48 45 41 38 38 39 37 37 37 36 36
49 50 52 54 56 57 56 55 55 58 61 65 70 73 73 73 74 77 77 78 80 76 72 67 64 64 62 61 62 63 59 51 45 43 39 37 37 37 37 36 35 34 33
50 52 54 56 57 56 55 55 59 63 67 70 71 72 71 72 74 77 79 81 78 73 67 64 63 62 61 62 64 62 55 47 43 40 37 36 36 36 36 36 34 33 33
52 54 56 56 56 55 56 60 63 67 69 70 69 70 71 73 76 79 79 78 73 68 64 62 62 62 62 64 64 57 51 43 41 38 35 34 34 34 34 35 36 35 33
54 55 55 55 55 57 60 64 67 69 69 69 69 70 74 78 79 78 78 75 69 65 61 60 62 63 66 65 60 52 47 40 38 36 34 33 32 32 33 34 35 35 34
55 56 55 55 57 60 64 68 70 70 70 69 71 74 76 78 79 78 75 68 64 62 61 63 65 67 66 62 52 47 44 37 36 33 32 32 31 31 32 32 34 33 34
57 57 57 58 62 66 69 70 70 70 72 74 76 79 80 81 78 74 69 65 65 66 66 66 67 65 59 54 46 42 41 36 34 31 30 30 30 31 31 31 31 30 30
57 57 59 63 67 70 71 71 72 73 77 79 81 84 84 82 72 67 67 65 67 70 72 65 61 56 51 46 42 39 38 34 32 30 28 28 29 30 30 29 29 28 28
57 60 64 68 72 72 72 72 74 77 79 81 82 82 79 74 69 69 69 70 72 70 64 56 54 50 46 42 39 38 35 33 30 28 26 27 28 28 27 27 27 26 26
61 65 70 73 73 73 73 74 76 78 81 80 79 75 73 75 75 73 71 68 63 60 56 52 46 46 42 37 36 35 32 32 29 24 26 27 27 26 26 25 25 24 24
66 71 73 74 74 76 77 80 83 85 85 80 75 74 73 74 73 70 64 58 55 53 47 43 41 41 38 35 35 33 30 30 27 25 25 26 25 24 24 23 22 20 21
72 74 74 74 76 78 81 83 84 83 80 79 76 75 75 69 65 61 59 56 51 46 42 40 37 37 37 33 32 31 29 27 27 25 25 24 23 22 23 21 20 18 18
74 74 75 76 79 81 83 82 80 79 79 80 79 76 70 65 60 56 53 49 45 41 38 37 35 33 33 31 30 28 27 26 27 27 26 23 22 21 22 20 17 16 15
73 75 78 80 81 81 79 77 78 80 79 77 75 71 64 57 53 49 45 43 42 40 39 37 35 33 31 30 28 26 26 25 28 28 26 24 22 20 21 19 16 14 14
75 77 80 80 79 76 75 78 79 77 77 72 69 60 54 50 48 47 45 43 43 43 41 40 37 35 30 29 27 26 26 25 28 27 26 24 21 19 20 18 15 13 13
77 78 78 75 72 74 77 77 76 75 71 68 61 52 49 49 50 49 47 46 45 44 44 42 40 38 32 30 27 26 26 25 27 28 27 25 23 19 19 17 15 13 12
76 75 71 70 72 76 74 74 73 70 67 62 54 51 50 52 50 46 45 45 46 46 46 46 43 42 34 30 27 27 27 28 27 26 26 26 24 21 18 17 16 15 13
71 68 69 72 74 72 71 73 70 66 65 58 53 51 53 51 48 47 44 42 42 43 45 47 47 43 41 32 30 31 30 31 29 27 29 28 26 23 20 18 16 16 14
66 68 71 73 70 71 72 71 67 65 62 56 53 53 51 48 47 43 42 42 41 40 39 42 45 45 45 35 35 34 37 37 35 33 31 29 28 25 22 20 17 17 16

GFSGL_500_spd_039.txt.gz
Wind_Speed
32 30 32 33 35 36 37 36 39 42 42 54 57 60 57 56 56 61 60 62 65 66 69 76 82 86 86 86 81 81 82 83 82 75 67 65 68 72 66 57 55 51 47
32 34 34 37 38 38 36 40 41 48 54 58 58 57 56 58 62 62 63 66 68 72 75 77 85 85 86 81 80 82 83 80 76 71 63 63 68 66 58 54 50 46 45
33 34 35 37 40 41 40 45 49 51 53 55 56 57 56 59 61 62 65 64 69 73 79 85 83 83 81 81 80 82 79 74 71 65 60 63 67 60 52 49 45 44 44
34 35 37 37 39 41 41 47 50 53 55 57 57 57 61 61 58 68 68 70 75 81 84 83 82 79 80 80 81 79 73 70 68 61 60 63 63 54 49 45 42 45 44
34 36 38 38 38 40 45 49 51 54 57 57 58 61 63 58 63 74 74 71 83 86 85 81 79 80 80 80 78 74 69 66 62 59 60 62 58 50 46 42 41 43 44
34 37 40 43 45 48 50 52 54 55 56 57 56 57 56 61 62 70 70 78 83 84 80 79 80 81 81 79 76 70 66 64 59 59 61 59 53 47 42 39 40 41 42
37 40 43 46 48 49 51 53 55 56 58 59 51 56 65 66 69 73 76 78 79 77 78 80 81 81 80 76 71 65 63 60 60 59 60 56 48 45 40 37 38 39 41
40 43 45 47 49 51 52 54 58 56 57 57 57 60 65 69 73 76 77 76 76 77 79 80 81 81 76 70 66 61 60 59 60 61 58 52 45 42 37 35 36 36 39
42 44 47 48 50 52 53 55 55 58 58 58 61 64 68 72 75 76 75 75 76 78 80 81 81 75 69 66 60 58 59 62 62 60 55 48 43 40 36 34 34 34 35
45 46 48 51 52 54 56 57 57 57 58 60 64 68 72 74 75 75 76 77 78 81 81 79 74 67 62 60 60 61 61 64 63 58 50 44 40 37 34 33 33 33 35
47 49 50 52 54 56 57 57 57 57 60 63 68 72 73 75 75 76 78 80 83 84 81 71 67 63 62 62 64 64 64 63 58 52 45 40 38 35 32 32 33 33 35
50 52 54 56 57 58 58 56 56 58 62 66 69 72 74 76 77 79 82 85 85 84 75 67 64 65 64 64 66 65 62 57 51 47 39 38 35 33 31 30 32 34 36
54 56 57 58 59 59 56 57 60 63 67 70 73 74 76 78 80 83 84 84 81 78 71 68 68 67 67 66 62 58 53 49 45 42 36 36 33 30 29 28 31 33 33
57 59 60 61 62 60 59 60 64 69 72 75 76 79 80 81 84 85 84 80 77 75 73 71 70 69 65 60 54 52 48 43 41 40 34 33 31 28 27 27 30 31 29
60 61 63 64 62 60 62 66 70 75 78 79 81 83 85 85 85 85 83 80 76 74 74 72 66 61 56 52 51 47 42 38 38 37 30 30 28 26 25 27 28 28 26
61 64 65 63 62 64 67 72 75 77 78 79 81 84 86 86 83 82 81 80 77 73 68 62 57 54 52 49 45 41 38 35 34 32 29 27 25 23 24 26 26 27 24
65 65 64 64 66 70 74 77 80 78 77 79 82 85 85 84 84 83 80 76 73 70 64 58 53 50 46 44 39 39 35 33 32 30 27 26 24 21 23 25 24 24 23
65 65 65 67 71 75 80 82 83 82 83 84 85 84 83 84 82 80 77 71 65 57 50 48 46 43 41 38 37 36 34 33 30 26 25 24 22 20 22 22 22 22 21
66 68 71 74 77 81 84 83 83 84 84 84 82 81 81 79 76 73 69 63 53 47 44 42 40 37 36 35 33 33 34 31 28 24 25 24 22 20 21 21 20 20 19
70 73 76 79 82 82 82 81 81 82 80 79 81 80 75 71 67 63 58 50 47 45 42 40 37 36 36 34 31 31 32 28 25 24 24 24 22 20 21 20 19 19 17
74 77 80 82 82 81 79 79 79 76 77 78 77 75 73 68 63 59 52 46 45 45 43 41 38 37 35 34 32 29 29 26 23 24 25 25 22 20 21 20 18 17 16
77 79 80 78 77 77 78 75 73 75 76 73 71 71 70 65 62 56 50 47 47 45 42 40 38 37 37 35 33 29 29 25 23 25 26 26 24 22 21 19 17 16 15
79 77 75 75 76 75 72 71 74 74 71 69 70 69 66 62 59 55 50 48 45 42 41 39 39 40 39 37 35 31 28 26 24 26 28 27 26 24 22 20 17 15 14
74 73 74 75 73 68 69 72 73 69 67 68 71 69 63 60 57 53 50 47 45 42 38 36 36 36 39 41 39 36 26 25 25 27 28 28 26 26 23 21 17 15 13
73 74 74 71 67 69 71 71 69 66 66 69 71 66 62 60 56 52 48 46 43 40 38 39 38 36 36 41 42 37 32 26 27 29 28 27 23 23 24 22 19 16 15
73 73 70 67 69 70 70 69 67 65 68 70 70 65 61 58 54 50 47 45 41 40 40 38 36 34 33 35 41 41 37 29 31 32 31 29 28 26 24 23 21 18 16

GFSGL_500_spd_042.txt.gz
Wind_Speed
30 31 32 33 32 33 31 34 35 34 33 41 47 50 55 58 59 59 57 58 57 61 67 68 72 74 76 79 86 89 87 83 83 82 83 82 82 75 70 63 62 65 64
31 34 35 34 36 36 36 36 36 37 39 40 49 54 55 55 56 56 58 62 59 61 65 72 74 75 81 85 89 89 84 82 83 83 80 77 73 70 62 60 63 65 60
33 34 35 37 38 39 39 39 42 43 46 48 50 51 55 56 56 57 58 54 54 63 67 73 78 84 85 87 87 83 82 83 83 82 77 70 67 63 59 60 62 62 55
33 35 37 37 38 39 40 40 42 44 47 49 51 52 54 53 52 62 53 58 65 64 72 77 81 84 85 84 81 81 83 83 81 77 71 65 61 59 58 60 61 58 51
34 35 36 37 38 38 40 42 44 46 49 52 55 57 58 54 59 65 62 64 68 73 77 80 83 82 81 80 80 82 83 81 76 70 64 59 58 58 60 61 59 53 48
33 34 35 36 37 40 42 45 47 50 52 55 56 58 60 60 61 62 63 65 69 74 78 81 81 80 80 81 81 81 80 75 69 64 59 58 59 60 61 60 56 48 44
33 34 36 38 40 43 45 47 50 53 55 57 59 60 60 62 62 63 65 68 71 74 77 79 80 81 81 82 82 81 75 68 62 60 59 60 61 63 62 57 50 44 41
33 35 37 40 43 45 48 50 52 54 57 58 59 60 61 61 61 63 65 67 69 72 75 78 80 81 83 83 81 77 68 62 59 61 62 63 64 63 59 52 45 41 38
34 37 40 43 46 48 50 53 55 57 58 59 61 60 59 60 62 65 68 70 73 75 78 80 82 83 83 82 77 69 63 62 63 63 63 64 63 57 52 45 40 38 35
38 41 44 46 49 51 53 56 57 58 60 61 62 61 60 62 66 70 74 77 78 79 80 81 83 82 80 76 70 67 66 66 67 67 62 61 55 51 45 40 37 36 34
42 45 47 49 51 54 56 57 58 59 61 62 62 62 64 68 72 75 79 83 84 85 85 84 83 81 75 71 70 69 68 68 67 64 62 55 50 46 40 35 34 34 32
47 49 51 52 54 56 58 59 60 62 63 63 63 65 68 72 76 81 85 86 88 89 87 84 82 79 75 73 72 70 68 63 60 56 54 49 45 40 36 33 32 31 30
51 52 53 55 57 58 59 61 63 64 64 64 66 69 73 77 82 85 87 88 85 85 85 84 81 78 74 70 67 65 60 55 51 49 49 44 39 37 34 33 30 29 28
53 55 57 58 59 59 61 64 65 65 65 66 69 73 77 82 87 90 92 91 88 87 87 83 78 74 72 69 64 58 56 53 49 47 43 39 35 33 30 31 27 27 27
56 58 59 59 60 63 65 66 67 67 69 72 75 79 83 86 90 92 93 92 91 88 84 76 72 69 65 59 52 51 49 46 46 42 38 34 29 27 28 27 25 25 26
58 58 58 60 64 67 68 69 70 73 74 77 81 83 87 90 90 90 89 88 87 83 77 71 66 62 53 46 43 44 41 40 40 38 34 30 25 25 27 25 23 24 25
57 58 60 64 67 70 72 74 75 75 78 81 83 86 85 86 85 86 86 85 80 76 72 66 62 52 45 42 40 39 37 35 36 36 31 28 24 24 25 23 22 23 23
58 59 62 68 71 73 74 75 77 80 82 84 85 84 84 84 84 85 83 79 73 71 68 61 53 45 41 39 38 36 35 33 34 33 30 27 25 24 23 22 21 21 22
60 63 67 72 76 76 77 78 81 83 84 84 83 84 82 81 81 79 76 74 72 67 61 56 49 44 42 40 37 35 33 32 32 31 29 25 24 24 23 22 21 20 20
66 69 72 77 79 78 79 81 84 83 82 82 82 79 77 78 76 71 69 69 67 62 57 52 47 44 42 38 37 35 34 32 31 31 28 24 24 24 24 23 21 19 19
71 75 76 77 78 80 82 82 81 80 80 80 75 75 78 75 70 67 66 66 64 59 54 49 45 42 39 37 35 34 34 33 31 31 27 23 24 25 24 24 22 20 19
76 76 76 77 79 80 80 79 79 79 77 72 73 76 75 71 66 65 67 68 64 57 53 47 43 40 38 35 35 35 35 34 32 30 26 24 25 26 25 24 22 20 18
76 76 76 77 78 78 78 78 78 74 71 73 75 74 71 69 65 66 69 69 63 57 51 45 41 37 34 32 32 33 36 35 32 29 26 26 27 27 25 25 22 20 18
78 77 77 78 77 77 77 76 71 71 73 75 74 72 71 69 65 68 70 67 60 55 49 43 38 35 33 33 34 34 35 36 34 28 25 27 29 28 26 25 24 22 19
81 79 79 78 77 76 73 71 71 74 75 74 73 72 72 67 66 70 69 62 56 52 45 41 36 35 34 34 33 33 34 38 38 30 27 30 30 29 26 25 24 24 20
80 80 79 78 75 72 71 73 75 75 75 74 73 73 70 67 68 68 62 56 53 47 43 39 36 35 35 33 32 31 33 40 42 35 29 32 30 29 24 23 24 24 21

GFSGL_500_spd_045.txt.gz
Wind_Speed
21 27 29 31 32 33 35 34 36 35 38 39 40 42 44 44 49 53 59 60 61 65 64 62 64 63 66 69 72 77 81 84 85 82 84 83 84 84 84 82 75 69 62
29 29 33 35 35 35 36 38 39 40 40 41 43 44 45 49 51 58 60 59 57 60 66 67 68 71 74 75 79 81 82 82 82 82 82 82 82 81 79 75 67 58 57
34 36 35 35 36 38 39 39 39 41 42 42 43 46 49 51 54 56 59 57 57 61 70 74 75 70 71 73 75 75 77 79 81 83 83 83 82 77 72 66 59 55 56
39 37 36 35 37 39 38 39 39 41 43 44 47 49 52 55 57 58 61 64 64 64 66 69 68 69 71 72 74 76 79 82 85 85 84 82 76 69 64 60 57 58 59
34 35 35 37 38 37 38 40 41 42 44 47 50 53 55 58 59 60 62 65 66 64 69 66 67 69 71 74 77 80 84 86 86 84 81 74 66 62 61 61 61 60 61
34 34 36 37 36 37 38 39 41 44 47 50 53 55 58 60 61 63 65 66 65 65 65 68 70 73 76 79 81 84 85 84 83 77 72 67 63 63 63 64 63 63 62
34 35 35 34 35 37 39 41 45 48 50 53 55 58 60 62 62 64 65 66 66 67 68 72 76 79 82 85 89 88 84 83 79 70 67 63 66 66 67 65 64 61 57
35 34 34 35 37 39 42 45 48 51 53 55 58 60 61 62 64 66 66 67 68 70 73 77 79 82 85 87 87 86 85 83 75 70 65 63 66 66 66 64 60 57 50
33 34 35 37 39 42 46 49 51 53 55 58 60 61 62 64 65 66 67 68 69 72 76 79 82 85 87 86 86 85 82 78 72 73 70 66 62 61 59 58 53 50 44
33 34 37 40 43 46 50 52 54 56 58 60 61 62 63 65 65 67 68 71 73 75 78 81 85 88 88 86 84 83 81 73 70 70 71 67 61 56 53 49 46 45 40
35 38 42 45 48 51 53 54 56 59 61 61 61 63 64 65 67 69 72 74 77 79 82 86 89 89 89 87 85 82 77 71 68 67 65 63 57 52 48 44 43 39 33
41 44 47 50 52 53 55 56 58 59 59 60 61 62 65 67 70 73 75 78 82 85 87 90 91 90 88 85 82 75 71 68 65 60 56 53 50 46 46 44 42 35 31
46 49 52 53 54 55 56 58 59 58 59 59 60 64 67 71 74 75 79 82 85 88 90 90 91 89 87 82 75 70 66 63 57 52 47 44 43 43 43 40 36 33 31
52 53 54 56 57 58 59 59 59 60 60 62 65 68 71 74 78 81 83 86 88 89 91 90 89 88 85 78 71 66 60 54 46 41 39 38 40 40 37 33 32 30 28
54 55 56 58 58 59 60 61 61 62 64 68 71 75 77 80 81 84 87 89 91 92 93 92 90 85 77 71 67 60 53 45 41 37 34 34 36 34 30 27 27 28 26
56 57 58 58 59 60 62 63 64 66 70 73 77 80 82 83 84 87 88 89 90 89 88 87 81 75 71 68 61 54 46 40 39 36 32 32 33 31 26 25 24 24 22
59 59 59 57 59 64 66 66 67 70 75 78 82 84 84 84 85 86 86 88 86 85 84 78 72 69 67 62 55 49 43 42 37 35 31 32 31 29 24 24 23 21 20
62 62 63 66 69 71 69 69 72 77 80 83 84 84 83 84 84 84 86 82 82 81 76 71 67 67 66 59 52 46 41 40 39 34 31 31 29 26 25 25 23 20 20
68 69 65 68 71 73 71 73 77 81 83 84 83 82 82 83 83 82 78 79 80 77 72 67 65 66 66 57 51 44 39 38 37 34 31 30 28 26 25 24 22 21 20
68 65 68 70 72 74 74 77 80 82 83 82 80 80 81 81 78 74 77 78 77 73 71 65 65 68 67 55 49 42 38 35 34 33 31 30 28 26 24 24 23 22 20
63 72 73 72 75 75 77 80 82 81 80 79 80 80 79 76 73 76 78 78 75 72 68 63 66 69 62 52 46 39 35 34 34 34 32 30 28 25 24 24 24 23 21
72 70 72 75 77 78 79 81 81 81 81 80 79 77 73 72 75 78 78 77 73 70 66 65 67 65 54 49 41 35 31 31 33 35 34 31 29 25 24 25 25 24 22
73 76 77 76 78 80 83 83 82 82 81 79 76 74 74 76 77 78 78 75 72 67 65 66 65 55 50 43 37 33 30 30 31 35 37 33 30 26 26 27 26 25 23
79 79 79 80 83 85 85 84 83 82 78 78 77 77 77 78 79 78 76 72 69 67 65 66 58 49 45 39 35 32 31 31 31 34 37 35 30 27 29 29 27 25 24
80 81 83 85 86 86 86 84 82 80 80 80 80 80 81 80 78 76 73 70 66 64 64 60 51 46 41 37 34 32 31 30 31 32 35 36 30 28 31 31 28 25 24
82 83 85 87 87 86 84 82 82 82 83 84 84 83 82 79 76 72 68 65 64 63 60 51 46 42 39 36 35 34 32 30 30 31 33 37 31 29 33 32 29 25 24

GFSGL_500_spd_048.txt.gz
Wind_Speed
24 23 27 29 28 27 29 30 32 30 33 33 35 38 39 41 42 44 46 49 51 53 57 61 61 60 73 73 71 72 75 73 73 72 74 77 81 84 86 87 87 84 78
29 28 28 31 33 33 35 33 32 33 35 36 38 39 40 42 44 47 50 51 53 56 59 61 60 62 69 72 69 72 76 74 76 77 79 81 85 86 86 86 82 78 71
35 34 33 32 37 35 35 34 36 37 37 37 39 40 42 44 46 49 53 55 56 59 62 63 64 67 70 68 73 73 75 78 82 82 83 87 88 87 86 83 77 71 64
42 42 39 40 39 36 35 36 38 39 38 40 41 42 45 47 50 51 54 58 60 61 62 64 66 68 69 70 73 76 79 82 83 86 89 89 89 85 83 79 75 67 60
38 34 34 35 34 35 37 39 39 39 40 41 42 44 48 50 52 55 58 60 61 61 62 64 66 67 68 71 75 77 80 83 86 89 90 89 86 81 75 71 69 64 61
34 32 34 36 36 37 37 38 38 38 39 41 45 48 51 52 54 56 59 61 60 60 61 62 65 67 70 73 76 80 81 84 87 87 86 85 80 76 71 69 68 65 63
30 30 32 34 34 34 35 35 36 38 41 45 48 51 53 54 57 58 60 59 59 60 60 63 65 69 72 76 79 81 83 86 87 87 86 83 79 74 72 69 67 64 59
33 34 34 34 34 34 35 37 40 43 46 50 53 55 56 57 59 60 59 59 59 61 64 67 70 72 76 79 82 84 87 89 87 87 84 80 75 70 66 66 64 58 54
34 35 36 36 36 37 39 41 44 47 51 53 55 56 57 59 60 59 59 59 61 63 66 70 73 76 80 84 88 90 92 90 87 84 79 74 72 69 64 62 58 54 51
36 36 35 36 38 39 42 45 49 53 55 57 58 59 60 61 60 60 60 62 64 67 71 74 77 81 85 88 91 94 95 93 91 84 73 68 66 64 59 53 50 50 47
35 35 37 39 41 43 47 51 54 57 58 59 60 61 61 61 62 62 62 67 70 73 77 80 83 86 88 89 91 94 93 92 86 75 67 63 60 57 51 44 42 43 40
35 38 41 43 46 50 53 56 58 58 59 60 62 62 63 64 66 67 70 72 75 79 83 87 88 87 88 91 93 92 90 86 77 68 64 57 52 46 42 38 38 38 39
40 43 45 49 52 55 58 59 60 61 62 62 62 64 66 69 68 70 73 76 80 84 88 90 89 87 88 90 88 88 83 76 69 64 60 50 44 39 36 37 36 37 37
45 48 51 54 57 60 60 61 62 63 62 61 62 65 69 72 72 73 77 81 84 88 88 88 87 87 89 86 85 80 74 68 65 62 54 45 38 34 32 31 33 33 32
50 53 55 58 60 61 62 63 64 66 65 65 70 75 76 75 75 78 82 86 89 89 88 87 88 88 85 83 79 73 68 64 63 60 51 42 35 30 29 29 28 27 28
56 57 58 60 60 61 60 61 66 69 70 71 73 76 79 79 80 83 87 90 90 88 87 87 86 82 81 78 73 67 62 61 63 57 49 40 35 31 29 28 26 25 24
58 59 62 64 64 64 64 70 75 74 74 75 76 78 81 83 84 87 88 88 88 87 87 82 78 79 77 75 70 65 58 59 64 54 45 40 34 32 31 27 26 22 21
60 62 65 66 59 64 71 75 76 73 72 75 78 79 81 82 86 87 86 86 86 84 79 76 78 78 77 73 68 61 58 60 59 46 39 40 32 30 30 27 24 21 21
63 66 62 59 65 73 76 76 71 74 79 79 80 83 84 85 87 88 88 88 85 78 75 77 78 78 76 71 65 60 60 61 50 40 36 36 33 30 28 26 23 21 20
68 69 68 71 73 72 76 73 76 81 82 83 85 84 85 88 90 89 87 83 79 76 76 78 79 77 74 69 63 59 61 54 43 36 33 35 33 30 29 26 23 20 19
74 76 77 72 73 76 75 80 82 83 84 83 85 87 90 91 92 88 83 80 78 78 79 80 77 75 71 65 60 59 57 46 39 32 31 34 36 31 28 24 22 20 21
72 71 70 74 76 77 79 83 84 83 83 86 90 92 92 91 88 83 81 80 81 82 82 80 76 71 66 61 59 57 48 41 34 30 28 30 35 33 28 24 21 21 22
65 70 75 76 78 80 83 85 86 87 88 90 92 93 90 86 83 83 83 84 84 82 80 76 70 65 61 58 57 51 42 36 32 28 27 28 31 33 30 26 23 21 23
69 72 73 76 80 83 86 87 88 89 91 93 92 89 87 86 86 86 85 84 82 80 75 70 64 60 57 56 52 45 39 34 30 29 27 28 30 33 32 28 25 25 26
73 74 78 81 83 85 86 88 90 92 92 91 89 88 88 88 87 86 84 82 79 74 68 63 60 56 54 51 45 40 37 33 30 28 28 27 29 32 34 30 28 30 28
78 81 82 83 85 88 91 94 94 92 91 90 90 89 88 86 85 83 81 76 71 67 61 57 54 52 48 44 40 38 35 33 31 29 28 29 29 31 34 32 29 32 30

GFSGL_500_spd_054.txt.gz
Wind_Speed
29 29 20 22 24 24 25 27 21 23 24 19 21 22 22 28 31 32 32 32 32 34 37 41 45 48 49 52 56 57 55 57 58 56 58 61 64 67 70 73 76 80 84
21 17 18 26 27 26 37 31 25 17 26 25 27 25 26 30 33 33 33 34 35 38 41 45 48 50 48 53 56 56 56 59 61 60 62 65 67 70 72 77 81 86 89
20 18 20 17 26 26 21 23 25 20 24 24 25 27 30 34 35 34 34 36 38 42 46 50 52 53 53 55 57 57 59 62 64 66 67 68 71 75 79 82 86 90 92
22 25 23 25 29 28 25 24 29 27 27 26 30 31 34 36 35 36 37 40 43 48 51 54 55 55 57 58 58 60 63 66 69 71 73 74 77 80 85 87 91 94 95
25 25 26 27 28 28 27 27 28 28 30 32 32 34 36 35 36 38 40 44 49 52 54 57 58 60 60 61 62 63 66 69 72 74 77 78 81 87 89 91 95 96 94
30 29 29 31 31 30 29 29 30 32 33 35 36 38 37 38 39 41 45 50 54 57 60 61 61 62 62 63 65 66 69 73 75 78 82 85 88 92 92 95 99 98 97
32 32 32 32 32 30 28 29 32 35 35 36 38 38 38 40 42 46 51 55 59 61 62 62 63 63 64 65 65 68 73 77 79 81 84 88 91 93 97 100 101 96 88
32 32 32 33 33 32 33 34 35 36 37 38 38 40 41 44 48 52 55 59 62 63 63 63 64 66 68 70 72 75 76 78 82 85 88 90 92 94 97 100 98 92 82
28 29 29 29 32 35 36 36 38 40 41 41 43 44 46 49 53 57 60 62 64 65 64 63 65 68 72 74 76 78 78 81 85 87 90 91 93 96 95 97 93 85 72
28 30 31 32 34 37 38 39 40 42 43 44 46 48 50 53 57 61 63 66 67 66 64 64 68 72 74 76 78 79 80 84 85 88 91 92 96 97 93 92 87 76 68
34 33 34 37 39 39 40 42 43 43 45 47 50 52 55 58 61 65 67 68 68 68 68 72 74 76 77 78 80 81 85 86 88 91 93 96 98 94 91 87 77 68 62
39 39 38 40 40 42 44 45 45 46 49 51 53 56 59 62 67 68 66 70 69 67 69 72 75 77 78 79 82 87 87 90 92 94 96 98 96 89 85 77 69 62 56
42 43 42 42 44 46 47 47 48 51 53 56 58 62 65 69 71 68 69 71 72 74 75 77 78 80 81 83 86 87 91 92 94 96 98 96 90 85 78 71 63 57 52
43 44 44 45 46 47 49 52 55 57 58 60 63 67 69 69 69 67 71 73 75 78 81 85 85 84 83 84 85 89 91 94 97 97 94 90 86 80 74 66 58 53 50
47 47 47 47 49 52 54 57 59 61 63 66 68 67 68 68 67 68 71 75 78 84 88 90 86 84 85 87 88 89 92 96 97 92 89 87 82 76 69 61 56 50 45
51 51 51 52 54 56 59 60 63 66 67 68 63 65 68 69 71 76 80 84 88 91 88 83 84 84 86 88 90 91 95 94 91 88 86 84 78 72 65 56 52 48 41
51 53 55 57 59 61 63 65 65 65 66 67 68 69 72 77 81 83 86 88 87 85 84 84 85 85 88 91 94 96 93 90 89 86 83 77 73 68 60 51 48 44 35
55 56 58 61 63 66 64 64 65 68 70 73 76 78 79 82 84 85 85 87 85 84 84 86 87 90 92 96 96 93 90 88 85 82 77 73 70 62 52 47 45 38 29
57 59 61 59 61 64 66 70 73 75 77 80 81 79 81 82 84 85 84 83 82 84 85 88 91 94 97 98 95 91 88 85 80 75 72 70 66 54 48 43 38 34 27
52 55 55 56 63 66 72 72 74 77 79 79 80 80 80 81 82 81 81 83 85 86 89 93 96 98 99 96 91 88 83 79 75 73 70 65 60 48 44 39 33 30 29
55 62 61 66 67 74 74 75 80 84 84 80 78 77 78 78 79 81 83 86 88 92 95 97 98 98 95 91 87 82 78 75 74 70 66 59 50 43 39 34 30 27 23
61 68 75 74 75 76 80 82 80 76 74 73 74 75 77 79 81 84 87 90 94 96 97 97 96 93 88 84 80 77 75 71 67 65 61 51 42 38 35 30 28 27 29
76 77 76 76 77 77 73 72 71 70 71 73 75 78 80 83 87 90 93 95 97 96 95 94 90 86 83 81 77 73 70 67 64 60 50 42 37 34 30 28 27 27 32
77 78 78 81 76 71 69 68 70 73 76 78 80 84 87 90 92 93 95 95 94 92 90 86 84 82 79 76 74 71 68 63 55 48 39 35 34 30 27 27 27 27 32
74 73 72 68 68 68 71 73 76 78 81 84 87 89 90 92 94 94 93 91 89 86 85 85 83 79 76 72 68 65 58 52 44 36 32 31 30 28 26 26 28 28 30
66 67 69 71 74 75 77 80 82 85 87 88 90 91 91 91 90 89 87 85 85 85 84 82 79 74 70 65 60 54 46 39 33 31 29 27 27 26 25 25 27 29 30

GFSGL_500_spd_057.txt.gz
Wind_Speed
18 19 20 27 26 25 26 29 31 32 30 34 24 24 23 24 24 26 28 31 34 35 36 36 36 38 42 47 51 53 55 55 55 55 57 59 59 60 63 68 70 74 77
22 21 24 22 26 27 29 25 33 30 36 23 23 23 23 23 27 27 31 35 36 37 38 38 40 42 47 50 54 55 55 55 56 58 59 60 61 64 67 69 72 77 79
22 22 23 18 21 22 21 22 29 27 18 19 22 27 26 25 28 30 35 38 37 39 39 41 43 48 51 54 56 56 56 57 59 61 61 63 64 68 70 72 74 77 81
22 23 22 23 25 25 27 23 24 28 25 23 23 25 26 29 31 34 37 38 40 41 42 44 48 52 55 58 59 59 60 61 63 65 67 69 72 75 76 77 79 80 83
23 24 23 25 26 27 24 26 27 28 29 28 28 28 29 31 33 36 38 41 42 44 45 47 52 55 58 60 63 63 61 62 64 68 71 72 76 78 79 81 84 84 85
26 26 28 30 30 30 28 27 28 30 30 30 31 34 34 35 37 40 42 43 45 46 49 52 56 59 62 64 63 62 62 65 68 71 73 75 77 80 81 85 87 90 90
28 26 29 32 33 33 31 30 32 32 33 33 34 36 36 38 40 43 44 45 47 49 52 56 60 62 64 65 65 66 67 71 75 77 77 77 78 81 85 88 90 91 94
28 27 27 30 31 32 34 35 35 35 37 34 36 39 41 43 43 43 45 48 50 53 57 60 63 66 68 68 70 69 71 73 75 77 79 79 81 84 89 91 91 93 95
27 30 31 31 31 32 33 35 34 36 36 39 41 44 47 47 46 46 49 52 56 58 61 63 66 69 69 70 72 72 72 77 78 81 81 82 84 88 90 92 94 97 99
30 32 33 33 34 35 36 37 39 40 41 45 47 48 49 49 50 51 55 58 61 63 64 67 72 72 71 72 75 78 80 82 87 88 86 84 86 87 89 93 97 100 99
34 36 37 36 38 39 40 42 43 43 46 48 49 50 52 52 54 56 60 62 64 67 69 74 74 72 73 75 76 78 81 86 90 90 88 87 88 89 92 95 98 97 95
39 39 40 41 42 42 42 43 45 47 48 50 52 55 56 57 59 61 64 65 68 70 73 73 72 72 74 76 80 84 88 90 91 89 89 89 89 90 94 97 94 91 89
42 42 42 43 45 46 45 46 48 50 52 54 56 58 60 62 64 66 67 69 72 73 73 73 73 76 79 83 86 88 88 89 87 87 87 87 90 94 97 95 92 87 81
44 45 46 47 47 48 50 50 51 53 56 58 60 63 65 67 68 69 70 74 75 74 73 76 79 82 84 86 88 89 88 86 86 87 87 91 94 97 96 93 86 79 73
47 49 49 48 50 52 54 55 57 58 61 63 65 67 69 71 71 73 74 74 75 77 81 84 86 87 89 90 90 89 86 85 86 89 92 95 97 95 91 86 80 75 71
54 52 52 53 53 54 56 58 60 61 64 67 69 72 74 76 76 75 77 79 82 85 88 88 88 89 91 92 89 86 85 86 89 92 95 97 95 91 84 78 74 71 65
54 54 54 54 55 58 59 61 63 66 68 69 70 71 72 73 76 78 82 86 87 87 89 90 89 90 90 89 86 85 87 90 93 96 97 96 91 85 79 74 70 66 58
57 58 56 51 53 57 60 61 60 62 66 68 69 69 72 76 79 83 86 87 88 88 88 88 88 87 86 86 87 89 91 95 97 98 96 90 84 79 75 72 68 62 50
53 56 54 49 55 50 54 54 59 62 62 65 68 73 77 81 84 85 86 86 86 85 83 83 84 85 87 88 90 93 95 98 99 95 89 83 79 75 70 66 60 59 44
49 49 57 57 56 60 64 66 64 66 67 78 78 78 79 81 83 82 80 78 78 79 80 82 84 86 89 91 95 97 100 99 94 88 83 79 75 71 66 62 55 50 37
53 57 60 65 68 67 70 67 69 73 81 83 83 81 82 80 77 76 77 77 78 81 84 86 89 92 94 97 100 100 97 91 87 82 78 74 69 65 63 57 47 38 32
64 67 66 67 69 71 72 76 80 80 83 83 82 82 81 78 77 77 79 83 85 87 90 92 95 97 100 100 97 93 88 85 82 78 73 69 66 61 56 47 38 32 30
60 65 69 71 73 75 76 78 81 82 81 80 79 78 77 78 81 84 86 88 90 93 95 98 100 99 97 93 89 86 84 81 77 72 68 63 59 54 46 37 32 29 27
73 74 75 75 77 78 79 78 77 77 77 77 78 80 83 85 86 89 91 94 95 96 96 96 94 91 88 87 87 84 79 75 70 66 62 54 49 42 35 31 29 27 26
74 75 76 76 74 74 73 74 76 79 81 82 83 85 87 89 91 93 94 94 94 92 90 89 87 86 85 83 79 76 72 69 64 58 50 41 36 32 30 28 26 25 26
69 69 70 70 72 75 77 80 81 83 85 86 87 89 90 90 91 91 90 90 89 88 86 86 84 82 78 76 74 70 65 58 50 42 34 30 29 28 26 24 23 23 26

GFSGL_500_spd_060.txt.gz
Wind_Speed
15 17 18 19 22 23 25 25 22 25 25 27 32 29 36 41 35 35 35 33 34 34 36 37 39 40 42 41 41 41 44 48 50 53 56 57 57 57 58 60 63 66 68
20 21 22 24 25 27 25 26 30 33 34 39 38 39 37 42 31 28 35 31 32 36 40 42 41 42 43 42 42 44 46 51 54 57 59 58 57 59 62 64 66 69 71
23 24 24 21 19 20 17 19 25 25 31 36 32 37 23 24 28 29 31 34 35 39 41 43 44 45 44 43 44 49 52 56 58 61 63 60 61 62 65 67 69 71 73
23 25 25 25 23 23 24 27 26 28 29 29 27 22 24 27 29 31 33 36 38 41 43 45 46 45 44 46 49 53 55 58 62 65 63 62 63 65 68 68 70 74 76
24 24 23 24 24 25 26 27 30 31 30 28 28 28 29 31 32 32 35 38 41 42 45 47 46 46 48 50 53 56 57 61 65 66 63 64 66 68 70 73 75 80 82
30 28 25 25 26 25 27 28 29 33 33 33 33 32 35 33 33 36 37 39 41 45 47 48 48 49 51 54 56 58 60 64 68 68 67 68 71 73 75 76 80 84 83
32 29 27 26 28 29 29 30 30 32 34 34 34 34 34 37 38 38 40 42 45 47 49 49 50 52 54 56 59 62 64 69 72 70 70 73 73 75 78 82 84 84 86
33 31 28 27 28 29 30 30 30 33 34 36 36 37 41 41 42 43 46 47 50 53 53 52 54 56 57 60 63 66 69 72 72 73 74 74 76 80 83 86 87 88 87
31 33 31 30 31 30 31 32 33 34 35 37 40 43 44 44 45 49 50 53 54 55 55 56 58 60 61 63 66 69 75 74 73 74 76 78 82 84 87 89 89 90 88
30 37 36 35 35 35 34 34 35 37 39 41 44 45 46 49 50 53 57 56 56 58 58 60 61 63 65 67 70 74 74 69 71 76 81 84 85 87 89 89 89 88 89
34 39 41 41 40 41 38 38 38 39 41 43 45 47 49 51 54 56 56 57 59 61 62 63 65 67 68 70 74 75 71 74 79 82 84 86 87 88 86 86 87 88 89
38 40 43 45 43 43 43 41 40 41 42 45 47 49 51 53 55 57 58 61 62 64 66 67 69 71 73 77 78 78 80 82 84 85 85 87 88 88 87 86 86 88 92
42 41 42 43 43 45 46 45 46 46 46 48 51 53 54 56 58 60 62 64 66 68 70 72 74 77 81 81 80 83 85 86 87 87 87 87 89 88 87 86 88 91 93
44 42 41 40 39 42 44 45 48 50 51 54 55 56 58 60 63 65 67 69 71 74 77 78 83 83 82 83 86 88 89 89 89 88 87 88 88 87 87 88 90 93 94
49 49 47 51 52 48 49 49 49 53 55 57 59 61 63 65 67 69 72 74 76 79 77 80 79 80 84 86 86 86 88 90 88 87 88 87 87 88 89 91 94 96 96
52 48 51 51 51 52 54 54 53 54 58 61 63 64 68 71 72 73 76 77 76 77 78 80 83 85 88 89 90 90 89 86 86 86 86 88 89 90 91 93 97 97 89
53 54 53 52 56 52 54 56 60 54 52 54 58 59 61 63 66 70 73 76 74 74 76 79 82 85 87 89 88 86 85 85 85 87 89 90 91 93 95 98 98 88 79
56 57 53 53 64 64 58 52 54 60 56 51 54 59 61 63 65 67 70 74 79 83 86 87 86 86 86 84 83 84 84 86 88 90 92 94 96 97 100 96 86 80 75
64 61 62 62 59 55 51 56 60 58 61 64 67 68 69 72 73 70 74 80 82 84 84 83 84 82 82 83 84 86 88 90 92 94 96 98 100 99 92 85 81 76 71
50 50 52 53 53 54 53 56 59 65 67 69 69 70 71 73 76 80 83 83 83 83 82 82 82 83 85 86 88 90 92 94 96 98 99 99 95 89 84 81 76 70 65
46 55 54 60 60 60 65 65 67 68 69 72 74 77 80 82 83 84 84 84 83 81 82 84 85 87 88 91 93 95 97 98 99 98 94 89 87 85 81 75 69 61 57
59 59 59 59 60 61 63 67 70 72 74 79 82 85 86 85 85 84 83 82 84 85 87 89 91 93 96 97 98 98 98 97 94 91 89 86 83 78 72 66 62 57 50
57 59 64 65 66 67 70 72 75 78 83 86 88 86 84 82 83 84 87 89 90 92 94 95 97 98 99 99 97 96 92 90 89 86 82 78 74 71 67 62 55 47 38
62 64 65 68 70 73 78 80 81 83 84 83 82 81 83 86 89 90 92 93 95 97 97 97 97 96 94 93 92 91 89 86 82 79 75 71 69 65 58 49 40 32 26
64 65 67 69 72 75 77 79 79 78 80 82 84 86 89 90 92 93 95 95 96 95 93 93 92 91 90 88 86 83 80 77 74 71 67 63 57 49 41 33 26 23 22
63 65 67 69 71 73 75 78 80 82 83 85 86 88 89 90 91 91 90 89 88 87 87 86 85 82 79 77 75 75 73 70 66 60 52 45 38 31 25 21 20 20 20

GFSGL_500_spd_063.txt.gz
Wind_Speed
15 15 15 15 14 15 15 18 20 23 25 25 27 29 29 32 35 36 35 34 37 36 39 41 43 42 41 44 42 43 45 44 46 47 48 50 52 54 58 61 60 60 63
18 19 17 19 20 19 21 23 23 30 30 30 31 34 31 35 38 40 40 38 43 42 46 47 45 47 45 45 45 47 47 46 48 48 50 53 55 57 60 64 64 65 65
21 20 22 22 22 21 22 20 19 20 21 26 28 25 30 36 38 40 48 40 36 35 36 43 41 42 45 46 49 49 50 50 51 52 54 56 57 60 64 67 67 68 69
25 23 23 26 26 25 26 26 25 25 28 28 29 28 27 31 33 31 32 33 35 36 42 44 45 45 47 49 50 51 51 53 53 55 58 59 60 63 66 68 67 69 70
26 26 23 23 27 28 27 27 29 28 29 31 31 32 30 32 33 36 32 35 39 42 43 45 46 47 48 49 52 54 56 56 57 59 60 62 64 66 71 71 69 69 71
27 25 28 26 27 27 28 31 31 32 32 33 33 34 37 36 36 38 39 39 39 40 43 46 47 48 50 52 55 57 58 59 60 60 61 63 66 69 73 68 69 70 74
34 27 28 30 30 32 32 31 31 32 33 34 37 39 40 41 41 40 42 42 43 44 45 47 49 52 54 56 58 60 60 59 60 62 64 66 66 71 71 69 73 77 80
31 33 34 36 35 35 34 33 32 32 33 33 33 35 38 40 42 43 42 45 46 48 49 53 55 57 58 60 60 60 60 62 64 66 69 69 72 76 76 76 79 81 82
28 27 28 36 39 36 37 36 34 33 33 33 34 35 36 39 42 44 45 47 49 50 53 58 61 63 64 63 62 63 64 66 68 70 72 74 80 80 80 81 83 85 86
32 33 34 35 38 39 39 38 37 37 36 37 37 38 39 41 42 44 48 49 51 53 55 63 63 66 64 65 66 67 68 70 71 73 78 82 82 84 86 87 86 86 87
36 37 40 36 35 38 38 42 40 41 41 41 40 40 41 43 44 47 49 51 53 55 56 65 70 65 66 68 69 70 73 74 77 78 79 80 83 87 87 87 88 86 85
42 43 42 41 40 41 39 41 42 43 42 43 44 46 47 48 49 50 51 52 54 58 65 64 65 67 68 71 71 70 69 81 77 80 86 86 87 89 90 88 86 86 84
45 44 45 43 47 46 44 41 39 39 39 41 43 44 47 50 52 54 56 58 61 63 65 66 67 69 73 72 74 78 81 78 82 86 86 87 89 89 89 87 85 84 83
47 49 50 50 48 45 44 43 45 47 50 45 47 49 46 50 55 58 60 61 63 65 66 68 68 73 76 76 79 79 79 82 81 84 88 89 90 91 89 86 85 84 84
49 52 50 51 48 48 48 49 49 49 45 47 47 52 53 55 60 59 62 63 65 67 69 72 74 75 78 80 85 87 86 87 89 90 90 90 90 88 87 87 87 87 88
46 51 48 51 50 56 55 52 51 49 51 49 52 54 56 61 61 60 56 62 67 67 68 68 70 73 76 78 79 84 88 92 91 90 89 88 86 86 87 88 89 91 91
50 51 52 54 52 55 57 57 56 57 58 55 60 59 56 56 58 56 58 60 63 68 69 71 74 77 80 83 87 91 89 88 87 86 86 87 88 90 90 91 92 93 91
51 55 61 62 66 65 64 63 63 65 65 62 58 56 62 64 66 67 65 67 68 70 73 76 78 82 85 86 87 87 86 86 87 89 92 93 94 94 94 94 94 94 94
62 58 57 49 49 57 58 58 61 62 60 55 57 62 63 66 66 68 70 73 75 78 80 84 88 89 89 89 89 89 90 92 94 95 96 96 97 97 97 97 94 90 85
62 62 47 54 47 52 54 51 57 57 58 61 65 68 71 71 70 72 74 78 81 84 89 92 92 89 89 89 90 93 95 96 97 98 98 98 98 96 94 90 87 83 78
55 57 66 55 57 56 61 56 62 65 64 66 68 68 70 73 76 78 81 84 87 90 92 90 89 90 91 94 96 97 98 98 99 98 97 95 93 90 88 85 81 77 70
51 52 52 54 58 57 59 66 67 65 69 72 73 76 79 81 82 85 88 88 88 88 89 90 93 96 97 98 99 99 98 97 96 94 92 90 88 85 81 76 70 64 60
53 52 52 54 58 62 66 70 71 73 75 78 80 82 85 87 88 88 87 87 89 92 94 96 98 99 100 100 99 96 93 91 89 87 84 81 78 75 71 68 63 58 51
51 54 56 59 61 64 67 70 72 74 76 77 79 81 82 82 85 88 90 92 93 95 96 97 97 96 94 92 90 87 85 83 81 79 77 76 74 71 65 59 51 43 36
58 61 62 63 66 68 69 69 70 70 73 77 80 82 85 87 89 90 92 93 93 92 91 89 87 85 83 82 81 81 80 77 75 73 70 66 61 54 46 39 32 26 23
60 60 60 61 62 63 65 67 70 73 76 79 82 85 87 88 89 88 85 84 82 81 79 78 78 78 77 76 75 74 72 70 66 61 54 47 40 33 26 21 17 16 16

GFSGL_500_spd_066.txt.gz
Wind_Speed
12 13 13 14 13 14 13 15 15 15 19 20 23 24 24 26 29 32 34 37 40 42 43 45 45 41 39 44 47 56 45 49 45 47 49 52 54 55 54 56 57 59 61
16 15 15 15 13 14 19 20 21 22 19 22 27 30 31 29 31 34 37 40 44 44 49 50 49 51 49 46 49 47 49 46 50 51 52 55 58 58 57 58 60 61 63
18 21 22 20 20 19 20 22 22 21 21 21 24 22 26 30 30 31 33 33 38 42 51 53 49 50 42 37 50 51 47 46 53 55 56 57 59 60 60 61 63 64 64
24 25 23 25 26 25 25 25 25 26 27 27 27 27 29 30 33 34 33 36 39 38 37 43 46 42 42 47 48 52 52 52 55 57 58 60 61 62 63 63 66 67 67
27 25 26 28 28 27 26 26 28 29 30 32 32 31 35 36 34 40 38 38 38 36 38 38 43 44 48 50 52 54 56 56 58 60 61 64 64 66 66 67 68 69 70
32 31 32 30 32 32 31 28 27 29 32 36 34 35 37 37 37 41 45 44 45 43 41 43 45 45 45 49 54 55 55 57 60 62 65 66 67 68 69 69 70 72 74
38 35 33 33 30 31 33 32 31 32 35 36 37 37 37 37 38 40 44 46 46 45 46 46 46 48 50 52 55 57 59 62 64 65 68 69 70 69 70 71 72 75 79
39 39 37 30 32 37 39 39 39 38 35 36 38 39 39 37 36 38 41 44 44 45 46 48 49 50 54 56 57 59 63 68 67 67 70 70 70 70 73 76 79 79 78
38 38 36 37 37 38 36 36 41 43 43 42 40 39 41 42 41 41 42 44 45 48 49 50 53 56 57 58 54 64 72 60 63 71 71 74 74 76 76 74 79 82 81
41 40 39 39 39 40 39 38 43 42 45 46 46 45 44 45 45 45 46 47 48 52 52 55 57 58 59 57 61 58 63 70 81 77 77 78 79 79 81 81 87 86 85
43 42 42 44 46 47 46 42 38 38 40 43 47 49 48 48 49 49 51 52 53 54 56 58 59 59 60 63 61 72 68 78 81 83 76 78 83 85 86 84 85 86 89
45 47 49 48 49 51 53 53 49 47 45 46 46 45 49 50 51 52 52 53 54 55 57 58 60 61 67 67 68 74 77 75 73 77 82 83 86 82 83 87 90 93 95
46 52 50 54 55 56 56 58 55 55 49 51 44 42 44 47 47 51 54 55 57 54 58 57 55 56 64 71 73 73 74 78 82 81 80 81 85 87 88 90 92 94 95
50 50 52 52 55 57 59 58 57 58 58 47 48 48 51 54 55 53 52 51 48 57 65 54 60 69 73 71 74 79 82 82 79 80 82 84 86 88 91 94 94 92 90
52 50 51 52 57 58 59 61 60 61 59 53 53 54 51 51 51 50 46 53 56 59 64 68 74 75 72 74 79 78 75 76 78 80 82 85 88 90 90 90 90 90 88
51 49 49 49 52 54 55 59 65 60 57 56 58 55 55 57 57 57 59 62 63 64 68 73 74 75 76 77 76 78 79 83 84 86 89 91 91 90 90 90 90 91 93
53 54 47 51 60 61 59 63 56 57 59 62 63 65 66 67 68 66 65 64 65 68 70 72 73 73 72 73 76 79 83 88 92 94 97 97 94 92 93 94 97 98 98
59 59 59 54 53 54 57 59 63 65 66 58 63 69 72 58 58 60 60 59 61 68 70 74 79 81 78 79 81 84 87 92 96 98 98 96 95 97 99 101 101 101 99
53 58 60 51 48 53 52 46 52 54 51 53 48 55 55 53 57 59 62 66 67 72 76 81 81 81 84 87 88 92 96 98 98 97 99 101 102 103 103 103 101 98 94
50 49 50 55 59 52 56 53 48 55 55 52 54 57 57 58 65 68 71 71 73 77 78 81 82 85 88 92 97 99 98 97 99 102 104 105 105 105 102 99 95 91 87
48 51 54 58 66 62 59 58 61 60 59 55 55 61 67 69 73 74 75 76 76 79 84 89 90 91 92 92 94 96 99 102 104 105 107 105 100 96 94 91 87 84 80
50 52 51 52 56 58 59 60 60 62 63 64 67 69 72 74 75 78 81 83 84 86 87 88 89 90 92 96 98 101 103 105 105 101 97 94 92 89 87 84 81 78 74
57 59 59 57 56 57 57 58 60 62 64 67 70 73 75 77 79 81 82 81 81 84 87 88 91 94 97 99 100 99 98 94 92 90 88 86 84 82 79 76 73 69 64
54 55 57 61 62 60 61 64 66 68 71 72 75 78 81 82 80 78 78 80 83 86 90 92 94 95 93 92 90 89 87 86 84 81 80 78 75 72 68 64 58 52 45
57 58 59 61 61 62 65 67 67 70 72 73 73 74 74 76 77 81 85 88 91 92 90 88 86 84 83 81 81 79 77 75 74 73 71 69 64 58 51 45 38 32 26
58 59 60 61 62 62 62 64 66 67 69 70 73 76 80 83 85 87 87 87 85 83 80 78 76 74 73 71 70 70 69 68 66 63 58 51 44 37 30 24 19 15 11

GFSGL_500_spd_069.txt.gz
Wind_Speed
10 8 8 10 11 13 16 17 16 16 16 17 19 21 22 23 24 26 25 26 29 31 33 36 39 42 44 47 48 50 52 54 54 48 49 52 51 48 50 53 50 53 56
13 13 11 10 11 14 17 20 20 19 21 24 22 25 24 25 28 28 28 30 33 35 36 39 43 45 46 46 55 59 59 53 51 54 53 52 51 52 58 57 54 57 61
16 18 18 17 17 18 19 19 21 21 21 21 20 18 23 25 27 29 32 33 34 38 36 38 38 42 44 49 58 62 47 42 47 52 48 54 53 59 60 60 61 62 64
22 21 22 24 24 26 25 25 25 25 25 24 24 24 26 27 29 29 30 32 33 35 37 38 39 41 42 42 41 46 45 44 50 53 56 51 61 62 63 64 65 65 66
29 28 25 25 27 26 28 29 30 30 29 30 30 29 30 32 31 31 34 37 39 39 44 46 43 44 47 45 44 46 47 52 53 55 57 61 64 63 65 67 68 66 65
34 31 32 31 31 32 33 32 33 34 33 32 32 33 33 34 35 36 39 42 44 45 46 46 47 52 49 49 49 49 47 57 46 58 60 63 64 68 70 71 70 69 70
36 34 33 34 34 33 34 36 35 34 35 34 34 36 38 38 37 38 40 44 46 47 46 46 48 48 47 47 53 51 53 56 58 62 63 63 70 72 71 64 65 73 72
42 41 41 39 36 36 34 34 35 35 36 38 40 41 42 42 43 42 42 46 48 47 47 46 48 51 50 50 51 55 58 60 60 65 64 67 73 71 69 67 75 74 80
46 45 47 44 44 42 40 36 37 38 39 38 39 40 43 46 48 48 48 49 50 51 52 52 52 53 55 56 58 59 59 58 65 61 67 70 64 65 63 80 84 89 86
49 51 51 46 47 44 44 45 45 40 39 38 40 42 44 44 47 50 54 55 56 55 56 57 58 59 60 60 61 62 62 63 65 68 74 67 66 73 80 89 87 83 86
51 52 53 55 53 49 48 49 50 51 49 50 47 49 50 47 48 49 51 56 58 59 59 60 61 60 62 63 65 64 66 69 65 75 66 58 67 81 86 89 90 91 91
45 48 50 53 54 53 57 56 53 55 57 59 64 66 60 60 57 53 53 52 54 57 59 60 62 64 65 67 68 65 73 72 69 76 84 75 85 86 89 91 93 91 89
48 49 50 53 52 55 60 58 60 62 61 65 68 65 63 66 59 63 59 52 54 57 59 63 65 67 68 67 68 70 71 68 64 74 78 78 83 88 86 85 84 87 88
48 50 53 55 58 60 64 66 70 69 66 69 72 67 69 71 69 69 63 54 56 58 60 62 61 59 72 58 57 62 64 71 81 87 84 85 85 81 82 84 88 92 95
55 56 56 59 59 62 63 64 67 66 67 67 69 71 74 75 71 75 70 65 62 60 61 63 62 63 67 72 75 76 78 81 85 86 84 82 82 83 86 88 91 94 98
57 59 59 61 61 63 64 65 66 65 67 69 72 72 73 71 75 77 71 67 67 65 71 71 74 74 75 74 77 77 80 82 82 84 86 88 89 89 91 96 99 101 104
51 59 61 67 68 66 63 62 65 64 64 66 68 71 76 80 78 72 65 64 63 62 64 69 69 66 67 69 67 74 79 82 83 86 91 91 92 96 98 103 105 106 105
50 59 44 49 62 64 63 68 73 71 69 76 76 86 72 60 53 54 54 57 60 57 60 63 66 66 69 73 76 79 80 83 86 90 92 95 98 101 100 101 103 106 107
52 64 64 62 58 56 56 65 70 63 56 46 44 52 50 48 55 58 57 58 61 60 58 64 70 69 78 83 82 83 86 88 91 95 97 96 97 99 101 103 107 109 111
47 50 51 51 50 57 48 46 51 53 52 50 47 51 53 56 59 63 65 64 66 67 69 73 77 83 86 86 88 89 91 93 93 94 95 97 100 103 107 109 109 107 103
40 42 46 50 50 47 47 47 48 49 50 53 54 53 57 61 62 63 67 70 71 74 78 81 82 82 85 88 89 88 89 90 93 96 100 103 106 107 107 104 100 96 93
42 42 43 44 46 49 51 51 51 53 55 56 57 59 62 64 65 68 70 73 77 79 80 83 85 86 87 86 86 89 94 98 101 103 103 102 99 97 94 92 90 88 85
45 48 49 51 52 52 54 55 58 61 62 62 64 66 67 68 70 72 75 77 79 79 80 81 82 84 87 90 93 96 97 98 97 96 93 90 88 87 86 84 81 78 73
51 52 54 55 57 59 59 59 60 63 65 67 68 69 69 69 70 71 74 75 77 79 81 84 87 90 92 94 95 92 88 87 86 84 82 82 81 78 75 72 67 60 53
51 54 54 55 56 59 61 62 63 64 64 66 66 67 67 68 70 73 76 78 81 84 86 87 88 87 85 82 81 79 78 77 77 75 74 72 69 66 61 52 45 40 34
51 51 51 53 54 56 57 58 60 62 64 66 68 70 73 74 77 79 80 81 81 79 76 74 72 73 73 73 73 72 70 69 68 66 64 61 55 47 39 33 28 24 20

GFSGL_500_spd_072.txt.gz
Wind_Speed
10 9 9 9 9 10 12 13 14 15 15 16 16 17 17 18 20 20 19 21 22 24 25 27 29 31 34 36 39 38 42 46 49 48 47 49 53 54 53 53 52 49 58
13 12 11 10 11 12 14 14 15 17 14 16 18 18 20 22 24 24 24 25 26 28 29 31 32 34 38 39 43 44 49 49 50 51 54 44 45 44 50 49 45 53 52
18 16 14 14 14 16 17 16 17 17 18 19 19 21 21 21 23 24 26 29 32 34 35 36 36 40 41 42 45 45 46 47 47 46 40 45 45 48 51 53 48 43 49
19 20 21 21 21 23 22 21 21 23 22 23 24 24 23 24 23 24 26 28 30 33 34 37 38 38 38 39 47 47 47 50 49 49 49 50 48 46 57 57 53 53 59
23 23 25 26 26 22 21 23 25 26 25 26 26 26 28 28 28 30 32 33 34 36 38 40 41 43 44 47 46 49 47 49 54 54 52 54 54 53 52 57 64 62 63
27 26 28 29 28 28 27 29 29 29 29 31 32 32 31 30 29 31 34 36 38 40 41 42 44 46 46 49 51 54 56 50 50 49 58 53 59 61 60 56 58 65 62
32 31 31 32 31 29 31 31 29 29 32 31 32 35 35 36 36 37 37 40 42 43 44 44 45 46 46 49 51 55 56 56 51 59 57 57 57 60 61 66 68 68 63
37 37 37 37 37 38 37 35 35 34 34 33 30 31 33 34 37 38 40 44 46 47 48 48 48 49 49 51 53 54 56 57 56 58 60 62 63 63 65 65 67 65 69
46 44 44 43 43 44 43 45 48 40 41 36 37 39 39 38 39 39 41 44 45 48 50 53 54 55 55 54 56 58 59 61 61 61 61 63 68 67 69 65 70 69 77
51 50 49 47 47 49 48 48 48 41 43 48 45 42 41 41 43 46 49 49 46 48 48 51 54 55 57 62 63 63 64 65 65 67 68 68 72 71 64 70 73 71 65
51 51 53 50 49 51 54 51 52 55 56 52 53 49 47 49 53 55 57 60 60 60 60 58 58 59 61 60 62 65 68 68 70 71 71 72 77 67 81 75 81 82 82
45 45 56 52 52 51 47 58 58 54 54 56 54 57 61 61 59 61 61 63 64 65 73 65 62 64 71 68 64 65 66 67 68 71 70 72 74 77 83 83 77 78 82
51 51 54 56 57 60 57 52 52 55 59 59 58 62 64 61 66 69 65 61 67 67 58 68 71 74 76 78 68 66 68 67 68 68 71 69 69 71 72 77 81 86 86
54 54 55 56 58 61 62 61 58 61 62 62 64 70 73 70 73 77 78 71 59 72 68 70 75 75 75 77 69 67 67 69 69 70 72 69 80 81 78 80 82 84 86
55 58 59 58 59 60 61 62 62 63 66 69 68 71 71 73 69 68 72 64 66 72 74 74 75 79 82 82 80 72 74 77 73 72 73 75 74 73 78 81 84 87 89
48 51 58 61 60 61 60 62 64 70 76 71 68 69 69 79 59 59 76 77 76 76 74 76 76 78 73 71 74 74 62 64 66 64 68 72 74 78 82 86 90 92 94
49 49 54 60 62 60 59 58 58 61 42 55 77 73 69 81 79 79 80 79 76 73 69 69 62 57 55 57 59 62 65 68 73 77 78 83 86 89 92 93 94 98 100
48 52 52 51 56 59 55 62 60 59 63 63 55 56 60 67 72 64 68 67 64 57 54 55 58 59 60 60 63 66 68 69 73 77 82 85 90 94 96 98 100 101 100
50 48 52 56 54 54 56 61 65 57 48 50 49 47 48 60 55 53 51 53 55 57 54 55 60 66 68 68 68 70 74 77 82 85 88 89 92 94 97 98 98 100 102
49 48 46 47 52 53 50 50 49 44 43 42 45 46 44 46 47 50 48 53 60 61 65 67 68 71 73 75 77 79 81 83 86 88 89 91 92 93 95 97 101 103 105
44 42 44 40 41 43 44 44 46 45 43 44 45 47 49 50 53 55 57 59 61 64 68 70 73 74 75 77 80 81 81 83 84 85 87 90 92 96 98 101 100 99 97
53 53 50 47 47 47 47 47 47 49 50 51 51 52 54 55 57 58 61 65 69 71 72 74 75 74 76 78 80 81 82 83 86 89 92 93 95 94 93 91 90 88 86
48 47 49 49 50 51 52 51 53 54 55 55 55 55 55 56 57 59 62 63 64 65 67 70 71 74 76 78 81 83 85 86 87 90 87 86 83 82 81 80 78 76 75
46 46 48 49 50 50 51 52 53 54 55 56 56 57 58 58 58 59 61 64 66 68 71 73 75 77 80 81 80 79 76 75 75 75 75 74 73 72 72 71 70 69 65
46 47 47 49 50 51 52 53 54 55 55 56 57 58 61 63 64 66 68 71 72 74 76 77 78 78 74 67 65 65 66 67 68 68 69 68 67 66 65 63 60 53 44
46 47 48 49 49 49 49 51 53 55 57 60 63 64 66 68 71 74 76 77 77 76 73 68 63 58 57 58 60 63 65 66 66 65 64 62 60 59 57 49 39 32 29

GFSGL_500_spd_075.txt.gz
Wind_Speed
7 8 7 9 9 9 7 8 9 11 12 13 13 15 15 15 15 16 18 20 21 24 25 28 30 31 32 35 38 39 37 38 42 40 42 42 47 47 46 50 45 42 42
14 12 10 9 9 9 8 9 9 10 12 13 13 16 17 16 19 19 21 22 22 23 25 28 29 34 34 36 37 37 39 42 44 47 45 44 45 46 47 45 47 45 47
15 14 14 14 13 12 12 13 13 12 13 13 16 18 20 22 22 22 23 25 25 26 29 30 30 33 33 35 36 38 40 43 45 45 45 48 46 46 48 50 51 53 49
18 15 17 19 20 19 17 18 18 18 18 20 20 21 22 22 21 23 24 24 27 28 31 31 32 35 36 38 40 41 41 44 47 48 47 48 48 49 46 50 51 54 56
21 20 19 22 23 23 22 21 19 18 21 23 23 23 25 25 25 26 27 28 30 33 34 35 36 37 40 42 45 44 47 50 52 57 57 55 52 51 52 57 51 53 52
27 27 26 25 24 25 26 26 26 26 26 26 24 26 28 30 29 30 32 32 34 35 35 36 37 39 41 44 46 49 51 52 53 53 52 54 51 53 51 58 55 53 55
28 32 33 34 32 31 29 29 29 29 29 28 26 29 31 31 32 33 35 38 39 40 41 42 42 42 43 44 45 48 50 52 53 53 55 56 58 57 56 55 63 57 64
33 36 36 36 36 37 37 35 35 35 34 34 33 37 34 32 33 34 36 39 38 38 41 42 43 46 48 49 49 50 52 53 55 57 60 62 62 63 64 63 65 65 61
38 39 41 40 40 42 40 39 40 42 41 39 38 43 45 38 38 36 38 41 44 45 45 44 44 44 45 44 47 50 51 52 53 54 58 64 66 67 68 68 68 71 63
46 45 46 49 49 49 49 48 46 46 45 44 44 46 47 44 46 42 45 47 49 51 51 51 53 55 57 58 63 64 63 61 57 60 64 65 68 73 71 63 69 66 65
43 47 43 42 45 43 47 48 49 47 48 51 52 52 50 52 58 58 55 55 55 56 57 58 60 57 58 63 65 71 73 71 64 60 65 69 73 74 72 67 70 71 65
39 41 44 43 44 45 44 46 51 55 56 55 50 55 59 57 57 55 56 60 58 63 67 67 70 67 68 72 67 68 70 59 58 64 65 68 72 73 73 74 73 73 72
45 46 47 49 50 49 51 54 54 53 56 59 61 62 57 60 60 60 61 60 61 65 68 71 74 72 86 71 75 64 68 66 66 66 73 69 78 85 80 80 78 78 77
49 52 56 58 58 59 59 59 63 64 63 63 65 65 65 66 64 62 60 73 71 68 72 72 78 76 87 67 71 56 76 80 73 71 70 73 78 78 83 80 75 72 73
44 46 48 51 54 59 62 63 64 67 68 68 67 68 67 71 71 72 78 70 72 66 67 70 69 75 71 68 73 73 77 77 77 69 70 72 69 77 73 70 73 74 76
43 45 48 49 51 53 55 59 62 67 72 72 70 68 68 71 71 71 80 86 83 73 75 65 65 62 68 80 81 75 73 75 68 61 61 62 64 67 72 75 74 76 80
45 45 47 49 51 54 56 57 61 64 64 67 71 70 70 67 70 56 54 56 69 76 67 71 83 82 83 74 70 69 68 64 62 62 62 66 70 72 74 77 80 83 87
55 55 56 55 55 55 54 56 58 60 62 59 58 63 65 62 65 65 63 66 65 69 62 65 72 68 59 57 55 57 62 66 65 71 73 74 76 78 80 82 84 87 89
62 63 64 65 64 63 60 59 59 58 58 62 60 59 59 69 67 55 53 58 56 53 52 54 50 55 59 61 63 64 66 69 74 76 79 81 83 84 85 87 89 91 93
68 68 66 65 62 61 55 55 53 52 53 53 55 56 52 46 47 47 50 52 54 54 57 57 57 59 61 63 65 68 71 75 79 82 83 84 84 86 86 87 89 91 94
56 54 56 56 52 49 54 55 52 54 53 51 51 51 51 50 49 49 51 53 55 58 60 63 65 67 68 70 71 73 75 77 77 79 81 83 84 86 88 91 94 95 95
47 48 49 49 51 51 51 53 54 55 54 53 53 54 54 56 56 57 56 56 57 59 61 64 66 68 70 72 73 74 75 76 77 78 81 84 86 88 86 85 83 80 79
49 48 45 46 46 49 52 54 53 54 54 54 55 55 57 58 59 59 60 61 59 59 60 62 63 64 65 69 71 72 74 76 78 79 79 78 75 71 69 70 71 71 71
49 48 47 46 46 47 49 50 51 50 51 51 53 55 57 58 59 60 60 60 61 62 64 66 68 70 71 73 74 72 71 70 67 63 61 61 62 65 67 67 67 66 65
49 48 47 47 47 48 49 50 51 51 53 54 55 55 57 58 60 62 63 66 67 68 70 71 73 75 76 75 71 65 59 55 54 56 59 62 64 64 64 63 61 58 56
46 47 47 48 49 50 51 53 54 55 56 57 58 61 63 65 67 70 71 72 73 73 72 71 70 67 62 58 54 52 53 54 56 58 60 61 61 59 57 54 52 49 42

GFSGL_500_spd_078.txt.gz
Wind_Speed
9 8 8 6 6 6 7 8 9 10 11 12 13 14 14 16 16 14 13 17 20 23 26 27 28 32 35 38 36 37 37 41 44 38 40 41 42 42 42 45 47 47 46
13 11 10 10 9 8 9 10 9 10 11 10 12 13 14 16 17 15 16 18 21 23 25 28 28 32 33 36 39 41 42 44 45 45 42 44 47 44 45 47 47 49 48
15 12 12 14 13 12 12 11 11 11 12 14 15 16 18 18 18 19 19 20 22 25 28 29 29 33 32 34 37 38 40 42 46 48 47 47 49 48 45 43 47 50 52
21 18 16 17 18 17 16 16 16 17 19 20 20 21 22 23 22 23 24 25 25 25 27 29 32 33 33 35 37 40 42 46 47 50 50 49 48 51 51 51 55 53 55
26 24 24 23 20 20 22 23 23 20 19 22 22 22 25 27 27 29 30 31 31 32 34 34 35 37 37 37 39 39 42 46 49 51 53 53 52 53 52 51 52 53 52
23 25 27 28 27 26 25 25 26 26 25 26 26 28 28 26 28 30 32 34 37 37 36 37 37 38 37 38 40 42 45 47 49 50 51 52 51 52 53 51 54 54 56
27 28 30 31 32 32 31 30 30 30 30 30 31 32 29 28 28 30 34 37 37 39 41 42 43 43 44 45 46 49 50 50 50 50 50 50 51 52 53 55 52 50 51
33 33 34 33 34 35 35 35 35 37 36 36 35 36 37 35 36 37 41 41 41 39 39 41 45 44 44 44 46 45 45 47 48 48 47 47 51 52 55 58 58 57 54
37 36 37 38 38 39 40 41 41 38 38 39 42 44 42 40 44 45 43 47 48 47 46 46 46 48 49 50 51 51 52 52 54 56 59 62 60 60 65 69 67 68 58
43 42 41 46 45 44 43 44 44 47 46 44 48 49 50 50 49 49 49 52 53 53 52 54 54 56 57 57 58 58 60 62 63 61 64 67 67 70 71 74 63 62 66
36 41 44 44 48 47 47 51 51 52 48 48 50 53 54 54 53 52 54 56 59 60 60 61 63 65 62 62 63 65 70 71 72 70 70 76 78 81 75 78 75 66 79
35 38 40 39 40 44 45 45 46 45 45 49 51 52 55 55 57 60 59 55 57 67 66 67 64 63 62 64 65 68 73 71 75 82 77 86 87 82 88 68 69 69 69
41 43 45 47 48 49 50 50 50 51 53 54 55 57 59 60 58 62 61 65 67 67 70 74 64 71 71 77 72 73 73 66 72 80 84 78 80 62 67 69 70 72 70
48 49 50 52 53 55 57 59 62 64 66 67 66 66 67 68 67 67 62 56 61 68 66 76 67 74 79 74 71 72 73 74 78 75 82 68 72 80 68 68 71 73 74
52 51 49 49 49 50 51 53 55 56 58 60 63 66 69 72 74 75 75 76 77 74 73 76 75 75 74 73 75 76 78 88 76 77 64 69 72 80 75 72 70 68 64
46 47 48 49 50 52 53 54 56 57 58 60 61 63 65 66 69 72 74 76 78 81 81 78 76 71 73 78 84 73 67 67 71 78 80 68 65 67 65 62 63 63 66
49 52 53 55 55 56 57 59 60 60 62 63 64 65 67 68 69 69 71 73 72 70 72 70 69 71 68 67 63 65 69 62 68 72 64 60 60 61 67 70 72 75 78
56 58 59 60 61 62 64 65 66 67 68 69 70 70 69 69 69 69 69 71 70 67 63 65 71 74 69 65 62 61 57 57 59 63 65 67 68 72 74 75 78 80 84
60 62 65 68 70 71 73 74 74 75 74 74 73 72 69 69 66 63 62 63 62 64 61 60 57 57 59 60 59 60 59 61 63 65 66 68 70 74 77 79 80 83 84
66 67 68 68 68 68 67 65 62 61 61 61 59 57 59 58 55 57 60 60 58 56 57 58 58 58 59 60 63 66 67 69 70 70 71 73 75 77 78 81 83 84 85
56 55 54 52 52 54 55 53 50 51 52 51 52 54 54 57 60 59 60 59 59 59 58 58 59 61 63 66 67 69 71 73 75 76 76 78 79 78 81 83 84 86 88
53 54 54 53 54 53 52 51 51 50 49 50 51 53 55 57 58 57 57 58 58 58 58 59 60 61 61 63 64 66 68 70 71 71 72 73 76 79 82 83 83 82 80
52 54 56 58 59 57 56 54 52 51 50 51 52 53 54 55 56 56 56 56 57 57 58 59 60 61 62 63 65 67 70 72 73 76 77 78 78 76 73 69 66 65 67
53 53 55 56 57 57 55 53 53 53 52 52 53 54 55 56 56 56 56 57 58 59 60 62 64 66 68 70 72 75 76 78 78 77 76 71 66 62 60 60 62 64 66
53 53 53 53 52 51 51 52 53 54 54 54 55 56 57 58 59 60 61 63 64 66 67 69 72 73 75 75 76 76 75 74 70 64 60 58 57 58 59 60 61 62 61
53 53 53 52 52 52 53 54 55 55 56 57 59 61 62 63 64 66 67 68 69 70 71 71 71 70 70 68 66 63 60 58 57 55 55 55 56 57 57 57 57 55 52

GFSGL_500_spd_081.txt.gz
Wind_Speed
10 9 8 8 7 5 6 8 11 12 12 12 14 18 20 20 21 21 18 17 15 20 29 33 33 34 36 36 41 42 40 42 42 34 42 44 43 45 47 48 47 47 48
14 13 11 10 9 7 8 10 10 11 12 13 14 15 16 19 18 17 20 20 19 20 23 26 26 28 30 31 35 38 42 44 43 40 43 45 48 50 50 50 48 49 52
17 15 14 14 14 13 11 11 13 14 14 15 16 17 18 18 18 19 21 22 23 24 25 27 27 31 30 32 34 38 39 42 46 48 47 47 50 51 52 52 49 50 50
22 20 19 17 15 17 17 17 16 17 17 18 19 19 20 21 22 23 25 26 27 28 30 29 30 32 33 37 39 40 41 45 47 50 51 50 52 51 53 51 49 51 52
22 22 22 22 20 19 19 21 21 21 21 22 22 24 27 26 27 29 32 33 34 35 36 34 34 35 36 38 42 41 44 48 50 52 54 53 52 50 52 51 52 51 52
27 26 25 24 23 24 24 24 23 24 26 26 25 26 27 28 29 31 33 35 37 37 35 35 37 42 42 43 44 45 48 50 52 54 55 57 53 53 51 53 52 54 55
28 31 31 31 29 27 27 28 29 30 31 30 31 31 32 32 33 36 37 37 37 36 36 37 39 38 40 45 48 51 53 54 58 58 59 58 59 57 56 56 57 52 52
26 26 30 31 30 31 34 35 35 36 36 36 37 37 39 37 39 40 40 44 45 44 44 43 44 44 45 46 48 52 53 56 56 56 57 54 52 50 52 55 57 61 64
32 34 34 35 35 35 37 37 40 42 44 41 44 44 43 44 44 45 44 48 49 49 49 51 54 53 53 52 55 55 56 57 59 60 62 61 61 60 59 60 62 67 71
36 40 42 42 43 44 43 44 46 46 45 44 48 47 45 47 51 49 52 49 50 55 61 59 57 55 60 61 61 62 66 66 66 67 68 68 69 72 71 73 73 72 74
32 35 40 44 48 51 47 47 43 49 54 55 55 56 57 55 52 53 52 54 57 55 59 61 60 61 61 61 71 73 77 73 75 74 71 75 76 73 76 75 77 79 82
33 35 38 39 39 40 40 40 42 43 44 49 50 52 55 56 56 58 60 60 62 61 63 60 62 65 62 71 69 66 65 68 77 71 73 78 81 84 82 74 79 77 76
32 34 38 41 41 41 42 44 46 49 51 52 53 55 58 59 61 63 64 65 65 66 67 67 67 69 71 67 62 65 74 69 66 71 71 69 78 76 82 86 94 82 82
37 38 41 43 45 48 51 52 53 52 52 52 53 54 57 60 62 64 65 66 67 68 68 68 69 71 76 81 84 86 82 80 81 78 80 78 79 82 80 87 92 83 79
46 46 48 50 53 54 56 56 52 51 50 50 52 54 56 58 59 61 62 63 64 65 67 69 70 71 72 75 76 76 76 76 80 81 85 83 80 79 80 84 79 72 72
54 55 57 58 57 56 54 53 55 56 57 59 61 62 62 63 65 66 67 68 69 70 71 72 72 72 73 72 72 72 69 67 68 69 71 73 70 71 72 70 69 71 70
50 51 53 53 54 55 55 57 59 61 64 65 67 67 69 71 72 73 74 76 77 77 77 78 78 77 76 73 71 68 67 65 66 68 71 70 67 67 66 65 65 65 66
47 49 51 53 55 56 59 61 63 65 67 70 73 75 77 79 81 83 84 84 83 81 79 77 75 73 71 69 68 66 64 62 64 62 60 60 61 62 63 65 68 69 72
51 53 55 56 58 62 65 67 70 72 75 77 78 78 77 72 66 62 62 63 63 62 63 62 63 60 61 64 65 66 66 64 64 64 64 65 66 67 70 71 73 74 76
55 58 60 62 65 67 68 69 68 65 62 60 57 54 54 52 52 55 57 56 58 59 60 57 59 60 61 63 65 65 66 66 67 68 68 68 69 71 73 75 76 78 79
60 61 61 62 63 63 62 61 60 61 59 56 56 57 57 56 58 58 58 59 59 59 59 60 61 63 65 64 64 65 65 64 64 64 65 67 68 69 70 71 74 76 78
58 58 58 60 60 62 61 61 60 59 61 63 65 64 62 62 62 61 60 59 59 60 60 60 61 61 61 61 62 62 63 63 64 65 66 68 69 72 74 75 76 77 77
61 64 65 66 67 66 64 63 63 62 62 63 63 64 64 63 63 62 62 62 61 60 60 61 62 62 63 63 64 65 66 68 69 71 72 73 74 75 75 73 69 66 63
61 60 59 59 59 59 60 62 63 64 64 63 62 61 60 59 60 61 61 61 62 63 64 65 66 67 68 69 70 71 72 73 73 73 73 69 66 63 60 57 56 55 55
60 61 61 62 62 62 62 62 62 62 62 63 63 62 62 62 62 63 64 65 66 67 69 70 70 71 72 72 72 71 70 67 64 61 58 56 54 53 53 53 53 54 55
66 66 66 67 67 66 66 65 65 65 65 64 64 65 65 66 67 68 68 69 70 70 70 69 68 66 63 60 57 56 56 55 54 54 53 53 53 53 54 54 54 54 53

GFSGL_500_spd_084.txt.gz
Wind_Speed
12 9 8 9 9 7 4 7 15 18 20 19 20 21 22 21 22 23 22 22 19 20 22 25 30 32 35 39 40 38 39 40 44 45 41 40 42 43 47 51 52 50 49
17 14 11 8 9 9 9 9 12 13 14 14 13 12 12 16 17 19 22 24 22 21 21 20 20 27 32 34 36 38 40 40 45 45 45 46 47 45 46 48 48 51 53
19 17 12 10 13 13 12 12 14 15 15 16 16 16 16 17 18 21 23 24 24 25 26 24 23 28 27 30 32 35 37 39 42 45 42 42 43 44 47 49 49 51 54
19 18 16 14 11 10 13 14 14 15 17 18 18 18 19 20 22 24 26 26 26 28 29 29 30 31 31 33 36 37 38 41 43 46 47 45 45 44 48 48 49 51 53
21 20 18 17 16 15 14 16 18 19 19 19 20 22 24 25 28 30 31 31 32 33 33 34 34 35 35 36 39 38 41 44 46 48 51 51 50 49 50 51 54 52 55
25 23 21 21 21 21 21 20 20 20 22 23 24 24 24 25 27 29 30 31 32 32 32 34 37 39 38 39 40 42 44 48 50 52 55 57 57 55 53 55 55 56 57
27 26 27 27 26 25 27 26 25 26 27 28 29 30 30 32 32 32 33 35 36 36 34 35 36 37 39 41 41 44 46 47 49 51 52 55 56 60 60 59 59 59 59
21 20 21 22 22 27 30 29 29 29 31 33 33 36 37 38 37 39 39 41 42 41 41 42 44 44 46 47 49 50 50 54 53 56 58 58 59 58 60 61 62 62 62
21 21 22 24 25 27 29 32 32 34 36 37 36 39 42 43 43 43 46 47 48 47 48 50 52 50 51 49 54 58 57 57 58 62 62 65 69 69 68 70 71 72 71
27 28 29 31 33 36 36 37 38 39 42 43 44 46 48 45 46 49 51 50 55 53 52 59 55 59 58 55 58 61 66 67 68 74 63 67 75 79 78 81 81 78 84
35 32 34 35 37 36 39 42 45 49 52 50 53 51 49 47 51 54 55 59 57 60 62 63 61 62 60 61 57 65 60 68 70 66 67 82 76 81 80 74 82 85 80
40 36 37 37 37 36 35 36 38 40 43 45 43 45 46 47 48 51 54 56 58 60 61 63 65 66 67 68 69 70 70 75 71 71 68 78 72 83 72 70 70 77 74
37 37 37 37 36 35 35 36 37 39 39 42 45 47 49 52 54 56 57 58 58 58 59 59 61 64 67 69 70 71 72 70 73 78 81 82 81 85 89 87 85 83 86
38 37 37 38 38 39 40 40 41 43 45 48 50 52 53 55 56 55 56 56 57 58 60 61 63 64 66 67 69 70 71 73 74 75 75 76 77 76 77 78 77 76 78
38 37 38 41 45 47 49 50 50 51 52 54 55 54 53 52 53 56 57 60 62 64 65 66 67 69 70 72 74 75 77 79 79 80 80 79 78 76 73 71 69 69 68
39 40 43 45 46 48 51 52 53 52 53 54 56 57 58 60 62 64 66 67 67 69 71 74 76 78 80 81 83 83 84 84 83 82 81 80 75 71 68 68 68 67 68
41 42 44 46 46 47 49 50 50 52 54 56 57 60 62 64 65 67 70 73 75 78 80 81 82 81 80 77 74 71 68 66 67 63 62 62 63 64 65 65 66 65 66
42 43 45 47 48 50 52 53 54 55 57 59 61 63 67 69 71 73 75 77 76 74 71 67 62 60 58 57 56 59 57 58 60 61 61 63 65 66 67 67 67 67 67
45 47 49 51 53 54 56 58 60 61 63 65 67 69 71 72 72 70 69 65 61 59 56 55 55 57 58 60 62 63 63 62 60 61 63 65 66 68 70 70 69 68 67
49 51 53 54 56 59 60 62 64 66 68 69 70 69 68 65 62 60 61 63 64 63 63 63 63 63 64 64 65 66 67 65 64 64 65 65 66 67 67 67 67 67 68
54 55 57 59 61 64 65 65 65 66 66 65 65 65 65 64 64 64 66 66 67 69 70 71 70 70 70 70 69 68 68 67 66 66 65 66 67 67 67 67 68 70 71
60 61 62 63 63 60 59 61 64 65 65 65 65 64 63 63 64 67 69 69 70 71 70 70 71 71 72 71 70 70 69 69 68 68 68 68 69 69 70 71 72 73 73
59 59 59 60 61 63 64 66 65 64 64 64 63 64 65 66 68 70 71 72 72 71 71 71 71 71 70 70 70 71 71 73 72 72 72 73 73 74 73 72 69 65 62
62 63 63 64 64 64 64 64 65 66 66 67 68 68 69 70 71 71 71 71 71 71 71 70 71 71 72 72 72 74 74 75 75 74 71 69 66 63 60 57 55 53 51
64 65 65 66 67 68 69 70 71 72 72 72 72 73 73 73 73 73 73 73 73 73 73 73 72 71 71 70 70 68 65 62 60 57 56 56 55 56 55 54 53 52 51
69 70 71 71 72 72 72 72 72 72 72 73 72 72 72 71 70 69 68 66 65 64 64 62 60 57 54 53 52 52 53 55 56 58 59 59 59 59 58 57 56 54 51

GFSGL_500_spd_087.txt.gz
Wind_Speed
14 12 9 9 10 7 5 4 11 13 17 18 16 15 14 17 20 19 19 20 18 20 21 23 22 24 30 34 32 33 31 34 39 36 39 38 41 44 45 45 43 44 44
17 13 9 7 7 7 4 2 5 9 10 12 13 12 14 17 20 20 21 23 23 21 23 22 20 22 21 21 26 29 32 33 37 38 36 39 42 42 42 45 50 49 48
18 15 11 8 7 7 6 4 6 7 8 9 10 11 12 11 12 17 19 20 21 22 22 24 24 26 24 26 26 29 31 34 37 40 37 38 40 41 42 44 43 46 48
19 16 14 12 9 7 8 8 7 8 11 11 12 13 14 15 17 19 21 23 24 25 25 25 26 28 28 30 32 32 34 37 38 40 40 39 41 40 45 45 47 48 48
21 19 17 16 14 12 11 10 11 11 11 12 13 15 16 19 21 22 23 24 25 26 28 29 30 32 34 36 37 36 39 40 41 43 46 46 44 44 45 47 50 49 51
23 21 20 20 20 18 17 16 16 16 18 19 20 20 20 22 22 22 23 24 26 27 29 31 33 35 34 35 37 39 41 42 43 45 46 47 46 47 47 47 48 51 52
27 26 26 24 23 22 21 20 20 21 23 24 24 25 26 24 24 26 26 27 30 30 32 33 34 35 36 36 37 39 40 43 48 49 50 51 50 52 52 54 54 55 55
31 30 25 23 19 19 19 21 23 23 24 25 27 27 27 28 29 31 33 34 36 37 36 37 38 39 41 41 42 43 48 50 50 51 54 58 59 60 63 63 63 64 62
31 25 23 23 23 20 20 21 23 24 24 28 30 32 34 35 35 36 37 39 42 44 46 47 48 48 49 49 51 54 56 56 57 57 63 66 63 68 69 67 68 71 71
26 22 22 23 23 21 20 21 26 30 33 33 34 35 36 38 40 42 42 50 50 51 48 51 48 51 53 56 56 57 53 62 61 63 67 71 70 69 64 70 77 75 75
29 28 27 26 26 28 29 27 28 31 34 39 42 43 44 47 51 50 48 46 48 51 53 55 58 59 58 60 61 63 64 61 64 72 71 73 77 79 80 78 77 81 83
34 38 36 32 34 35 35 34 34 35 37 39 41 46 44 43 42 40 40 42 45 48 50 53 56 59 61 63 64 63 61 62 64 66 69 72 75 75 75 77 78 81 81
43 44 37 44 39 42 39 38 39 38 38 38 39 40 41 42 42 45 47 48 50 54 56 58 59 60 61 62 63 65 66 68 70 72 74 76 77 78 79 81 82 83 83
48 47 43 45 47 42 40 40 40 41 43 43 43 43 45 46 49 52 53 54 55 56 57 58 60 62 64 66 68 69 71 73 74 76 78 80 82 84 86 87 88 89 89
36 38 38 42 43 41 41 43 45 48 49 50 50 51 52 53 56 57 57 57 57 59 60 62 64 66 68 69 71 73 75 77 79 81 83 84 85 86 86 85 83 83 81
42 42 42 42 43 43 45 47 49 51 52 52 52 54 56 56 56 57 57 59 60 62 63 65 67 69 72 74 75 76 77 76 74 72 69 65 61 59 59 60 59 60 60
33 35 38 40 43 44 47 48 50 51 53 53 52 52 53 54 56 57 59 61 64 66 68 71 72 73 74 75 73 70 67 63 62 60 59 61 62 62 63 63 63 63 63
32 34 36 39 42 44 47 48 49 50 52 53 54 56 58 59 61 63 65 67 69 71 73 74 74 73 71 69 67 66 65 64 65 65 66 66 66 66 67 69 69 69 69
36 38 40 43 46 48 50 52 55 56 57 58 59 61 63 64 66 67 70 72 73 74 75 74 73 70 68 67 68 70 70 71 71 71 71 72 73 72 71 71 72 72 71
44 45 47 49 50 52 54 57 58 59 60 61 64 66 68 69 69 70 71 72 71 71 71 71 70 70 71 71 71 72 73 72 72 72 72 73 74 74 74 73 73 72 72
48 50 52 54 55 57 59 61 62 63 65 67 69 69 69 69 68 69 69 68 67 66 65 66 67 68 69 71 72 73 73 72 72 72 74 73 73 73 74 74 74 74 73
53 55 56 57 59 60 61 62 63 64 65 66 66 66 67 68 69 69 68 68 68 68 69 69 70 71 71 72 72 72 73 73 73 73 73 74 74 74 74 74 74 74 72
56 56 57 59 60 61 62 63 64 65 65 66 67 67 68 69 69 70 71 72 72 73 74 74 74 74 74 75 75 76 75 75 75 75 75 74 74 73 72 70 66 63 60
59 60 61 63 64 65 66 66 67 68 69 70 70 71 72 73 74 75 75 76 75 75 75 75 75 75 75 74 73 71 70 69 69 67 64 61 59 57 56 55 55 55 55
63 65 66 67 68 69 70 71 72 73 74 74 75 75 75 76 76 76 76 75 74 72 71 70 68 66 64 63 62 60 58 56 54 53 53 54 56 57 58 59 60 60 60
72 73 73 73 73 73 73 73 73 73 73 73 73 73 73 72 72 70 69 67 65 63 61 59 57 55 53 50 48 46 46 48 51 54 58 60 62 63 63 64 63 63 61

GFSGL_500_spd_090.txt.gz
Wind_Speed
19 18 17 12 11 8 6 6 8 8 16 14 26 30 20 25 25 31 32 33 28 31 28 25 22 23 25 25 26 27 32 35 36 32 34 34 35 35 33 36 39 40 42
20 19 17 11 8 6 4 1 3 10 13 10 20 27 22 25 26 24 24 21 23 23 22 22 21 20 23 25 25 25 24 26 31 32 30 31 32 32 33 35 38 39 40
22 21 18 13 9 6 5 4 6 7 8 10 11 12 14 14 15 19 19 21 21 22 21 19 20 21 24 26 27 24 25 27 30 32 29 31 32 34 35 37 37 40 42
24 23 19 15 12 8 9 7 6 7 8 9 10 11 12 13 13 14 16 18 19 18 18 19 20 23 24 25 26 27 29 32 34 38 37 34 35 33 39 40 43 44 45
25 24 20 19 17 13 10 9 10 10 10 11 12 13 14 14 14 13 13 15 17 18 20 23 24 26 27 29 31 31 33 34 37 38 41 40 38 38 40 42 43 43 43
27 25 24 24 21 18 17 16 14 14 14 14 14 13 14 12 14 15 16 17 19 20 22 24 25 26 27 29 30 30 32 34 36 37 37 38 37 39 41 44 46 46 49
30 31 29 27 25 23 21 19 18 18 19 19 19 19 18 18 19 20 20 21 23 25 24 25 26 27 29 31 32 33 35 39 42 44 45 44 45 48 50 53 53 58 56
34 34 33 31 29 27 25 22 23 23 22 21 23 23 23 24 25 24 25 27 28 29 30 31 33 35 36 37 39 42 44 46 47 50 51 53 56 57 57 59 63 61 70
36 36 35 35 33 29 25 22 21 22 22 24 25 25 25 24 26 28 31 33 33 36 37 39 40 43 45 42 40 42 46 53 54 53 53 55 58 57 55 61 65 61 70
31 31 34 38 37 30 28 25 23 22 23 25 26 26 28 28 29 31 34 37 39 41 43 47 47 47 46 47 52 55 57 58 60 64 64 63 66 64 66 69 68 73 77
37 42 33 30 33 34 33 30 27 25 26 26 27 30 32 35 39 36 43 45 45 49 48 48 44 41 41 43 46 49 52 55 58 60 62 65 68 69 70 70 72 75 77
38 38 38 38 35 34 33 33 31 32 32 32 33 35 37 40 43 44 46 48 46 44 44 44 45 47 49 50 53 55 58 59 62 64 66 68 71 72 73 75 76 78 80
53 54 48 44 43 40 36 37 38 39 40 39 38 39 41 42 43 45 45 46 46 47 47 49 51 54 57 58 59 60 62 64 65 67 69 72 73 75 77 78 81 82 83
51 59 59 60 51 48 39 41 47 53 44 42 44 44 44 45 46 48 49 51 52 53 54 56 58 60 62 63 64 65 66 67 69 71 73 76 78 80 82 83 84 85 84
57 54 59 54 57 55 53 48 51 55 48 45 47 47 49 51 53 54 56 58 60 60 61 64 64 65 68 68 68 69 71 73 75 77 78 79 79 81 82 81 79 76 74
47 49 50 51 52 48 48 46 45 48 50 49 50 53 54 56 57 59 61 63 64 66 67 69 70 70 70 71 73 74 75 76 77 78 80 81 80 80 78 75 72 71 71
44 45 43 44 46 47 43 43 47 49 48 50 51 53 55 57 60 62 64 65 67 69 69 70 70 71 72 75 76 76 77 78 80 81 80 78 75 74 74 74 75 75 77
30 32 33 35 35 36 35 37 41 43 46 50 53 55 57 59 60 62 64 66 67 69 70 72 73 73 75 77 78 79 80 80 80 79 78 77 77 77 77 77 78 78 77
26 27 30 32 34 36 38 41 43 47 49 51 54 56 58 60 62 64 66 68 70 71 73 75 76 78 79 78 80 81 80 79 77 74 73 74 76 77 78 79 79 79 79
36 37 39 40 42 44 46 49 51 53 55 57 59 60 62 64 66 68 70 72 74 76 77 79 80 79 79 78 78 77 75 76 76 76 75 77 78 79 80 80 80 79 79
43 44 46 48 49 51 53 54 56 58 60 62 63 66 68 69 71 73 75 77 78 78 79 79 78 78 78 78 77 76 77 77 78 79 80 81 81 81 81 81 80 79 78
50 52 53 55 57 58 60 61 63 65 66 68 69 71 71 72 73 74 75 75 76 77 77 77 77 77 77 77 78 79 80 80 80 81 81 80 79 78 76 75 74 72 70
59 60 61 62 62 63 64 65 65 66 67 68 69 70 71 73 73 74 75 75 76 76 77 77 78 79 79 79 80 80 80 79 78 76 74 72 70 69 68 65 63 60 58
59 60 61 62 62 63 64 65 67 68 69 70 72 73 75 75 76 77 78 79 80 80 80 80 80 80 79 79 77 76 73 70 68 66 64 62 59 56 54 53 54 57 59
66 68 69 70 71 72 74 75 76 77 78 79 80 80 81 81 81 81 81 81 80 79 78 78 76 75 73 71 68 65 63 60 57 54 52 50 50 51 54 57 59 62 63
70 71 72 72 74 75 75 76 76 76 76 76 76 76 76 75 76 76 76 75 74 73 71 69 67 64 61 58 55 52 50 48 46 45 45 48 51 55 57 59 60 61 62

GFSGL_500_spd_093.txt.gz
Wind_Speed
18 21 21 19 16 17 19 18 18 17 16 16 24 24 32 37 39 44 40 36 34 35 32 29 29 30 31 29 28 24 23 22 23 28 31 33 33 30 30 31 29 30 30
20 21 20 19 15 15 17 14 13 12 11 11 13 25 22 24 28 37 42 36 30 28 34 34 33 30 26 25 22 19 21 25 25 23 25 25 26 25 26 28 29 31 33
22 21 21 20 16 15 13 10 8 7 7 7 14 21 23 19 25 22 29 32 25 27 27 26 21 20 20 19 24 23 23 25 25 27 22 26 28 27 31 31 32 34 35
24 22 21 21 19 17 15 13 11 7 8 9 10 11 15 14 18 17 17 18 23 20 18 19 21 21 22 23 22 22 24 25 28 32 32 29 33 32 36 36 38 38 36
26 24 23 22 21 21 17 15 15 14 12 11 12 13 14 18 17 16 16 25 20 21 20 20 20 21 22 23 24 26 28 30 30 30 29 29 26 28 30 33 34 36 39
24 24 24 24 24 24 21 17 15 16 16 15 16 16 14 14 16 17 18 20 22 23 24 25 25 26 26 26 25 26 29 28 28 30 32 33 35 36 37 39 40 42 42
23 24 28 29 27 28 25 22 19 18 16 17 17 16 17 18 18 20 22 24 26 24 23 22 23 23 23 25 27 29 30 32 33 34 36 39 41 44 46 47 44 49 54
32 29 31 34 32 31 30 27 25 23 22 21 20 19 20 21 22 22 23 23 23 23 24 25 26 28 29 31 34 35 36 38 40 41 41 42 44 52 49 53 54 55 62
36 33 34 36 37 35 35 33 31 29 28 27 26 25 25 26 26 27 28 27 27 27 28 30 32 34 35 35 37 40 41 40 45 42 52 54 52 57 56 60 62 66 71
35 35 36 35 40 40 40 39 37 34 34 33 32 31 31 29 29 29 29 28 29 30 32 34 36 38 39 41 46 48 50 50 48 50 51 51 52 53 56 59 62 65 68
36 36 33 36 37 41 46 44 43 39 37 35 34 32 30 30 31 31 35 35 34 37 38 39 41 35 50 47 46 45 48 48 48 50 51 53 56 58 60 63 65 68 70
40 41 38 43 38 40 42 35 42 44 41 38 36 32 30 30 35 35 36 37 38 42 46 49 52 54 52 49 49 53 52 52 54 56 59 61 62 65 67 69 72 74 76
45 52 46 45 45 46 59 45 44 47 48 47 42 41 39 40 40 41 42 42 44 46 48 49 50 51 52 53 53 55 58 60 62 65 67 69 70 72 73 74 75 77 80
70 67 59 61 65 47 56 51 47 57 54 52 49 46 47 50 48 46 46 47 47 47 49 51 52 54 56 58 60 64 67 68 70 71 72 74 75 77 78 79 80 82 84
53 63 64 60 59 52 59 55 59 58 59 57 54 55 61 61 56 52 50 51 51 52 54 56 58 59 62 64 66 68 70 72 75 77 79 80 81 81 83 84 85 86 87
47 42 42 51 56 65 64 65 67 67 69 71 70 67 60 58 56 54 53 54 55 56 58 61 63 65 67 69 70 73 75 76 79 80 81 82 84 85 85 87 89 89 90
38 41 42 41 44 51 52 55 58 58 60 66 73 70 59 56 54 52 54 56 56 58 61 64 66 69 72 73 74 75 77 77 79 80 82 84 86 88 89 90 90 89 87
31 33 35 35 38 44 48 49 52 51 50 50 50 49 50 51 52 50 52 54 57 61 64 66 68 70 70 72 74 75 77 79 81 83 86 88 89 90 90 89 87 85 84
24 25 26 27 29 32 33 33 35 35 36 39 41 43 45 47 49 51 55 59 61 63 65 67 70 72 73 75 77 79 81 83 85 87 88 89 89 87 86 86 86 85 86
32 33 34 35 37 39 39 40 41 43 45 46 48 50 52 55 57 60 62 64 66 69 70 72 74 76 78 80 82 84 86 86 87 87 87 88 88 88 88 88 89 89 89
39 40 41 42 44 45 46 48 49 50 52 54 56 58 60 61 63 65 67 69 72 74 75 78 80 82 83 84 84 85 85 86 87 87 88 89 89 90 91 91 90 89 87
48 49 50 51 52 53 55 56 57 59 60 62 63 65 67 68 70 72 73 75 77 78 79 80 81 82 82 83 84 85 86 88 89 90 91 91 91 89 87 85 82 80 77
53 55 56 57 58 59 60 61 62 63 65 66 66 67 68 69 71 72 74 75 76 78 79 81 82 83 84 86 87 88 89 89 89 89 88 85 83 79 76 74 71 68 64
60 60 61 61 62 63 64 65 66 68 69 70 72 73 75 77 78 80 81 82 83 84 85 85 85 85 86 86 86 86 85 84 83 81 77 74 70 66 63 60 56 52 52
68 68 68 68 68 69 70 72 73 74 75 76 77 79 79 80 80 80 81 82 82 83 82 82 82 82 81 81 81 80 77 75 72 66 62 58 56 53 50 48 48 50 54
71 72 72 73 73 74 74 75 76 77 77 77 76 76 76 76 76 77 77 76 76 76 76 75 74 73 71 70 67 65 62 59 55 52 49 47 45 44 44 46 49 53 55

GFSGL_500_spd_096.txt.gz
Wind_Speed
25 26 18 17 18 19 21 24 25 26 27 29 25 24 25 28 28 32 40 35 30 45 48 40 35 35 28 30 30 30 32 32 28 25 24 21 23 25 29 31 31 31 31
28 24 17 19 20 20 19 23 22 23 24 21 25 24 30 29 33 37 37 36 37 47 44 45 35 28 27 30 29 30 30 29 20 18 21 21 20 22 23 26 27 27 27
28 28 21 21 21 20 19 21 18 18 18 15 14 11 19 22 30 38 35 37 41 38 33 28 30 33 30 31 33 29 24 22 22 23 19 22 21 22 26 26 27 29 30
32 32 23 22 21 22 20 21 18 16 14 11 8 10 15 16 18 27 32 36 34 29 23 28 28 28 31 27 24 25 26 26 26 24 20 24 24 27 30 30 31 33 33
36 31 24 23 22 22 22 22 17 18 13 11 10 8 10 20 18 24 24 24 33 32 26 26 24 23 22 25 26 27 28 28 27 27 24 28 28 28 30 30 31 30 33
32 31 24 24 22 22 23 23 19 17 15 14 10 12 14 18 15 18 21 22 23 23 26 29 27 26 24 25 27 28 26 27 29 32 31 30 30 30 30 32 34 34 37
40 28 24 23 24 26 26 24 21 20 16 15 16 17 18 20 21 22 23 26 31 28 26 25 25 25 27 28 29 29 30 30 31 33 34 35 35 36 38 39 40 39 42
34 30 26 26 27 28 28 26 24 24 23 21 19 20 21 22 24 24 24 25 26 27 28 28 27 27 27 29 29 30 31 32 34 36 38 39 40 43 41 41 40 43 46
38 35 32 32 32 30 32 31 29 29 29 27 26 25 25 25 25 26 26 25 26 27 27 28 29 29 30 30 32 35 36 35 36 38 41 44 47 46 51 55 58 59 56
39 38 36 39 36 34 34 35 35 35 35 34 32 31 30 31 31 32 31 31 31 31 31 30 30 31 34 34 36 38 42 41 39 39 44 40 43 45 52 52 53 54 56
40 43 42 43 37 36 36 38 41 40 40 40 39 38 38 38 39 38 37 37 36 33 34 36 35 37 36 34 43 44 40 37 42 50 56 51 50 53 54 55 57 59 62
41 46 50 45 42 41 39 35 37 31 42 46 46 43 43 43 41 40 40 39 39 37 41 43 45 44 39 44 47 50 53 55 54 52 54 57 59 58 60 62 65 67 69
42 54 59 51 49 44 42 43 45 38 34 40 43 43 43 42 48 38 42 46 43 41 52 51 48 48 49 51 55 57 55 54 55 55 56 58 60 63 66 68 69 72 75
44 48 55 57 57 54 49 50 55 47 44 58 51 47 49 58 54 53 48 52 55 55 58 56 54 52 52 53 55 55 55 56 56 58 61 64 66 68 71 73 75 77 79
44 50 59 60 67 66 62 59 63 57 55 64 65 62 54 61 59 52 55 59 60 62 64 62 60 58 57 57 57 58 59 59 62 64 66 68 71 73 75 76 79 81 83
28 35 34 39 47 47 54 57 57 60 64 66 69 69 66 66 69 69 69 70 69 71 72 72 69 66 62 61 61 61 63 64 66 69 71 74 76 77 79 80 82 84 86
28 30 33 34 37 42 43 41 48 47 48 56 60 67 75 78 79 76 76 78 78 80 82 82 77 72 65 63 63 63 64 66 69 72 75 77 78 79 81 83 86 89 92
21 24 30 32 35 38 40 43 45 47 50 54 54 53 56 57 61 62 65 70 75 69 64 61 62 65 64 61 58 61 64 68 71 75 77 80 82 84 86 89 91 94 95
25 24 24 25 23 25 27 29 32 33 35 38 44 40 41 43 46 47 50 53 53 53 53 53 54 56 57 61 63 67 70 74 76 79 82 85 87 89 92 93 94 94 95
32 31 32 33 34 34 35 36 37 38 39 40 41 42 44 45 46 47 48 51 52 54 56 58 61 63 66 69 72 75 77 80 83 85 88 90 92 92 93 93 94 95 96
41 42 42 42 42 43 44 45 46 46 48 48 49 50 51 53 53 55 57 58 61 63 65 67 70 72 75 77 79 81 83 85 88 89 90 91 92 92 94 96 97 99 100
48 49 51 52 52 53 53 54 55 56 57 58 59 60 61 62 63 65 67 68 70 71 73 75 77 79 80 81 82 83 85 86 88 90 92 94 95 97 98 98 97 96 92
55 56 56 56 57 58 59 59 59 60 61 63 63 64 65 66 67 68 69 70 72 73 74 76 77 79 81 84 85 88 90 92 93 95 95 94 93 92 91 90 87 82 78
62 63 64 65 66 67 67 68 69 70 70 70 71 72 73 74 75 76 78 78 79 80 82 83 84 86 87 88 89 90 90 90 90 89 87 85 84 82 77 71 65 62 58
66 67 68 68 69 70 71 72 73 74 75 76 77 77 78 79 81 81 81 82 83 83 82 83 83 83 83 83 82 81 81 81 78 75 72 68 65 61 57 54 51 47 45
62 63 63 63 64 65 65 66 67 68 69 70 70 71 72 73 73 73 73 74 74 74 74 74 74 74 72 70 67 65 62 60 58 57 55 53 50 48 45 43 41 41 42

GFSGL_500_spd_099.txt.gz
Wind_Speed
28 27 25 26 26 26 24 22 21 23 26 28 29 30 30 27 30 30 34 38 40 37 44 39 43 43 41 42 40 38 34 31 31 31 30 28 31 31 28 26 25 26 28
24 23 26 28 25 24 21 22 22 23 25 27 27 26 24 28 24 27 34 35 40 42 40 37 42 42 44 41 38 33 30 32 30 29 29 25 26 27 27 26 26 28 29
23 23 28 26 23 21 23 22 23 22 23 24 23 19 27 22 26 28 25 29 42 37 35 39 47 46 43 37 33 27 33 31 30 31 27 26 26 28 27 25 25 25 29
27 28 30 25 26 24 23 22 24 21 22 22 20 20 14 17 27 29 28 34 39 42 36 40 46 40 39 33 33 30 32 35 32 28 27 28 27 29 28 27 28 32 33
32 32 32 29 29 26 22 22 24 21 19 21 18 19 10 11 15 22 28 36 41 37 33 43 38 31 30 34 37 37 36 31 30 28 26 28 29 32 31 31 31 34 32
34 35 34 33 33 30 22 23 23 21 18 17 17 14 15 9 9 18 22 31 33 28 37 34 28 30 31 30 32 32 30 31 29 30 31 30 32 33 34 33 34 33 35
38 38 36 35 34 29 23 25 24 22 20 17 17 17 16 15 15 13 17 24 28 31 31 34 32 32 30 27 30 31 32 33 33 33 33 34 35 33 33 35 35 38 40
40 39 39 40 39 33 30 28 26 23 23 21 19 19 19 18 19 19 20 22 24 27 27 33 34 39 33 34 34 33 33 35 37 37 35 34 34 35 37 38 41 43 45
42 43 41 38 37 38 32 29 30 27 25 25 23 22 22 22 23 23 24 25 27 34 30 35 34 34 34 35 36 37 36 36 36 36 37 39 39 39 41 40 45 50 51
44 44 46 45 35 39 32 36 32 31 30 29 28 27 27 27 27 28 29 30 31 33 34 34 36 37 37 38 37 37 39 39 39 41 41 43 43 41 48 44 46 49 56
39 43 37 41 38 43 37 40 36 35 34 34 35 34 33 33 32 33 34 35 36 37 37 38 39 39 39 41 43 43 41 44 41 42 45 44 43 48 50 51 58 61 58
41 44 43 42 51 48 42 46 46 42 40 39 39 40 40 39 40 40 39 41 42 43 43 42 44 43 41 44 45 45 43 45 49 48 50 52 57 57 62 64 60 61 62
45 53 48 48 49 48 49 45 54 49 46 45 38 41 35 42 45 45 46 46 47 46 46 47 46 44 45 52 48 51 54 57 57 54 57 62 65 66 66 64 63 64 64
29 46 57 49 48 58 55 56 60 53 52 50 49 46 51 46 45 49 50 53 54 56 50 53 53 54 58 58 60 60 60 62 63 64 66 70 71 70 68 67 67 68 68
18 18 21 35 52 54 56 61 56 60 60 60 60 59 60 54 52 53 63 57 60 55 58 55 65 67 59 63 64 65 66 69 69 70 71 71 71 73 73 73 73 73 74
21 22 24 23 25 27 35 42 44 51 60 61 63 61 64 69 61 59 71 68 65 73 74 67 71 70 72 75 76 74 73 76 75 75 76 77 77 76 75 76 76 75 76
16 21 24 26 27 27 31 33 41 39 38 35 40 42 54 57 64 64 69 70 68 76 79 70 75 77 79 81 82 83 83 84 83 83 83 79 75 76 75 72 72 74 77
17 15 17 21 22 23 26 31 34 37 40 44 45 47 50 51 52 54 59 61 59 61 64 67 70 71 73 73 74 75 75 74 75 75 75 75 74 72 71 72 76 81 84
26 26 27 28 29 28 28 27 28 30 33 37 37 39 44 47 48 49 52 56 59 59 59 63 65 64 62 60 61 62 62 63 63 65 66 66 69 72 76 80 85 88 91
36 37 37 36 35 35 37 40 41 41 40 41 40 40 41 42 43 44 45 45 47 48 49 50 51 54 56 56 58 61 63 66 68 70 73 75 78 81 84 87 91 94 95
45 46 46 47 47 47 46 46 47 47 47 47 48 49 50 52 52 52 54 54 55 57 59 59 60 61 63 66 67 69 72 74 76 78 80 82 85 87 89 91 92 94 98
51 53 54 54 55 55 55 54 54 54 55 56 57 58 58 59 61 62 62 63 64 65 66 68 69 70 72 74 75 77 78 80 82 83 85 86 89 91 93 95 96 98 99
57 58 59 60 62 63 64 64 64 64 63 63 64 65 64 65 66 66 67 68 69 69 71 73 74 75 76 78 80 81 83 85 86 88 90 92 93 94 95 95 93 92 90
61 62 62 63 66 67 67 68 69 70 71 71 71 71 72 73 73 74 74 75 76 77 79 80 81 81 82 84 86 87 89 90 90 91 91 89 88 87 86 84 81 77 73
65 64 63 62 62 63 65 67 68 70 71 72 73 74 74 74 75 76 77 77 77 77 79 80 81 82 83 83 84 84 84 82 81 81 80 79 76 73 68 65 62 60 56
66 67 67 66 64 63 62 62 63 64 65 66 68 69 70 71 71 71 73 73 74 75 75 75 75 75 76 76 76 75 74 72 69 66 64 61 58 55 53 51 49 46 42

GFSGL_500_spd_105.txt.gz
Wind_Speed
41 40 38 39 38 35 35 36 36 36 35 39 36 36 39 36 37 36 38 41 42 40 33 33 35 34 36 37 41 39 42 42 38 35 36 40 40 40 39 40 40 37 37
38 36 32 36 35 35 36 34 32 34 36 37 36 38 39 33 34 36 38 39 40 37 36 37 35 35 37 39 37 41 45 42 43 37 38 39 41 40 40 41 39 39 40
38 35 32 35 29 33 32 30 33 33 36 36 39 38 33 34 34 36 35 37 38 35 37 41 39 35 41 40 39 45 45 47 42 42 39 38 42 40 38 43 46 42 42
35 28 31 29 30 30 31 32 34 33 34 36 41 32 34 35 35 36 35 37 39 41 44 41 42 43 45 39 43 43 43 41 46 43 42 38 37 38 39 41 42 43 42
25 30 31 30 29 30 31 32 31 33 37 40 32 34 35 35 34 33 35 41 41 32 33 36 37 39 46 46 42 42 41 42 45 46 42 35 35 38 42 43 42 44 45
22 29 29 31 31 31 31 32 31 36 37 30 33 35 35 34 33 33 32 39 27 28 28 33 39 40 38 45 38 45 43 45 45 43 38 34 39 37 41 45 45 45 47
29 23 26 33 34 34 33 32 28 32 31 34 34 37 35 35 32 31 28 34 24 31 33 30 35 40 39 40 39 41 45 46 43 41 40 40 41 41 44 48 48 47 47
31 32 35 37 36 36 36 34 34 32 28 30 36 38 36 35 32 32 24 28 18 26 30 28 31 36 35 39 42 44 47 47 43 41 42 45 48 47 43 43 46 45 42
29 32 34 38 37 38 38 37 38 36 34 32 30 39 38 36 33 33 24 25 24 17 20 25 28 31 34 37 39 36 40 45 41 44 40 40 40 42 44 41 42 44 45
28 31 35 37 38 37 37 37 38 38 39 34 36 40 37 39 37 35 30 26 25 23 23 20 26 29 33 40 39 39 43 45 41 45 45 46 48 48 41 44 47 48 49
27 31 35 36 38 38 38 40 46 40 40 41 39 35 41 41 39 38 35 31 31 29 28 26 28 28 26 37 39 43 46 49 45 45 42 47 41 41 42 47 49 49 50
26 29 33 37 40 40 41 40 41 49 44 43 44 37 39 40 41 42 41 40 37 35 35 35 33 32 32 33 37 35 32 38 42 44 44 44 43 47 49 50 46 52 54
25 25 28 33 36 41 41 42 49 54 44 43 45 48 43 45 46 47 45 44 42 42 40 41 42 41 41 41 41 41 40 41 44 47 48 50 51 53 53 55 57 61 63
24 24 25 26 29 37 43 48 51 54 51 58 63 55 50 49 51 53 50 54 50 47 44 45 46 47 48 48 47 47 48 48 50 51 53 54 56 61 62 64 66 66 68
22 25 27 26 26 28 29 28 38 47 53 58 53 55 54 59 55 58 59 56 53 54 52 52 52 51 49 51 54 56 56 58 59 59 60 64 65 67 70 72 73 74 76
16 16 19 23 26 27 27 27 29 31 30 34 41 48 52 53 53 54 60 64 67 63 62 60 59 61 60 61 61 61 60 61 62 66 66 65 72 71 73 77 79 83 83
21 22 25 24 24 25 24 24 24 27 28 31 35 37 39 41 48 58 64 67 66 66 69 68 68 67 67 66 69 71 72 72 72 74 77 80 77 78 83 84 88 89 88
27 28 29 31 32 33 34 36 36 35 34 32 32 34 35 38 43 44 46 47 50 55 60 64 67 70 72 71 71 74 78 78 81 81 80 79 79 79 82 85 86 86 85
30 33 36 38 40 41 43 43 45 45 45 44 44 42 41 41 40 40 39 44 47 51 54 56 58 60 62 65 67 69 70 70 71 71 72 73 73 73 75 77 81 80 80
38 42 43 43 42 43 44 47 50 52 52 52 52 52 52 52 51 51 51 50 49 49 52 51 49 49 50 51 54 57 60 62 64 65 65 65 67 69 69 69 71 74 73
48 49 48 49 51 53 53 54 55 55 56 58 58 59 60 59 59 59 59 59 59 59 60 60 59 58 57 58 58 60 61 63 65 67 67 67 69 72 72 73 74 74 74
55 55 55 58 58 57 57 58 59 60 60 62 63 64 64 63 63 65 66 67 67 67 67 67 66 66 66 66 67 68 68 68 70 70 70 71 72 73 74 75 76 77 79
59 60 62 63 63 64 66 67 67 67 68 68 68 69 70 70 69 69 69 70 71 73 74 75 74 74 74 73 73 74 74 75 75 75 76 76 77 78 79 80 81 82 84
66 67 68 70 71 71 71 71 70 69 68 68 69 68 69 70 71 71 71 72 72 73 74 76 77 77 78 78 79 79 80 79 80 80 80 80 81 81 82 84 83 83 83
70 73 74 72 70 69 68 68 68 68 67 65 62 61 61 62 63 65 67 69 71 71 70 71 72 73 74 75 76 77 77 77 77 77 77 78 78 78 78 78 78 78 78
74 73 70 69 69 69 68 66 63 61 59 56 54 51 49 51 53 55 58 61 64 66 68 68 68 68 69 69 70 70 70 71 71 71 71 72 72 71 71 69 67 65 62

GFSGL_500_spd_108.txt.gz
Wind_Speed
38 42 43 45 48 48 45 44 45 46 50 37 39 37 33 35 38 36 36 34 36 36 38 41 43 45 40 40 38 35 35 40 40 39 40 41 41 36 33 39 40 40 43
31 35 39 46 45 42 41 42 45 49 44 41 38 35 36 36 34 36 35 36 38 38 40 44 44 44 43 38 36 41 36 40 38 42 43 42 39 35 35 36 41 41 45
30 38 40 42 41 42 42 42 45 49 43 39 34 35 34 34 36 35 38 37 37 39 41 42 43 45 46 43 42 43 40 41 43 41 43 44 41 42 38 40 40 45 44
34 33 39 44 46 43 42 43 45 43 39 30 31 31 34 34 34 38 38 38 39 41 42 45 45 45 46 43 44 46 40 40 45 46 46 46 46 44 42 40 41 44 46
27 40 34 38 41 43 41 42 34 35 30 29 30 33 32 34 36 39 39 40 40 39 42 48 45 46 48 50 47 45 40 43 42 43 44 47 48 45 42 40 37 39 40
20 22 37 25 26 37 30 31 31 30 30 30 31 29 31 35 40 38 41 40 39 40 41 45 44 38 36 37 41 44 43 42 46 46 50 46 47 48 41 36 39 39 39
10 9 18 28 29 30 32 31 33 31 29 29 31 31 34 34 34 37 41 40 39 39 43 40 30 33 33 37 38 38 42 47 48 43 43 43 40 45 44 36 34 36 41
18 25 26 21 23 26 32 32 33 31 31 30 31 27 33 30 33 37 41 39 39 37 42 37 29 30 30 36 38 38 38 45 52 45 44 43 44 43 41 43 41 43 45
19 22 24 27 23 19 25 31 33 35 35 35 34 33 31 30 32 33 39 40 38 36 36 36 23 24 31 36 36 42 39 39 40 42 45 45 46 48 46 42 46 49 49
19 21 23 26 31 31 26 30 35 36 38 40 39 39 38 37 39 35 38 41 39 38 32 37 38 22 20 32 33 36 35 39 38 42 48 51 50 50 47 46 48 46 49
17 19 20 24 28 32 35 37 37 39 37 41 42 43 41 42 40 40 42 41 40 39 37 33 30 32 27 21 24 33 36 40 37 39 44 46 48 49 51 50 48 47 50
19 20 20 23 24 27 31 35 38 39 39 41 44 44 44 49 53 43 41 41 44 43 42 38 35 35 32 32 33 30 33 39 42 41 45 46 48 47 49 50 48 50 48
19 20 22 22 23 23 27 31 36 40 41 41 43 44 44 48 50 50 46 42 46 45 46 45 42 38 38 40 37 38 39 39 40 42 35 36 40 42 44 47 46 44 46
17 17 19 22 24 25 27 27 31 35 39 43 45 47 47 49 49 45 51 50 49 50 50 50 48 45 44 44 44 46 46 44 44 45 43 44 45 44 46 48 52 53 55
14 15 16 20 23 25 27 29 29 31 32 35 41 50 55 56 55 58 58 56 58 57 61 59 55 55 53 54 53 50 50 52 50 52 51 49 50 52 53 55 55 58 59
17 18 19 20 20 21 23 24 26 28 31 34 37 37 38 40 45 49 54 56 58 56 58 58 60 61 63 57 58 58 58 59 57 57 59 61 61 61 63 62 63 66 69
23 25 27 28 28 29 30 30 30 32 32 33 34 35 36 37 36 37 40 41 46 53 54 54 55 60 65 65 63 65 66 67 66 65 66 68 67 68 69 70 71 73 73
27 29 31 32 34 35 37 38 39 40 40 41 42 43 43 43 43 43 42 40 42 46 47 49 53 56 58 59 63 68 68 70 71 71 69 70 72 71 71 73 75 77 77
35 35 36 38 39 40 40 41 43 44 44 44 45 46 48 50 51 52 51 51 50 49 47 46 48 52 54 57 58 59 60 61 62 62 65 66 67 70 72 73 74 75 76
39 41 44 47 48 48 49 51 51 51 51 53 53 53 53 53 55 56 58 58 58 59 58 57 56 56 55 55 54 54 56 58 61 61 61 62 63 65 68 69 70 72 72
46 48 50 52 53 55 57 58 59 59 59 60 60 61 61 61 61 61 61 64 65 65 65 65 65 65 65 62 64 63 63 63 62 61 61 60 61 62 63 64 66 68 69
52 54 57 58 60 63 65 67 67 68 68 69 70 71 71 70 70 69 69 69 69 70 72 72 71 71 71 71 70 70 70 70 69 69 69 69 70 72 72 73 74 74 74
56 59 62 64 67 70 73 74 75 78 79 80 79 78 77 76 75 74 74 74 74 75 75 75 76 77 76 75 75 76 76 76 76 76 75 75 75 75 75 76 77 78 78
61 64 68 72 75 77 79 81 81 81 80 79 79 78 76 74 73 72 71 70 70 72 74 76 76 77 77 78 78 78 78 78 78 79 80 80 79 80 81 81 81 81 81
68 72 76 79 82 84 84 81 78 75 72 70 68 66 66 64 62 61 61 60 60 62 64 67 69 71 72 74 74 75 76 76 76 76 77 77 77 77 77 77 76 75 75
76 80 84 85 83 78 72 67 62 59 56 54 53 52 51 51 51 50 49 49 50 52 54 56 58 60 62 65 67 68 70 70 71 71 71 72 72 72 71 71 71 71 70

GFSGL_500_spd_111.txt.gz
Wind_Speed
34 35 40 42 44 46 47 49 48 40 37 38 40 43 39 43 40 40 39 39 37 34 34 35 34 36 38 38 38 40 43 41 40 38 37 40 40 42 45 40 39 36 36
35 40 42 43 48 51 50 49 43 39 39 38 41 43 47 48 43 40 41 37 34 34 34 35 36 37 36 39 43 43 43 40 41 40 40 39 42 44 45 44 41 37 35
32 34 38 41 46 49 51 50 45 44 42 42 42 46 51 49 44 40 39 36 35 35 33 37 35 38 40 42 42 41 42 41 41 43 41 46 45 43 46 46 44 40 37
31 29 36 41 47 47 48 46 47 45 43 43 45 48 50 50 44 40 39 37 35 33 34 34 37 40 43 44 43 42 42 45 45 50 46 45 49 44 46 47 45 42 43
18 22 23 31 38 41 44 45 42 40 41 42 45 48 47 42 40 39 38 36 34 35 33 36 39 41 46 46 46 46 45 45 47 47 51 48 49 47 45 44 47 45 47
17 24 33 26 25 34 38 42 47 44 43 42 44 44 41 33 36 34 33 32 33 32 35 39 42 42 46 45 46 42 45 45 48 46 53 46 45 48 49 47 46 50 50
9 5 23 32 29 28 31 36 42 40 45 42 47 32 28 32 31 31 29 29 31 35 38 41 42 42 45 44 40 33 39 38 44 47 52 49 50 52 46 47 45 48 51
10 12 24 15 27 36 35 33 32 28 26 27 24 27 28 29 29 30 32 33 33 35 39 41 40 40 43 41 37 40 35 39 40 36 50 47 54 51 48 50 47 47 48
8 8 9 6 16 22 18 19 26 24 32 30 26 29 29 30 29 29 31 32 35 38 37 38 41 39 40 39 33 30 34 40 42 42 43 49 53 49 48 48 48 46 44
9 12 11 12 14 15 15 15 16 24 28 27 32 34 36 38 36 37 37 39 40 39 35 32 40 39 38 42 36 31 34 37 38 42 42 41 44 46 50 52 48 47 44
11 13 12 13 16 18 23 24 29 29 21 31 30 34 39 40 42 45 45 46 44 43 43 42 40 39 39 38 40 37 23 25 32 40 44 44 45 46 45 45 48 51 50
9 12 14 15 17 20 23 26 31 34 37 38 41 45 40 41 44 43 47 46 43 43 44 44 43 42 40 40 40 39 40 37 29 26 31 33 36 39 46 47 48 53 54
10 11 12 14 15 16 20 24 26 31 35 39 42 46 46 47 51 46 45 44 46 46 45 47 45 47 46 44 42 41 41 40 38 36 37 35 49 51 53 58 53 57 57
10 10 11 13 14 16 17 18 21 23 26 29 35 39 43 43 47 50 49 48 44 45 45 49 49 47 46 47 49 49 45 46 45 45 45 45 43 46 44 47 46 52 52
12 12 14 15 15 17 18 19 20 21 23 26 30 33 35 38 39 43 50 53 53 56 54 54 55 55 55 56 54 55 57 53 50 51 51 51 53 51 48 48 49 46 47
17 19 21 23 24 25 26 27 28 28 28 29 30 31 32 34 36 38 39 41 44 51 57 62 62 61 61 60 61 62 63 60 64 59 58 54 53 53 53 55 51 53 53
22 24 25 27 29 32 34 35 36 37 37 38 38 39 40 41 41 41 41 41 41 43 46 49 49 53 57 62 63 60 59 61 58 58 57 56 57 59 57 58 59 61 63
27 29 31 33 34 37 39 41 43 44 45 45 45 46 45 45 46 47 47 48 48 48 47 47 47 48 51 54 58 59 66 67 65 64 66 65 65 65 67 68 69 69 71
35 36 37 39 41 43 46 48 49 49 50 50 50 51 53 54 54 53 54 54 53 53 53 53 54 53 54 54 54 53 56 61 63 63 62 61 63 66 67 67 67 68 69
40 41 44 46 48 52 55 58 60 62 63 63 63 64 64 64 62 61 61 61 60 60 61 60 59 60 60 61 62 62 61 60 59 58 60 61 62 63 65 66 67 69 69
45 47 49 52 54 57 60 63 66 68 70 72 73 74 74 74 73 72 70 69 69 69 69 68 68 67 66 66 68 68 67 67 67 67 66 65 64 63 62 62 64 66 67
51 53 55 58 61 63 67 70 73 74 76 78 80 81 81 82 81 81 81 81 81 80 79 77 76 76 74 74 73 73 73 74 74 73 73 72 71 70 69 69 71 71 71
58 60 62 64 67 71 75 77 80 82 83 85 87 88 89 89 89 88 87 87 87 86 85 84 82 80 80 79 79 79 79 78 78 78 77 76 75 75 76 76 76 75 75
66 67 69 71 74 78 81 84 88 91 92 89 84 81 78 76 74 74 73 74 74 76 77 78 78 77 77 78 78 78 79 80 79 78 77 77 77 77 77 77 77 77 78
72 73 75 78 82 86 92 92 85 76 68 62 58 57 56 55 55 55 55 55 56 57 58 59 61 63 64 66 68 69 70 72 72 72 73 74 74 74 74 74 74 75 75
78 79 83 87 92 91 80 69 61 55 53 52 52 51 49 48 47 47 46 46 46 47 47 48 49 50 52 54 56 58 60 61 62 63 65 66 67 67 68 68 68 69 69

GFSGL_500_spd_114.txt.gz
Wind_Speed
18 23 27 32 36 38 37 38 43 49 48 48 50 49 48 48 48 43 43 38 36 33 37 38 38 39 40 39 38 38 39 40 41 37 38 37 38 39 40 43 47 47 47
20 21 28 30 35 37 38 41 44 45 46 45 45 43 46 46 45 45 44 40 38 38 38 39 38 41 40 38 38 41 40 39 42 42 44 40 41 41 42 41 40 45 48
17 24 28 32 36 37 38 43 43 47 44 38 37 40 43 46 45 44 44 42 39 41 40 40 40 41 37 37 40 37 37 39 42 41 40 41 41 42 42 41 46 46 51
16 19 28 35 38 38 40 43 46 45 44 40 40 40 44 43 42 43 43 42 43 45 42 40 41 40 38 38 38 37 38 40 41 43 42 42 41 41 44 48 41 48 54
20 17 22 32 36 40 43 46 48 49 46 43 42 43 43 44 43 44 45 44 46 50 47 42 41 41 37 37 38 37 40 41 43 45 46 47 44 44 48 48 47 49 50
15 14 18 17 30 33 37 39 42 46 48 47 44 40 42 47 51 46 48 50 46 47 43 39 40 38 36 38 39 40 42 42 42 47 48 46 46 46 46 51 51 52 51
14 10 7 24 21 28 28 29 33 38 45 44 44 45 46 45 48 47 48 44 41 38 38 36 36 36 36 37 39 44 46 43 42 43 40 45 45 45 47 49 52 53 53
6 15 4 23 27 20 29 27 34 31 34 34 41 46 44 46 49 52 53 38 34 36 35 33 34 37 37 39 42 43 45 42 42 41 44 43 48 50 50 53 57 55 56
8 5 8 11 6 24 30 27 36 41 49 35 42 41 33 37 29 26 30 36 35 32 34 38 39 39 41 42 44 43 44 45 41 42 46 48 45 43 43 52 54 58 54
6 8 9 8 15 12 7 11 30 27 31 23 28 20 18 23 23 27 29 35 36 38 42 40 39 38 36 38 39 40 44 44 42 44 40 45 49 52 48 44 53 54 51
9 10 11 12 12 6 12 13 16 20 18 23 26 25 31 26 31 29 36 38 43 44 44 44 44 44 45 45 46 45 44 44 44 41 40 41 43 49 46 49 52 56 55
7 8 8 9 13 16 12 16 19 21 23 24 24 33 34 28 33 39 41 47 49 47 48 52 51 48 51 49 46 46 44 46 45 44 40 41 36 42 48 51 54 53 55
6 6 7 7 7 10 12 16 20 23 26 29 30 33 37 41 45 48 44 43 48 49 50 52 49 53 53 51 51 51 48 46 46 47 47 41 49 44 40 39 38 40 46
7 7 8 9 10 11 11 12 14 17 20 24 29 31 34 37 42 46 48 52 55 56 57 59 57 55 56 57 52 50 51 51 49 48 48 45 45 45 48 44 45 42 45
11 13 14 16 18 19 20 19 20 21 21 23 24 27 30 34 36 38 40 43 46 51 54 57 59 58 59 60 55 53 52 54 52 51 52 51 51 51 52 52 50 49 48
17 19 21 22 23 24 26 28 30 30 31 31 33 34 35 37 38 40 41 42 43 44 45 48 49 53 59 62 63 62 63 62 62 63 60 61 62 61 60 60 54 53 55
20 23 26 27 29 30 31 32 33 34 35 37 38 39 40 42 44 46 47 48 49 50 50 50 50 50 52 55 58 61 65 67 69 69 68 66 67 66 66 66 67 65 67
25 27 29 31 32 34 36 39 41 41 43 45 47 47 48 48 49 51 53 54 54 55 55 56 56 56 56 56 56 56 56 59 61 62 65 68 70 70 70 71 71 70 68
33 36 37 37 39 41 42 45 47 50 52 55 56 57 58 59 61 64 65 65 64 65 65 62 61 62 62 62 60 59 60 60 59 59 61 64 67 68 68 69 71 72 72
40 43 43 44 46 49 51 54 57 60 62 64 65 68 70 72 75 78 79 77 76 74 74 74 73 71 68 68 68 67 65 64 63 63 64 64 64 66 67 69 71 72 74
44 45 47 50 53 55 57 61 64 66 68 71 74 78 82 85 87 86 85 84 83 81 80 80 80 79 78 75 74 73 72 71 69 69 67 68 69 70 70 70 69 68 68
49 52 54 56 59 62 65 68 70 72 76 81 84 85 86 88 90 92 94 93 92 90 89 87 86 85 84 82 81 80 79 78 77 76 75 74 73 73 74 75 75 75 75
55 58 61 64 67 71 72 75 78 83 86 86 89 93 93 89 83 78 74 71 70 70 72 74 76 78 81 83 84 84 85 84 82 81 80 80 79 78 78 77 77 78 78
61 64 68 72 74 77 79 83 87 89 92 94 86 75 67 61 56 53 52 53 53 53 53 54 55 58 61 64 68 72 75 77 78 79 80 80 80 80 80 80 79 79 78
67 71 75 79 81 83 87 90 93 93 81 68 62 58 56 54 53 54 54 52 51 49 48 47 47 48 49 50 52 54 56 58 61 64 68 71 73 74 75 76 75 75 75
74 78 82 84 86 89 92 93 82 70 63 61 60 58 57 57 56 55 53 51 49 47 45 44 44 43 43 44 45 45 46 48 50 52 54 57 60 62 63 65 66 66 67

GFSGL_500_spd_117.txt.gz
Wind_Speed
33 24 25 26 32 38 43 45 48 56 66 70 72 71 72 62 60 61 57 51 44 45 44 49 51 48 42 41 39 41 40 38 38 33 38 37 42 40 40 36 37 39 35
27 20 19 16 14 24 35 39 40 42 45 48 51 56 55 60 61 58 51 47 45 48 46 49 42 43 36 37 40 42 38 38 39 39 38 41 41 44 45 46 42 39 41
17 19 19 18 17 20 28 35 36 39 43 44 46 46 52 59 56 55 52 47 48 47 46 52 40 41 34 36 40 40 36 38 40 41 36 38 41 43 46 47 45 43 42
18 20 17 19 21 25 27 29 31 33 35 37 40 44 46 48 52 49 41 41 42 43 49 46 41 41 39 37 39 39 39 40 42 37 37 38 40 38 43 44 44 44 43
3 25 13 20 19 24 29 29 33 35 36 38 40 41 43 43 42 40 41 44 46 44 49 44 42 40 42 41 42 41 41 41 42 39 39 38 38 40 41 45 49 47 44
13 9 14 13 17 23 26 30 32 35 37 41 42 43 43 43 41 43 45 43 46 47 46 44 44 46 45 44 46 43 41 43 40 41 44 43 43 46 45 47 52 53 47
10 6 8 9 19 22 27 29 32 35 38 40 41 40 44 42 44 45 43 46 51 49 47 44 46 49 49 50 46 43 44 43 41 43 44 45 46 46 46 47 51 53 51
13 3 1 1 4 15 28 37 34 37 35 41 44 43 44 47 49 51 51 53 52 52 45 47 54 51 58 48 45 44 43 43 42 42 44 47 46 43 43 40 41 52 52
13 9 4 5 2 3 11 43 34 52 39 48 41 46 47 50 49 50 46 48 47 49 62 40 53 42 38 42 42 43 44 43 45 45 46 46 46 44 43 44 44 47 53
11 12 13 10 7 8 4 16 11 17 37 43 31 36 45 44 44 45 40 43 42 31 40 41 36 38 35 39 46 46 47 44 43 42 42 46 47 47 45 40 46 50 53
8 9 9 13 15 13 6 11 7 10 12 12 17 25 34 27 24 29 41 37 32 28 30 34 38 43 47 48 48 51 50 48 48 50 50 51 49 48 47 44 40 49 54
6 6 5 6 8 12 17 18 15 13 16 16 20 20 22 23 24 26 33 37 44 46 47 49 45 45 52 47 47 49 52 54 57 55 54 52 48 48 51 46 43 45 48
7 7 7 7 7 8 7 9 13 16 18 19 21 23 26 29 30 31 33 40 39 34 38 49 52 54 54 56 58 57 59 59 59 59 58 55 55 52 51 51 47 43 42
7 8 10 10 10 10 10 12 13 14 16 19 20 21 24 28 32 33 35 37 41 45 50 51 53 51 53 58 64 63 59 58 59 59 61 60 61 57 54 52 51 49 44
12 14 16 17 18 19 20 20 21 22 22 23 25 28 29 31 33 36 38 38 39 42 43 42 44 46 52 58 66 68 66 64 67 63 63 64 62 61 61 56 51 50 49
17 19 21 22 24 25 25 25 25 26 27 29 30 31 32 34 36 38 42 44 47 49 49 50 50 50 50 51 52 53 55 58 61 66 66 68 68 65 63 62 59 56 54
20 20 23 25 28 30 31 31 32 32 34 36 36 38 40 42 43 45 46 47 49 50 52 55 56 57 58 58 58 58 58 58 58 58 62 68 69 68 70 70 69 67 66
23 26 30 32 33 34 36 37 39 41 43 45 46 48 51 53 54 55 56 57 58 60 60 61 61 61 61 63 64 65 65 65 64 64 64 63 66 71 74 77 77 76 74
26 29 34 37 39 42 44 46 47 49 50 51 53 57 60 62 63 64 66 67 69 71 72 73 74 74 74 72 70 69 71 72 72 71 70 69 68 68 68 68 69 69 70
31 35 38 42 45 48 51 53 55 57 60 62 63 67 71 73 75 76 78 80 82 83 83 83 82 82 83 83 82 82 79 78 77 78 76 75 74 73 72 71 70 70 67
38 41 43 48 52 54 58 60 62 66 67 68 72 77 81 83 86 89 91 90 89 89 89 89 89 88 88 87 86 86 86 86 85 83 83 82 79 77 76 76 74 73 72
44 46 49 54 57 60 63 65 68 69 71 75 80 84 89 92 92 93 95 92 87 81 76 73 71 71 72 75 79 83 87 89 88 87 85 85 83 82 80 79 78 77 75
48 51 55 59 62 66 68 71 73 76 79 83 89 90 91 93 91 81 72 67 64 61 58 55 52 52 51 51 53 58 63 70 76 81 83 85 85 84 82 82 80 79 77
53 55 60 64 67 70 74 77 79 82 87 89 90 92 84 73 67 65 63 61 59 57 55 55 54 53 51 50 49 49 50 52 57 62 67 71 75 78 80 80 81 80 79
56 60 65 68 72 76 80 81 84 88 89 91 83 71 66 65 65 64 62 60 58 57 56 55 54 52 50 48 46 45 44 44 46 48 51 55 58 62 65 68 72 73 74
61 65 69 73 78 81 82 85 88 90 87 75 67 65 65 65 63 61 59 57 56 55 53 52 51 50 48 46 44 42 41 40 40 41 42 44 46 48 52 54 57 60 63